[[[{"header":{"parameterUnit":"kt","parameterCategory":2,"dx":1,"dy":1,"la1":29.587661999999998,"la2":31.0,"lo1":-88.76705300000003,"lo2":-86.6583820000003,"nx":115,"ny":88,"refTime":"2022-10-25T00:00:00:Z","depth":0,"parameterNumber":1,"parameterNumberName":"U-component_of_WINDS"},"data":[6.63,6.9216,6.9209,7.0191,7.1648,7.162,7.209,7.25,7.2362,7.3799,7.5282,7.5862,7.6081,7.6299,7.6179,7.6412,7.636,7.6582,7.6582,7.6582,7.6582,7.6582,7.6582,7.6582,7.6582,7.6582,7.6582,7.6582,7.6582,7.6582,7.6582,7.6582,7.6582,7.6582,7.6582,7.6582,7.6582,7.6582,7.6582,7.6582,7.6582,7.6582,7.6582,7.6582,7.6582,7.6582,7.6582,7.6582,7.6582,7.6582,7.6582,7.6582,7.6582,7.6582,7.6582,7.6582,7.6582,7.6582,7.6582,7.6582,7.6582,7.6582,7.6582,7.6582,7.6582,7.6582,7.6582,7.6582,7.6582,7.6582,7.6582,7.6582,7.6582,7.6582,7.6582,7.6582,7.6582,7.6582,7.6582,7.6582,7.6582,7.6582,7.6582,7.6582,7.6582,7.6582,7.6582,7.6582,7.6582,7.6582,7.6582,7.6582,7.6582,7.6582,7.6582,7.6582,7.6582,7.6582,7.6582,7.6582,7.6582,7.6582,7.6582,7.6582,7.6582,7.6582,7.6582,7.6582,7.6582,7.6582,7.6582,7.6582,7.6582,7.6582,7.6582,6.4693,6.5041,6.5227,6.5893,6.6669,6.6063,6.733,6.9338,6.8779,7.052,7.3508,7.3148,7.3835,7.4381,7.4481,7.5389,7.6153,7.6743,7.664,7.6629,7.6582,7.6582,7.6582,7.6582,7.6582,7.6582,7.6582,7.6582,7.6582,7.6582,7.6582,7.6582,7.6582,7.6582,7.6582,7.6582,7.6582,7.6582,7.6582,7.6582,7.6582,7.6582,7.6582,7.6582,7.6582,7.6582,7.6582,7.6582,7.6582,7.6582,7.6582,7.6582,7.6582,7.6582,7.6582,7.6582,7.6582,7.6582,7.6582,7.6582,7.6582,7.6582,7.6582,7.6582,7.6582,7.6582,7.6582,7.6582,7.6582,7.6582,7.6582,7.6582,7.6582,7.6582,7.6582,7.6582,7.6582,7.6582,7.6582,7.6582,7.6582,7.6582,7.6582,7.6582,7.6582,7.6582,7.6582,7.6582,7.6582,7.6582,7.6582,7.6582,7.6582,7.6582,7.6582,7.6582,7.6582,7.6582,7.6582,7.6582,7.6582,7.6582,7.6582,7.6582,7.6582,7.6582,7.6582,7.6582,7.6582,7.6582,7.6582,7.6582,7.6582,7.6582,7.6582,6.4367,6.4586,6.6159,6.7178,6.7609,6.7785,6.854,6.9639,6.9401,7.0251,7.1622,7.1629,7.2372,7.3943,7.5172,7.6093,7.5837,7.7063,7.7267,7.6803,7.6582,7.664,7.6582,7.6582,7.6582,7.6582,7.6582,7.6582,7.6582,7.6582,7.6582,7.6582,7.6582,7.6582,7.6582,7.6582,7.6582,7.6582,7.6582,7.6582,7.6582,7.6582,7.6582,7.6582,7.6582,7.6582,7.6582,7.6582,7.6582,7.6582,7.6582,7.6582,7.6582,7.6582,7.6582,7.6582,7.6582,7.6582,7.6582,7.6582,7.6582,7.6582,7.6582,7.6582,7.6582,7.6582,7.6582,7.6582,7.6582,7.6582,7.6582,7.6582,7.6582,7.6582,7.6582,7.6582,7.6582,7.6582,7.6582,7.6582,7.6582,7.6582,7.6582,7.6582,7.6582,7.6582,7.6582,7.6582,7.6582,7.6582,7.6582,7.6582,7.6582,7.6582,7.6582,7.6582,7.6582,7.6582,7.6582,7.6582,7.6582,7.6582,7.6582,7.6582,7.6582,7.6582,7.6582,7.6582,7.6582,7.6582,7.6582,7.6582,7.6582,7.6582,7.6582,6.4447,6.4954,6.7283,6.8606,6.9071,6.9607,6.9829,7.02,7.0471,7.0623,7.0547,7.0537,7.1358,7.3318,7.4967,7.5971,7.6272,7.7899,7.8171,7.8013,7.7315,7.7373,7.717,7.6861,7.6582,7.6582,7.6582,7.6582,7.6582,7.6582,7.6582,7.6582,7.6582,7.6582,7.6582,7.6582,7.6582,7.6582,7.6582,7.6582,7.6582,7.6582,7.6582,7.6582,7.6582,7.6582,7.6582,7.6582,7.6582,7.6582,7.6582,7.6582,7.6582,7.6582,7.6582,7.6582,7.6582,7.6582,7.6582,7.6582,7.6582,7.6582,7.6582,7.6582,7.6582,7.6582,7.6582,7.6582,7.6582,7.6582,7.6582,7.6582,7.6582,7.6582,7.6582,7.6582,7.6582,7.6582,7.6582,7.6582,7.6582,7.6582,7.6582,7.6582,7.6582,7.6582,7.6582,7.6582,7.6582,7.6582,7.6582,7.6582,7.6582,7.6582,7.6582,7.6582,7.6582,7.6582,7.6582,7.6582,7.6582,7.6582,7.6582,7.6582,7.6582,7.6582,7.6582,7.6582,7.6582,7.6582,7.6582,7.6582,7.6582,7.6582,7.6582,6.4911,6.5811,6.6058,6.7401,6.8773,6.829,6.8465,6.9216,7.0317,7.0721,7.0518,6.9671,7.0466,7.2383,7.4437,7.5706,7.6787,7.9061,8.0027,8.0114,7.8892,7.8427,7.806,7.7344,7.7402,7.689,7.6815,7.7384,7.6873,7.6803,7.6861,7.6582,7.6582,7.6582,7.6582,7.6582,7.6582,7.6582,7.6582,7.6582,7.6582,7.6582,7.6582,7.6582,7.6582,7.6582,7.6582,7.6582,7.6582,7.6582,7.6582,7.6582,7.6582,7.6582,7.6582,7.6582,7.6582,7.6582,7.6582,7.6582,7.6582,7.6582,7.6582,7.6582,7.6582,7.6582,7.6582,7.6582,7.6582,7.6582,7.6582,7.6582,7.6582,7.6582,7.6582,7.6582,7.6582,7.6582,7.6582,7.6582,7.6582,7.6582,7.6582,7.6582,7.6582,7.6582,7.6582,7.6582,7.6582,7.6582,7.6582,7.6582,7.6582,7.6582,7.6582,7.6582,7.6582,7.6582,7.6582,7.6582,7.6582,7.6582,7.6582,7.6582,7.6582,7.6582,7.6582,7.6582,7.6582,7.6582,7.6582,7.6582,7.6582,7.6582,7.6582,6.6433,6.6845,6.6845,6.7677,6.89,6.9307,6.9647,7.0086,7.0524,7.079,7.0718,7.0231,7.0514,7.1948,7.4645,7.6274,7.6808,7.9828,8.1267,8.086,7.9929,7.9783,7.9648,7.9241,7.8758,7.8932,7.8961,7.8536,7.8816,7.8351,7.717,7.6716,7.6582,7.6582,7.6582,7.6582,7.6582,7.6582,7.6582,7.6582,7.6582,7.6582,7.6582,7.6582,7.6582,7.6582,7.6582,7.6582,7.6582,7.6582,7.6582,7.6582,7.6582,7.6582,7.6582,7.6582,7.6582,7.6582,7.6582,7.6582,7.6582,7.6582,7.6582,7.6582,7.6582,7.6582,7.6582,7.6582,7.6582,7.6582,7.6582,7.6582,7.6582,7.6582,7.6582,7.6582,7.6582,7.6582,7.6582,7.6582,7.6582,7.6582,7.6582,7.6582,7.6582,7.6582,7.6582,7.6582,7.6582,7.6582,7.6582,7.6582,7.6582,7.6582,7.6582,7.6582,7.6582,7.6582,7.6582,7.6582,7.6582,7.6582,7.6582,7.6582,7.6582,7.6582,7.6582,7.6582,7.6582,7.6582,7.6582,7.6582,7.6582,7.6582,7.6582,6.7606,6.7874,6.7874,6.8508,6.953,7.0379,7.079,7.079,7.079,7.122,7.1627,7.1062,7.1755,7.2935,7.5993,7.7135,7.8738,8.0511,8.165,8.1733,8.1325,8.1092,8.0831,8.051,8.0423,8.0365,8.0249,7.9899,7.9678,7.9067,7.7798,7.685,7.6611,7.6582,7.6582,7.6582,7.6582,7.6582,7.6582,7.6582,7.6582,7.6582,7.6582,7.6582,7.6582,7.6582,7.6582,7.6582,7.6582,7.6582,7.6582,7.6582,7.6582,7.6582,7.6582,7.6582,7.6582,7.6582,7.6582,7.6582,7.6582,7.6582,7.6582,7.6582,7.6582,7.6582,7.6582,7.6582,7.6582,7.6582,7.6582,7.6582,7.6582,7.6582,7.6582,7.6582,7.6582,7.6582,7.6582,7.6582,7.6582,7.6582,7.6582,7.6582,7.6582,7.6582,7.6582,7.6582,7.6582,7.6582,7.6582,7.6582,7.6582,7.6582,7.6582,7.6582,7.6582,7.6582,7.6582,7.6582,7.6582,7.6582,7.6582,7.6582,7.6582,7.6582,7.6582,7.6582,7.6582,7.6582,7.6582,7.6582,7.6582,7.6582,7.6582,6.8069,6.89,6.8949,6.9626,7.0548,7.0694,7.079,7.079,7.079,7.1877,7.3595,7.1379,7.2329,7.6149,7.7282,7.8326,8.0135,8.2635,8.3501,8.3489,8.2674,8.246,8.1994,8.1394,8.1307,8.0889,8.0801,8.087,7.9001,7.9223,7.8467,7.7228,7.6861,7.6803,7.6774,7.6698,7.6582,7.6582,7.6582,7.6582,7.6582,7.6582,7.6582,7.6582,7.6582,7.6582,7.6582,7.6582,7.6582,7.6582,7.6582,7.6582,7.6582,7.6582,7.6582,7.6582,7.6582,7.6582,7.6582,7.6582,7.6582,7.6582,7.6582,7.6582,7.6582,7.6582,7.6582,7.6582,7.6582,7.6582,7.6582,7.6582,7.6582,7.6582,7.6582,7.6582,7.6582,7.6582,7.6582,7.6582,7.6582,7.6582,7.6582,7.6582,7.6582,7.6582,7.6582,7.6582,7.6582,7.6582,7.6582,7.6582,7.6582,7.6582,7.6582,7.6582,7.6582,7.6582,7.6582,7.6582,7.6582,7.6582,7.6582,7.6582,7.6582,7.6582,7.6582,7.6582,7.6582,7.6582,7.6582,7.6582,7.6582,7.6582,7.6582,6.984,7.0159,7.0159,7.0402,7.0718,7.079,7.079,7.079,7.0788,7.1106,7.1673,7.1244,7.1967,7.3728,7.5955,7.8309,7.8996,8.2332,8.4177,8.4109,8.3702,8.3556,8.3421,8.314,8.2578,8.2927,8.2869,8.2607,8.1716,8.1325,8.0219,7.8776,7.7548,7.7431,7.7431,7.7065,7.6698,7.6698,7.6582,7.6582,7.6582,7.6582,7.6582,7.6582,7.6582,7.6582,7.6582,7.6582,7.6582,7.6582,7.6582,7.6582,7.6582,7.6582,7.6582,7.6582,7.6582,7.6582,7.6582,7.6582,7.6582,7.6582,7.6582,7.6582,7.6582,7.6582,7.6582,7.6582,7.6582,7.6582,7.6582,7.6582,7.6582,7.6582,7.6582,7.6582,7.6582,7.6582,7.6582,7.6582,7.6582,7.6582,7.6582,7.6582,7.6582,7.6582,7.6582,7.6582,7.6582,7.6582,7.6582,7.6582,7.6582,7.6582,7.6582,7.6582,7.6582,7.6582,7.6582,7.6582,7.6582,7.6582,7.6582,7.6582,7.6582,7.6582,7.6582,7.6582,7.6582,7.6582,7.6582,7.6582,7.6582,7.6582,7.6582,7.079,7.079,7.079,7.079,7.079,7.079,7.079,7.079,7.0811,7.1221,7.1652,7.0949,7.1267,7.3487,7.6407,7.8147,7.9286,8.2795,8.4177,8.4177,8.4109,8.4177,8.4109,8.3964,8.4022,8.4168,8.4109,8.3819,8.3683,8.2576,8.1577,8.0598,7.8979,7.8467,7.8612,7.7984,7.7239,7.7181,7.6785,7.6582,7.6582,7.6582,7.6582,7.6582,7.6582,7.6582,7.6582,7.6582,7.6582,7.6582,7.6582,7.6582,7.6582,7.6582,7.6582,7.6582,7.6582,7.6582,7.6582,7.6582,7.6582,7.6582,7.6582,7.6582,7.6582,7.6582,7.6582,7.6582,7.6582,7.6582,7.6582,7.6582,7.6582,7.6582,7.6582,7.6582,7.6582,7.6582,7.6582,7.6582,7.6582,7.6582,7.6582,7.6582,7.6582,7.6582,7.6582,7.6582,7.6582,7.6582,7.6582,7.6582,7.6582,7.6582,7.6582,7.6582,7.6582,7.6582,7.6582,7.6582,7.6582,7.6582,7.6582,7.6582,7.6582,7.6582,7.6582,7.6582,7.6582,7.6582,7.6582,7.6582,7.6582,7.6582,7.6582,7.0926,7.0836,7.0813,7.079,7.079,7.079,7.079,7.079,7.0813,7.1743,7.2952,7.1607,7.2795,7.5717,7.6771,7.8267,8.0128,8.2696,8.4177,8.4177,8.4177,8.4177,8.4177,8.4177,8.4177,8.4177,8.4109,8.3683,8.2751,8.278,8.1955,8.0878,8.0714,8.0521,8.0383,7.9241,7.8583,7.8351,7.7239,7.6815,7.6611,7.6582,7.6582,7.6582,7.6582,7.6582,7.6582,7.6582,7.6582,7.6582,7.6582,7.6582,7.6582,7.6582,7.6582,7.6582,7.6582,7.6582,7.6582,7.6582,7.6582,7.6582,7.6582,7.6582,7.6582,7.6582,7.6582,7.6582,7.6582,7.6582,7.6582,7.6582,7.6582,7.6582,7.6582,7.6582,7.6582,7.6582,7.6582,7.6582,7.6582,7.6582,7.6582,7.6582,7.6582,7.6582,7.6582,7.6582,7.6582,7.6582,7.6582,7.6582,7.6582,7.6582,7.6582,7.6582,7.6582,7.6582,7.6582,7.6582,7.6582,7.6582,7.6582,7.6582,7.6582,7.6582,7.6582,7.6582,7.6582,7.6582,7.6582,7.6582,7.6582,7.6582,7.6582,7.3061,7.2907,7.1402,7.079,7.079,7.079,7.079,7.079,7.079,7.1244,7.1627,7.1176,7.1698,7.3421,7.5739,7.8057,7.9437,8.2134,8.3635,8.4177,8.4177,8.4177,8.4177,8.4177,8.4177,8.4177,8.4109,8.408,8.3508,8.3625,8.2877,8.2383,8.2539,8.2296,8.1791,8.054,7.9398,7.8729,7.7984,7.7617,7.6658,7.66,7.6582,7.6582,7.6582,7.6582,7.6582,7.6582,7.6582,7.6582,7.6582,7.6582,7.6582,7.6582,7.6582,7.6582,7.6582,7.6582,7.6582,7.6582,7.6582,7.6582,7.6582,7.6582,7.6582,7.6582,7.6582,7.6582,7.6582,7.6582,7.6582,7.6582,7.6582,7.6582,7.6582,7.6582,7.6582,7.6582,7.6582,7.6582,7.6582,7.6582,7.6582,7.6582,7.6582,7.6582,7.6582,7.6582,7.6582,7.6582,7.6582,7.6582,7.6582,7.6582,7.6582,7.6582,7.6582,7.6582,7.6582,7.6582,7.6582,7.6582,7.6582,7.6582,7.6582,7.6582,7.6582,7.6582,7.6582,7.6582,7.6582,7.6582,7.6582,7.6582,7.6582,7.2795,7.2661,7.1311,7.079,7.079,7.079,7.079,7.079,7.079,7.079,7.0811,7.079,7.079,7.1766,7.4676,7.6643,7.8042,8.1418,8.307,8.3829,8.4177,8.4177,8.4177,8.4177,8.4177,8.4177,8.4177,8.4177,8.4177,8.4051,8.3566,8.3479,8.3664,8.3537,8.3266,8.2335,8.1288,8.0288,7.9078,7.8245,7.7286,7.7007,7.6582,7.6582,7.6582,7.6582,7.6582,7.6582,7.6582,7.6582,7.6582,7.6582,7.6582,7.6582,7.6582,7.6582,7.6582,7.6582,7.6582,7.6582,7.6582,7.6582,7.6582,7.6582,7.6582,7.6582,7.6582,7.6582,7.6582,7.6582,7.6582,7.6582,7.6582,7.6582,7.6582,7.6582,7.6582,7.6582,7.6582,7.6582,7.6582,7.6582,7.6582,7.6582,7.6582,7.6582,7.6582,7.6582,7.6582,7.6582,7.6582,7.6582,7.6582,7.6582,7.6582,7.6582,7.6582,7.6582,7.6582,7.6582,7.6582,7.6582,7.6582,7.6582,7.6582,7.6582,7.6582,7.6582,7.6582,7.6582,7.6582,7.6582,7.6582,7.6582,7.6582,7.0995,7.097,7.1039,7.1109,7.1132,7.0995,7.0924,7.079,7.079,7.079,7.079,7.079,7.079,7.145,7.3376,7.5453,7.7303,7.978,8.1838,8.3314,8.4139,8.4177,8.4177,8.4177,8.4177,8.4177,8.4177,8.4177,8.4177,8.4177,8.4177,8.4197,8.4109,8.4168,8.3935,8.3635,8.2985,8.2034,8.0027,7.8845,7.7838,7.7199,7.6582,7.6582,7.6582,7.6582,7.6582,7.6582,7.6582,7.6582,7.6582,7.6582,7.6582,7.6582,7.6582,7.6582,7.6582,7.6582,7.6582,7.6582,7.6582,7.6582,7.6582,7.6582,7.6582,7.6582,7.6582,7.6582,7.6582,7.6582,7.6582,7.6582,7.6582,7.6582,7.6582,7.6582,7.6582,7.6582,7.6582,7.6582,7.6582,7.6582,7.6582,7.6582,7.6582,7.6582,7.6582,7.6582,7.6582,7.6582,7.6582,7.6582,7.6582,7.6582,7.6582,7.6582,7.6582,7.6582,7.6582,7.6582,7.6582,7.6582,7.6582,7.6582,7.6582,7.6582,7.6582,7.6582,7.6582,7.6582,7.6582,7.6582,7.6582,7.6582,7.6582,7.3262,7.3239,7.3262,7.3239,7.3214,7.3214,7.2281,7.088,7.079,7.079,7.079,7.079,7.079,7.1267,7.2907,7.4383,7.5388,7.9066,8.0968,8.2145,8.3177,8.4052,8.4177,8.4177,8.4177,8.4177,8.4177,8.4177,8.4177,8.4177,8.4177,8.4177,8.4177,8.4177,8.4177,8.4138,8.4051,8.3382,8.1219,7.9154,7.7548,7.6832,7.6611,7.6582,7.6582,7.6582,7.6582,7.6582,7.6582,7.6582,7.6582,7.6582,7.6582,7.6582,7.6582,7.6582,7.6582,7.6582,7.6582,7.6582,7.6582,7.6582,7.6582,7.6582,7.6582,7.6582,7.6582,7.6582,7.6582,7.6582,7.6582,7.6582,7.6582,7.6582,7.6582,7.6582,7.6582,7.6582,7.6582,7.6582,7.6582,7.6582,7.6582,7.6582,7.6582,7.6582,7.6582,7.6582,7.6582,7.6582,7.6582,7.6582,7.6582,7.6582,7.6582,7.6582,7.6582,7.6582,7.6582,7.6582,7.6582,7.6582,7.6582,7.6582,7.6582,7.6582,7.6582,7.6582,7.6582,7.6582,7.6582,7.6582,7.6582,7.6582,7.6582,7.2639,7.2616,7.2664,7.2641,7.2639,7.2613,7.1877,7.0926,7.079,7.079,7.079,7.079,7.079,7.0926,7.1922,7.3706,7.5859,7.8177,8.023,8.2451,8.3528,8.4177,8.4177,8.4177,8.4177,8.4177,8.4177,8.4177,8.4177,8.4177,8.4177,8.4177,8.4177,8.4177,8.4177,8.4177,8.4177,8.3635,8.2248,8.0027,7.7972,7.6919,7.6582,7.6582,7.6582,7.6582,7.6582,7.6582,7.6582,7.6582,7.6582,7.6582,7.6582,7.6582,7.6582,7.6582,7.6582,7.6582,7.6582,7.6582,7.6582,7.6582,7.6582,7.6582,7.6582,7.6582,7.6582,7.6582,7.6582,7.6582,7.6582,7.6582,7.6582,7.6582,7.6582,7.6582,7.6582,7.6582,7.6582,7.6582,7.6582,7.6582,7.6582,7.6582,7.6582,7.6582,7.6582,7.6582,7.6582,7.6582,7.6582,7.6582,7.6582,7.6582,7.6582,7.6582,7.6582,7.6582,7.6582,7.6582,7.6582,7.6582,7.6582,7.6582,7.6582,7.6582,7.6582,7.6582,7.6582,7.6582,7.6582,7.6582,7.6582,7.6582,7.6582,7.0903,7.1221,7.1539,7.1586,7.1854,7.2349,7.1945,7.1404,7.1358,7.1063,7.079,7.104,7.1358,7.1584,7.1811,7.4126,7.6573,7.8413,8.0278,8.2716,8.3771,8.4177,8.4177,8.4177,8.4177,8.4177,8.4177,8.4177,8.4177,8.4177,8.4177,8.4177,8.4177,8.4177,8.4177,8.4177,8.4177,8.3935,8.2965,8.1256,7.9241,7.7682,7.689,7.664,7.6582,7.6582,7.6582,7.6582,7.6582,7.6582,7.6582,7.6582,7.6582,7.6582,7.6582,7.6582,7.6582,7.6582,7.6582,7.6582,7.6582,7.6582,7.6582,7.6582,7.6582,7.6582,7.6582,7.6582,7.6582,7.6582,7.6582,7.6582,7.6582,7.6582,7.6582,7.6582,7.6582,7.6582,7.6582,7.6582,7.6582,7.6582,7.6582,7.6582,7.6582,7.6582,7.6582,7.6582,7.6582,7.6582,7.6582,7.6582,7.6582,7.6582,7.6582,7.6582,7.6582,7.6582,7.6582,7.6582,7.6582,7.6582,7.6582,7.6582,7.6582,7.6582,7.6582,7.6582,7.6582,7.6582,7.6582,7.6582,7.6582,7.6582,7.6582,7.1786,7.3548,7.5435,7.6192,7.6488,7.7982,7.6627,7.3854,7.3262,7.2304,7.1176,7.2459,7.3284,7.3836,7.5174,7.6509,7.7488,7.9513,8.0575,8.2204,8.3392,8.4177,8.4177,8.4177,8.4177,8.4177,8.4177,8.4177,8.4177,8.4177,8.4177,8.4177,8.4177,8.4177,8.4177,8.4177,8.4177,8.3809,8.3042,8.2352,8.1169,7.9416,7.7722,7.6745,7.6582,7.664,7.6582,7.6582,7.6582,7.6582,7.6582,7.6582,7.6582,7.6582,7.6582,7.6582,7.6582,7.6582,7.6582,7.6582,7.6582,7.6582,7.6582,7.6582,7.6582,7.6582,7.6582,7.6582,7.6582,7.6582,7.6582,7.6582,7.6582,7.6582,7.6582,7.6582,7.6582,7.6582,7.6582,7.6582,7.6582,7.6582,7.6582,7.6582,7.6582,7.6582,7.6582,7.6582,7.6582,7.6582,7.6582,7.6582,7.6582,7.6582,7.6582,7.6582,7.6582,7.6582,7.6582,7.6582,7.6582,7.6582,7.6582,7.6582,7.6582,7.6582,7.6582,7.6582,7.6582,7.6582,7.6582,7.6582,7.6582,7.6582,7.6582,7.3658,7.5713,7.5778,7.5864,7.608,7.7117,7.5622,7.2728,7.2459,7.2371,7.2706,7.3551,7.4624,7.5864,7.7197,7.8246,7.9093,8.0487,8.143,8.2501,8.3557,8.4177,8.4177,8.4177,8.4177,8.4177,8.4177,8.4177,8.4177,8.4177,8.4177,8.4177,8.4177,8.4177,8.4177,8.4177,8.4177,8.3925,8.3071,8.2381,8.2148,8.054,7.8874,7.7896,7.753,7.7181,7.6815,7.6582,7.6582,7.6582,7.6582,7.6582,7.6582,7.6582,7.6582,7.6582,7.6582,7.6582,7.6582,7.6582,7.6582,7.6582,7.6582,7.6582,7.6582,7.6582,7.6582,7.6582,7.6582,7.6582,7.6582,7.6582,7.6582,7.6582,7.6582,7.6582,7.6582,7.6582,7.6582,7.6582,7.6582,7.6582,7.6582,7.6582,7.6582,7.6582,7.6582,7.6582,7.6582,7.6582,7.6582,7.6582,7.6582,7.6582,7.6582,7.6582,7.6582,7.6582,7.6582,7.6582,7.6582,7.6582,7.6582,7.6582,7.6582,7.6582,7.6582,7.6582,7.6582,7.6582,7.6582,7.6582,7.6582,7.6582,7.6582,7.5799,7.7382,7.5838,7.5209,7.5318,7.5725,7.5101,7.2639,7.315,7.3417,7.469,7.5096,7.6611,7.7868,7.8372,7.9664,8.1129,8.1678,8.251,8.3703,8.4052,8.4177,8.4177,8.4177,8.4177,8.4177,8.4177,8.4177,8.4177,8.4177,8.4177,8.4177,8.4177,8.4177,8.4177,8.4177,8.4177,8.3993,8.3382,8.2896,8.2605,8.1423,8.0056,7.8496,7.8274,7.7704,7.6873,7.6582,7.6582,7.6582,7.6582,7.6582,7.6582,7.6582,7.6582,7.6582,7.6582,7.6582,7.6582,7.6582,7.6582,7.6582,7.6582,7.6582,7.6582,7.6582,7.6582,7.6582,7.6582,7.6582,7.6582,7.6582,7.6582,7.6582,7.6582,7.6582,7.6582,7.6582,7.6582,7.6582,7.6582,7.6582,7.6582,7.6582,7.6582,7.6582,7.6582,7.6582,7.6582,7.6582,7.6582,7.6582,7.6582,7.6582,7.6582,7.6582,7.6582,7.6582,7.6582,7.6582,7.6582,7.6582,7.6582,7.6582,7.6582,7.6582,7.6582,7.6582,7.6582,7.6582,7.6582,7.6582,7.6582,7.6582,7.6582,7.7239,7.7642,7.9217,7.9834,8.0121,8.153,8.0818,7.9176,7.9341,7.7709,7.7594,7.9114,7.9527,8.0664,8.2045,8.3138,8.3557,8.3596,8.3392,8.4148,8.4177,8.4177,8.4177,8.4177,8.4177,8.4177,8.4177,8.4177,8.4177,8.4177,8.4177,8.4177,8.4177,8.4177,8.4177,8.4177,8.4177,8.4177,8.3867,8.3722,8.3547,8.2693,8.1016,7.9398,7.8874,7.8071,7.7094,7.664,7.6582,7.6582,7.6582,7.6582,7.6582,7.6582,7.6582,7.6582,7.6582,7.6582,7.6582,7.6582,7.6582,7.6582,7.6582,7.6582,7.6582,7.6582,7.6582,7.6582,7.6582,7.6582,7.6582,7.6582,7.6582,7.6582,7.6582,7.6582,7.6582,7.6582,7.6582,7.6582,7.6582,7.6582,7.6582,7.6582,7.6582,7.6582,7.6582,7.6582,7.6582,7.6582,7.6582,7.6582,7.6582,7.6582,7.6582,7.6582,7.6582,7.6582,7.6582,7.6582,7.6582,7.6582,7.6582,7.6582,7.6582,7.6582,7.6582,7.6582,7.6582,7.6582,7.6582,7.6582,7.6582,7.6582,7.6582,7.8968,8.1016,8.0887,8.0859,8.102,8.1926,8.1157,7.9369,7.9121,7.9141,7.9485,8.0311,8.153,8.2687,8.3674,8.4177,8.4177,8.4177,8.4177,8.4177,8.4177,8.4177,8.4177,8.4177,8.4177,8.4177,8.4177,8.4177,8.4177,8.4177,8.4177,8.4177,8.4177,8.4177,8.4177,8.4177,8.4177,8.4177,8.4177,8.4177,8.4168,8.3615,8.2491,8.1687,8.0212,7.8932,7.7606,7.6977,7.664,7.6582,7.6582,7.6582,7.6582,7.6582,7.6582,7.6582,7.6582,7.6582,7.6582,7.6582,7.6582,7.6582,7.6582,7.6582,7.6582,7.6582,7.6582,7.6582,7.6582,7.6582,7.6582,7.6582,7.6582,7.6582,7.6582,7.6582,7.6582,7.6582,7.6582,7.6582,7.6582,7.6582,7.6582,7.6582,7.6582,7.6582,7.6582,7.6582,7.6582,7.6582,7.6582,7.6582,7.6582,7.6582,7.6582,7.6582,7.6582,7.6582,7.6582,7.6582,7.6582,7.6582,7.6582,7.6582,7.6582,7.6582,7.6582,7.6582,7.6582,7.6582,7.6582,7.6582,7.6582,7.6582,7.6582,8.0975,8.4032,8.2312,8.155,8.1578,8.153,8.0644,7.9231,7.9121,8.0359,8.129,8.159,8.258,8.4071,8.409,8.4177,8.4177,8.4177,8.4177,8.4177,8.4177,8.4177,8.4177,8.4177,8.4177,8.4177,8.4177,8.4177,8.4177,8.4177,8.4177,8.4177,8.4177,8.4177,8.4177,8.4177,8.4177,8.4177,8.4177,8.4177,8.4168,8.408,8.3838,8.3169,8.1452,7.9707,7.8245,7.714,7.6629,7.6582,7.6582,7.6582,7.6582,7.6582,7.6582,7.6582,7.6582,7.6582,7.6582,7.6582,7.6582,7.6582,7.6582,7.6582,7.6582,7.6582,7.6582,7.6582,7.6582,7.6582,7.6582,7.6582,7.6582,7.6582,7.6582,7.6582,7.6582,7.6582,7.6582,7.6582,7.6582,7.6582,7.6582,7.6582,7.6582,7.6582,7.6582,7.6582,7.6582,7.6582,7.6582,7.6582,7.6582,7.6582,7.6582,7.6582,7.6582,7.6582,7.6582,7.6582,7.6582,7.6582,7.6582,7.6582,7.6582,7.6582,7.6582,7.6582,7.6582,7.6582,7.6582,7.6582,7.6582,7.6582,7.6582,8.3771,8.4177,8.3955,8.3858,8.3732,8.379,8.3353,8.3333,8.3059,8.3314,8.3577,8.3752,8.3771,8.4177,8.4177,8.4177,8.4177,8.4177,8.4177,8.4177,8.4177,8.4177,8.4177,8.4177,8.4177,8.4177,8.4177,8.4177,8.4177,8.4177,8.4177,8.4177,8.4177,8.4177,8.4177,8.4177,8.4177,8.4177,8.4177,8.4177,8.4177,8.3993,8.3586,8.2732,8.1227,7.9416,7.7635,7.6716,7.6582,7.6582,7.6582,7.6582,7.6582,7.6582,7.6582,7.6582,7.6582,7.6582,7.6582,7.6582,7.6582,7.6582,7.6582,7.6582,7.6582,7.6582,7.6582,7.6582,7.6582,7.6582,7.6582,7.6582,7.6582,7.6582,7.6582,7.6582,7.6582,7.6582,7.6582,7.6582,7.6582,7.6582,7.6582,7.6582,7.6582,7.6582,7.6582,7.6582,7.6582,7.6582,7.6582,7.6582,7.6582,7.6582,7.6582,7.6582,7.6582,7.6582,7.6582,7.6582,7.6582,7.6582,7.6582,7.6582,7.6582,7.6582,7.6582,7.6582,7.6582,7.6582,7.6582,7.6582,7.6582,7.6582,7.6582,8.3011,8.4177,8.4177,8.4177,8.4177,8.4177,8.4177,8.4177,8.4177,8.4177,8.4177,8.4177,8.4177,8.4177,8.4177,8.4177,8.4177,8.4177,8.4177,8.4177,8.4177,8.4177,8.4177,8.4177,8.4177,8.4177,8.4177,8.4177,8.4177,8.4177,8.4177,8.4177,8.4177,8.4177,8.4177,8.4177,8.4177,8.4197,8.4177,8.4177,8.408,8.3508,8.2867,8.2333,8.1121,7.9678,7.7896,7.6948,7.6582,7.6582,7.6582,7.6582,7.6582,7.6582,7.6582,7.6582,7.6582,7.6582,7.6582,7.6582,7.6582,7.6582,7.6582,7.6582,7.6582,7.6582,7.6582,7.6582,7.6582,7.6582,7.6582,7.6582,7.6582,7.6582,7.6582,7.6582,7.6582,7.6582,7.6582,7.6582,7.6582,7.6582,7.6582,7.6582,7.6582,7.6582,7.6582,7.6582,7.6582,7.6582,7.6582,7.6582,7.6582,7.6582,7.6582,7.6582,7.6582,7.6582,7.6582,7.6582,7.6582,7.6582,7.6582,7.6582,7.6582,7.6582,7.6582,7.6582,7.6582,7.6582,7.6582,7.6582,7.6582,7.6582,7.6582,8.2687,8.4158,8.4177,8.4177,8.4177,8.4177,8.4177,8.4177,8.4177,8.4177,8.4177,8.4177,8.4177,8.4177,8.4177,8.4177,8.4177,8.4177,8.4177,8.4177,8.4177,8.4177,8.4177,8.4177,8.4177,8.4177,8.4177,8.4177,8.4177,8.4177,8.4177,8.4177,8.4177,8.4177,8.4177,8.4177,8.4177,8.4168,8.3925,8.3683,8.345,8.2518,8.1799,8.1383,8.0423,7.9299,7.8042,7.7065,7.6582,7.6582,7.6582,7.6582,7.6582,7.6582,7.6582,7.6582,7.6582,7.6582,7.6582,7.6582,7.6582,7.6582,7.6582,7.6582,7.6582,7.6582,7.6582,7.6582,7.6582,7.6582,7.6582,7.6582,7.6582,7.6582,7.6582,7.6582,7.6582,7.6582,7.6582,7.6582,7.6582,7.6582,7.6582,7.6582,7.6582,7.6582,7.6582,7.6582,7.6582,7.6582,7.6582,7.6582,7.6582,7.6582,7.6582,7.6582,7.6582,7.6582,7.6582,7.6582,7.6582,7.6582,7.6582,7.6582,7.6582,7.6582,7.6582,7.6582,7.6582,7.6582,7.6582,7.6582,7.6582,7.6582,7.6582,8.3974,8.4148,8.4168,8.3993,8.3993,8.3964,8.3877,8.4003,8.3993,8.3925,8.3993,8.3819,8.3935,8.4051,8.3761,8.3848,8.4138,8.4022,8.3964,8.3993,8.4022,8.4109,8.4168,8.4177,8.4177,8.4177,8.4177,8.4177,8.4177,8.4177,8.4177,8.4177,8.4177,8.4177,8.4138,8.4138,8.4051,8.3838,8.2994,8.2489,8.2439,8.1227,8.0132,7.9019,7.8747,7.8118,7.7094,7.6698,7.6582,7.6582,7.6582,7.6582,7.6582,7.6582,7.6582,7.6582,7.6582,7.6582,7.6582,7.6582,7.6582,7.6582,7.6582,7.6582,7.6582,7.6582,7.6582,7.6582,7.6582,7.6582,7.6582,7.6582,7.6582,7.6582,7.6582,7.6582,7.6582,7.6582,7.6582,7.6582,7.6582,7.6582,7.6582,7.6582,7.6582,7.6582,7.6582,7.6582,7.6582,7.6582,7.6582,7.6582,7.6582,7.6582,7.6582,7.6582,7.6582,7.6582,7.6582,7.6582,7.6582,7.6582,7.6582,7.6582,7.6582,7.6582,7.6582,7.6582,7.6582,7.6582,7.6582,7.6582,7.6582,7.6582,7.6582,8.1841,8.1859,8.1859,8.187,8.1841,8.1822,8.1841,8.1841,8.1859,8.1859,8.187,8.187,8.1888,8.1859,8.1841,8.2277,8.3023,8.3052,8.3052,8.3052,8.3081,8.3508,8.4138,8.4177,8.4177,8.4177,8.4177,8.4177,8.4177,8.4177,8.4177,8.4177,8.4177,8.4168,8.4138,8.3479,8.3081,8.2896,8.1868,8.118,8.0918,7.991,7.9019,7.8496,7.7722,7.7065,7.6669,7.6582,7.6582,7.6582,7.6582,7.6582,7.6582,7.6582,7.6582,7.6582,7.6582,7.6582,7.6582,7.6582,7.6582,7.6582,7.6582,7.6582,7.6582,7.6582,7.6582,7.6582,7.6582,7.6582,7.6582,7.6582,7.6582,7.6582,7.6582,7.6582,7.6582,7.6582,7.6582,7.6582,7.6582,7.6582,7.6582,7.6582,7.6582,7.6582,7.6582,7.6582,7.6582,7.6582,7.6582,7.6582,7.6763,7.685,7.6705,7.6705,7.6687,7.6635,7.6617,7.6582,7.6582,7.6582,7.6582,7.6582,7.6582,7.6582,7.6582,7.6582,7.6582,7.6582,7.6582,7.6582,7.6582,7.6582,7.6582,8.05,8.05,8.05,8.05,8.05,8.05,8.05,8.0529,8.05,8.05,8.05,8.05,8.05,8.0529,8.05,8.0995,8.1703,8.1354,8.1431,8.1799,8.1809,8.2237,8.2821,8.2966,8.3218,8.3625,8.3983,8.4177,8.4177,8.4177,8.4177,8.4177,8.4177,8.3993,8.3566,8.2867,8.2148,8.1751,8.054,7.9899,7.9754,7.8583,7.7926,7.7838,7.7082,7.6582,7.6582,7.6582,7.6582,7.6582,7.6582,7.6582,7.6582,7.6582,7.6582,7.6582,7.6582,7.6582,7.6582,7.6582,7.6582,7.6582,7.6582,7.6582,7.6582,7.6582,7.6582,7.6582,7.6582,7.6582,7.6582,7.6582,7.6582,7.6582,7.6582,7.6582,7.6582,7.6582,7.6582,7.6582,7.6582,7.6582,7.6582,7.6582,7.6582,7.6582,7.6582,7.6582,7.6582,7.6582,7.66,7.6711,7.7313,7.761,7.7769,7.7905,7.7399,7.6874,7.6711,7.6582,7.6582,7.6582,7.6582,7.6582,7.6582,7.6582,7.6582,7.6582,7.6582,7.6582,7.6582,7.6582,7.6582,7.6582,7.6582,8.0394,8.0278,8.0452,8.0219,8.0132,8.0132,8.0336,8.019,8.0249,8.0074,7.9939,8.0278,8.0045,8.0278,8.0016,8.0296,8.0132,7.9223,7.9358,8.0423,8.0481,8.0579,8.0831,8.0918,8.1394,8.2421,8.3537,8.4022,8.3848,8.379,8.3819,8.3993,8.3819,8.3247,8.241,8.213,8.1606,8.0481,7.9212,7.8554,7.8409,7.7402,7.6803,7.6716,7.6658,7.6582,7.6582,7.6582,7.6582,7.6582,7.6582,7.6582,7.6582,7.6582,7.6582,7.6582,7.6582,7.6582,7.6582,7.6582,7.6582,7.6582,7.6582,7.6582,7.6582,7.6582,7.6582,7.6582,7.6582,7.6582,7.6582,7.6582,7.6582,7.6582,7.6582,7.6582,7.6582,7.6582,7.6582,7.6582,7.6582,7.6582,7.6635,7.6885,7.7134,7.7221,7.7209,7.7261,7.7416,7.7468,7.6856,7.7018,7.7752,7.8134,7.8593,7.8976,7.7944,7.7226,7.7122,7.6582,7.6582,7.6582,7.6582,7.6582,7.6582,7.6582,7.6582,7.6582,7.6582,7.6582,7.6582,7.6582,7.6582,7.6582,7.6582,7.7838,7.7838,7.7838,7.7821,7.7821,7.7838,7.7821,7.7838,7.7838,7.7856,7.7838,7.7838,7.7838,7.7856,7.7838,7.7856,7.7751,7.746,7.7943,7.9096,7.9136,7.9667,8.0365,8.05,8.0685,8.114,8.151,8.1666,8.1637,8.1666,8.1685,8.1695,8.1637,8.1481,8.1005,8.0219,7.9638,7.9049,7.7885,7.721,7.7199,7.6803,7.6582,7.6582,7.6582,7.6582,7.6582,7.6582,7.6582,7.6582,7.6582,7.6582,7.6582,7.6582,7.6582,7.6582,7.6582,7.6582,7.6582,7.6582,7.6582,7.6582,7.6582,7.6582,7.6582,7.6582,7.6582,7.6582,7.6582,7.6582,7.6582,7.6582,7.6582,7.6582,7.6582,7.6582,7.6582,7.6582,7.6582,7.6582,7.6582,7.7169,7.8041,7.8232,7.869,7.9932,7.9983,8.0013,8.0013,7.9981,7.972,7.861,7.8727,7.8626,7.8388,7.8656,7.8046,7.8421,7.8539,7.7204,7.6582,7.6582,7.6582,7.6582,7.6582,7.6582,7.6582,7.6582,7.6582,7.6582,7.6582,7.6582,7.6582,7.6582,7.6582,7.6582,7.6582,7.6582,7.6582,7.6582,7.6582,7.6582,7.6582,7.6582,7.6582,7.6582,7.6582,7.6582,7.6582,7.6582,7.6582,7.6582,7.6582,7.7007,7.7751,7.7838,7.8292,7.9038,7.9067,7.927,7.9678,7.9794,8.0016,8.0423,8.05,8.05,8.05,8.05,8.0201,7.9725,7.8932,7.8263,7.778,7.7082,7.6582,7.6611,7.6582,7.6582,7.6582,7.6582,7.6582,7.6582,7.6582,7.6582,7.6582,7.6582,7.6582,7.6582,7.6582,7.6582,7.6582,7.6582,7.6582,7.6582,7.6582,7.6582,7.6582,7.6582,7.6582,7.6582,7.6582,7.6582,7.6582,7.6582,7.6582,7.6582,7.6582,7.6582,7.6582,7.6582,7.6582,7.6582,7.6582,7.6582,7.6582,7.66,7.6943,7.7752,7.8198,7.8639,7.962,7.9785,7.9573,7.9737,7.9769,7.9126,7.8489,7.8676,7.8943,7.8198,7.8723,7.8559,7.9145,7.8976,7.7347,7.66,7.6582,7.6582,7.6582,7.6582,7.6582,7.6582,7.6582,7.6582,7.6582,7.6582,7.6582,7.6582,7.6582,7.6582,7.6582,7.6582,7.6582,7.6582,7.6582,7.6582,7.6582,7.6582,7.6582,7.6582,7.6582,7.6582,7.6582,7.6582,7.6582,7.6582,7.6582,7.6582,7.6658,7.6698,7.6658,7.6611,7.6582,7.6611,7.7297,7.8362,7.8438,7.899,8.0074,8.019,8.0307,8.0219,8.0074,7.959,7.8612,7.838,7.7827,7.6861,7.6658,7.6582,7.6582,7.6582,7.6582,7.6582,7.6582,7.6582,7.6582,7.6582,7.6582,7.6582,7.6582,7.6582,7.6582,7.6582,7.6582,7.6582,7.6582,7.6582,7.6582,7.6582,7.6582,7.6582,7.6582,7.6582,7.6582,7.6582,7.6582,7.6582,7.6582,7.6582,7.6582,7.6582,7.6582,7.6582,7.6582,7.6582,7.6582,7.6582,7.6582,7.6798,7.6711,7.685,7.6874,7.6711,7.7524,7.8046,7.7644,7.7956,7.8606,7.8024,7.8041,7.8228,7.874,7.9837,8.1024,8.0046,7.8673,7.8893,7.8877,7.6874,7.6693,7.6582,7.6582,7.6582,7.6582,7.6582,7.6582,7.66,7.6617,7.6582,7.6582,7.6582,7.6582,7.6582,7.6582,7.6582,7.6582,7.6582,7.6582,7.6582,7.6582,7.6582,7.6582,7.6582,7.6582,7.6582,7.6582,7.6582,7.6582,7.6582,7.6582,7.6582,7.6582,7.6582,7.6582,7.6582,7.6582,7.6582,7.6582,7.6803,7.7082,7.7152,7.7326,7.7606,7.7682,7.7653,7.7664,7.7664,7.7443,7.717,7.7094,7.6919,7.6611,7.6582,7.6582,7.6582,7.6582,7.6582,7.6582,7.6582,7.6582,7.6582,7.6582,7.6582,7.6582,7.6582,7.6582,7.6582,7.6582,7.6582,7.6582,7.6582,7.6582,7.6582,7.6582,7.6582,7.6582,7.6582,7.6582,7.6582,7.6582,7.6582,7.6582,7.6582,7.6582,7.6582,7.6582,7.6582,7.6582,7.6582,7.6582,7.6582,7.6582,7.7018,7.8079,7.7226,7.6995,7.8219,7.9291,8.0625,8.2515,8.3361,8.3926,8.3911,8.3391,8.3031,8.2287,8.1261,8.1761,8.2911,8.1355,8.0658,8.0562,7.9557,7.8046,7.6798,7.6658,7.6635,7.7541,7.6833,7.6722,7.7226,7.6926,7.6711,7.6635,7.6635,7.6658,7.66,7.6582,7.6582,7.6582,7.6582,7.6582,7.6582,7.6582,7.6582,7.6582,7.6582,7.6582,7.6582,7.6582,7.6582,7.6582,7.6582,7.6582,7.6582,7.6582,7.6582,7.6582,7.6582,7.6582,7.6582,7.6582,7.6582,7.6582,7.6582,7.6582,7.6582,7.6582,7.6582,7.6582,7.6582,7.6582,7.6582,7.6582,7.6582,7.6582,7.6582,7.6582,7.6582,7.6582,7.6582,7.6582,7.6582,7.6582,7.6582,7.6582,7.6582,7.6582,7.6582,7.6582,7.6582,7.6582,7.6582,7.6582,7.6582,7.6582,7.6582,7.6582,7.6582,7.6582,7.6582,7.6582,7.6582,7.6582,7.6582,7.6582,7.6582,7.6582,7.6582,7.6582,7.6582,7.6582,7.6582,7.6582,7.6582,7.6582,7.6582,7.6908,7.779,7.7209,7.703,7.7978,7.899,8.0401,8.1916,8.2408,8.1854,8.2394,8.3182,8.3061,8.2394,8.2592,8.3303,8.4587,8.3286,8.224,8.2164,8.1261,8.0047,7.8976,7.8673,7.8606,7.874,7.8907,7.8877,7.8472,7.8639,7.835,7.7718,7.7632,7.7335,7.6693,7.66,7.7382,7.6582,7.6582,7.6582,7.6582,7.6582,7.6582,7.6582,7.6582,7.6582,7.6582,7.6582,7.6582,7.6582,7.66,7.6454,7.6338,7.6338,7.628,7.6268,7.6338,7.6414,7.6483,7.657,7.6582,7.6582,7.6582,7.6582,7.6582,7.6582,7.6582,7.6582,7.6582,7.6582,7.6582,7.6582,7.6582,7.6582,7.6582,7.6582,7.6582,7.6582,7.6582,7.6582,7.6582,7.6582,7.6582,7.6582,7.6582,7.6582,7.6582,7.6582,7.6582,7.6553,7.6454,7.6379,7.6367,7.6251,7.6309,7.6367,7.6512,7.6582,7.6582,7.6582,7.6582,7.6582,7.6367,7.6222,7.6134,7.6251,7.628,7.6425,7.6524,7.6582,7.6582,7.6816,7.6816,7.6961,7.6972,7.7088,7.7192,7.7713,7.7186,7.7956,7.8262,7.8024,7.9159,7.98,7.9948,7.9899,8.0722,8.1182,8.0787,8.2317,8.4836,8.5807,8.3955,8.3213,8.3662,8.279,8.1777,8.1245,8.1167,8.1527,8.0658,8.1182,8.1088,8.123,8.1543,8.0897,7.9704,7.9244,7.8943,7.7593,7.7364,7.813,7.6582,7.6582,7.6582,7.6582,7.6582,7.6582,7.6582,7.6582,7.6582,7.6582,7.6582,7.6582,7.6582,7.6483,7.5529,7.5081,7.4948,7.4046,7.4117,7.5023,7.5064,7.5628,7.6512,7.6582,7.6582,7.6582,7.6582,7.6582,7.6582,7.6582,7.6582,7.6582,7.6582,7.6582,7.6582,7.6582,7.6582,7.6582,7.6582,7.6582,7.6582,7.6582,7.6582,7.6582,7.6553,7.6582,7.6582,7.6582,7.6582,7.6582,7.6582,7.6582,7.6553,7.5611,7.5064,7.4977,7.4163,7.4,7.5006,7.6006,7.6582,7.6582,7.6582,7.6582,7.6437,7.4768,7.3576,7.3709,7.4524,7.511,7.518,7.5919,7.6582,7.6658,7.7735,7.8289,7.8647,7.9737,8.0976,8.204,8.1323,8.0976,8.2102,8.244,8.2195,8.224,8.3648,8.4352,8.4425,8.4674,8.4352,8.3943,8.4746,8.6047,8.6467,8.5737,8.5006,8.4136,8.3715,8.2898,8.1943,8.1636,8.1637,8.1636,8.1652,8.1713,8.1652,8.1714,8.1528,8.1292,8.1087,8.0913,8.0304,8.0159,8.0482,7.6582,7.6582,7.6582,7.6582,7.6582,7.6582,7.6582,7.6524,7.5948,7.5669,7.5762,7.6309,7.6582,7.6495,7.5861,7.5529,7.5529,7.4785,7.4855,7.55,7.5529,7.5937,7.6524,7.6582,7.6582,7.6582,7.6582,7.6582,7.6582,7.6582,7.6582,7.6582,7.6582,7.6582,7.6582,7.6582,7.6582,7.6524,7.5408,7.4826,7.4814,7.4291,7.4,7.3971,7.4536,7.4797,7.4814,7.4826,7.4826,7.4814,7.4814,7.4814,7.4814,7.4163,7.3772,7.3726,7.307,7.2983,7.3743,7.4436,7.4797,7.4797,7.4797,7.4814,7.4797,7.3535,7.2675,7.2704,7.3319,7.3784,7.3784,7.4378,7.5122,7.5773,7.6664,7.7498,7.8326,7.9712,8.0995,8.1787,8.1741,8.1993,8.2911,8.2986,8.3033,8.3061,8.366,8.425,8.4207,8.496,8.5246,8.4561,8.4975,8.5314,8.4737,8.4671,8.4284,8.3484,8.3291,8.2878,8.2206,8.1899,8.1913,8.1902,8.1916,8.2189,8.2903,8.2892,8.2844,8.282,8.2821,8.2363,8.1652,8.0976,8.0624,7.6582,7.6582,7.6582,7.6483,7.6338,7.6309,7.6222,7.5931,7.4843,7.4354,7.4441,7.5524,7.6117,7.628,7.6134,7.6117,7.6309,7.6117,7.6134,7.6309,7.628,7.6396,7.6582,7.6582,7.6582,7.6582,7.6582,7.6582,7.6582,7.6582,7.6582,7.6582,7.6582,7.6582,7.6582,7.6582,7.6512,7.6251,7.4133,7.3041,7.3215,7.2243,7.1503,7.1038,7.2301,7.2779,7.2227,7.2546,7.2372,7.1674,7.1661,7.1529,7.1354,7.1047,7.1338,7.1849,7.1749,7.1836,7.2123,7.2197,7.2343,7.2634,7.2675,7.2645,7.2558,7.2681,7.2815,7.2815,7.3079,7.3079,7.3109,7.3445,7.424,7.5285,7.5602,7.6221,7.7704,7.9175,8.0176,8.0265,8.0986,8.1747,8.1892,8.1865,8.1892,8.1793,8.224,8.1928,8.2299,8.3112,8.3971,8.4078,8.4046,8.3553,8.2869,8.2244,8.2435,8.2231,8.2304,8.2318,8.2161,8.2161,8.2174,8.2219,8.218,8.2633,8.3584,8.4065,8.372,8.3549,8.3522,8.324,8.2008,8.0472,7.996,7.6582,7.6582,7.6582,7.596,7.4994,7.5023,7.4349,7.3361,0.0,0.0,0.0,7.3302,7.3988,7.489,7.3872,7.3942,7.4907,7.3855,7.3988,7.4965,7.4977,7.5541,7.6553,7.6582,7.6582,7.6582,7.6582,7.6582,7.6582,7.6582,7.6582,7.6582,7.6582,7.6582,7.6582,7.6582,7.6047,7.5023,7.4541,7.4831,7.5844,7.5698,7.4117,7.1009,7.3086,7.287,6.9829,7.1587,7.0773,6.6762,6.6442,6.5961,6.4884,6.3823,6.4681,6.7708,6.7052,6.7386,6.9477,6.9639,7.054,7.2559,7.2675,7.2364,7.1656,7.2686,7.3329,7.336,7.4314,7.4914,7.4975,7.5867,7.6679,7.692,7.809,7.8894,7.9266,8.0744,8.1616,8.175,8.1889,8.214,8.213,8.2071,8.2121,8.2127,8.206,8.2121,8.2182,8.2409,8.2593,8.2625,8.258,8.2507,8.2244,8.2079,8.2231,8.1981,8.2079,8.2231,8.2231,8.2231,8.2231,8.1981,8.2198,8.2277,8.254,8.2606,8.26,8.256,8.2586,8.2493,8.2054,8.0794,8.0135,7.464,0.0,7.4594,7.4216,0.0,7.3639,7.2575,7.0847,7.0802,7.1196,7.1819,7.2447,7.3057,7.3639,7.2983,7.3041,7.3593,7.2966,7.339,7.4587,7.4616,7.5326,7.6582,7.6582,7.6582,7.6582,7.6582,7.6582,7.6582,7.6582,7.6222,7.5582,7.557,7.5006,7.3784,7.4303,7.432,7.3685,7.3639,7.3971,7.4565,7.4046,7.2517,7.0165,0.0,0.0,0.0,0.0,0.0,0.0,0.0,0.0,0.0,0.0,0.0,6.3925,6.1089,5.9852,6.1117,6.1608,6.3308,6.6695,6.7325,6.7385,6.6931,6.9636,7.0686,6.9272,7.1706,7.3639,7.4367,7.5036,7.5697,7.6418,7.7168,7.7973,7.8805,8.023,8.11,8.1179,8.1771,8.2231,8.2231,8.2231,8.2231,8.2231,8.2231,8.2225,8.2165,8.1619,8.1146,8.1159,8.1133,8.0896,8.0263,8.0053,8.002,8.0066,8.0053,8.0066,8.0086,8.0053,8.002,8.0053,8.0053,8.0337,8.0896,8.1146,8.1376,8.2014,8.2231,8.1849,8.0233,7.9415,7.9099,7.2675,7.2675,7.2675,7.2575,7.2359,7.211,7.0876,6.8999,6.8986,6.9596,7.0647,7.1574,7.2172,7.2372,7.2388,7.2488,7.2675,7.2675,7.3273,7.4296,7.4267,7.4861,7.5815,7.5844,7.5989,7.6193,7.6222,7.6355,7.6582,7.6582,7.6036,7.5052,7.5023,7.3872,7.1811,0.0,0.0,0.0,7.2837,7.3086,7.3057,7.2114,7.0689,6.8753,7.0136,0.0,6.8388,6.9022,6.8833,6.7634,6.784,0.0,0.0,0.0,0.0,0.0,0.0,0.0,0.0,0.0,0.0,0.0,6.0882,6.1643,6.2802,6.6244,6.7139,6.4415,6.848,7.1604,7.2246,7.2748,7.3775,7.5404,7.5656,7.6234,7.7756,7.8988,7.9666,7.9699,8.0653,8.1389,8.1303,8.1402,8.1356,8.127,8.1435,8.1435,8.1336,8.0324,7.9745,7.9666,7.9699,7.9264,7.8092,7.8059,7.8224,7.796,7.796,7.8026,7.8125,7.8059,7.8006,7.8059,7.796,7.8421,7.9469,7.9654,7.9995,8.1171,8.1336,8.0711,7.8487,7.796,7.796,7.2675,7.2675,7.2675,7.2098,7.108,6.9975,6.929,6.8986,6.8986,6.9086,6.9277,6.9377,7.0104,7.1154,7.1138,7.1736,7.2663,7.2675,7.2779,7.2953,7.2953,7.3057,7.3215,7.3215,7.3768,7.4878,7.4907,7.5471,7.6553,7.6582,7.6495,7.6355,7.6338,7.5617,7.418,7.3186,7.2197,7.1212,7.329,7.44,7.4383,7.4238,7.1969,6.7679,6.9657,6.9263,6.589,6.9006,6.8249,6.2688,6.3538,6.3094,6.0635,5.8923,5.7511,0.0,5.4644,0.0,0.0,0.0,0.0,0.0,0.0,0.0,0.0,6.4753,6.4256,6.1408,6.7486,7.0512,6.8117,7.0239,7.2848,7.5412,7.5776,7.6361,7.7726,7.8092,7.8236,7.8211,7.8388,7.8499,7.8553,7.8499,7.8487,7.8664,7.8606,7.8487,7.8487,7.8343,7.8224,7.8236,7.8224,7.8257,7.7895,7.7829,7.7796,7.7862,7.773,7.796,7.7796,7.7796,7.7862,7.7862,7.773,7.7874,7.8158,7.8203,7.8277,7.8553,7.8565,7.8322,7.7862,7.773,7.796,7.0656,7.0656,7.0656,6.9493,6.7663,6.7111,6.6863,6.6863,6.6834,6.6834,6.6892,6.7605,6.8652,6.9842,6.9874,7.0149,7.0627,7.0673,7.1051,7.1736,7.172,7.2052,7.2675,7.2675,7.2999,7.3581,7.3552,7.3872,7.4407,7.4453,7.439,7.4465,7.4419,7.2372,6.8579,7.0556,7.1458,7.0951,7.2043,7.29,7.3569,7.3581,7.2172,6.9398,7.113,7.0964,6.8546,7.0156,6.978,6.6957,6.6649,6.5695,6.362,5.805,5.5066,0.0,0.0,0.0,0.0,0.0,0.0,0.0,0.0,0.0,0.0,0.0,5.7113,6.0402,6.727,6.9649,6.5132,6.7303,6.9232,6.9715,6.9068,7.0099,7.3992,7.364,7.3704,7.5371,7.5568,7.5864,7.6633,7.6752,7.7039,7.7829,7.6567,7.5568,7.5634,7.6259,7.6731,7.6797,7.7434,7.773,7.6842,7.6094,7.5568,7.5568,7.5601,7.5568,7.5568,7.5568,7.5556,7.5568,7.5568,7.5568,7.5589,7.616,7.6764,7.6666,7.6127,7.5634,7.5556,7.6217,7.6764,6.8069,6.801,6.7095,6.5888,6.4608,6.4332,6.4565,6.5133,6.5133,6.5133,6.5162,6.5846,6.6325,6.6644,6.5742,6.5845,6.6702,6.6717,6.791,6.9948,7.0036,7.0643,7.1774,7.1819,7.1965,7.2243,7.1661,7.179,7.2634,7.1807,7.1196,7.0889,7.0569,6.801,6.3518,6.7431,7.002,7.0938,7.1196,7.1807,7.2696,7.2768,7.2235,7.1051,7.2435,7.2544,7.1219,7.1515,7.1367,7.0634,6.8748,6.6923,6.5235,5.6978,0.0,0.0,0.0,0.0,0.0,0.0,0.0,0.0,0.0,5.058,4.7583,0.0,5.1763,0.0,6.5286,6.727,6.3234,6.4431,0.0,0.0,6.3049,6.3651,6.8377,6.8477,6.9057,7.1348,7.218,7.3145,7.4615,7.4779,7.5218,7.6217,7.4516,7.3025,7.2673,7.3858,7.4692,7.4352,7.4976,7.5437,7.4286,7.3551,7.3309,7.3605,7.3725,7.3692,7.3692,7.3692,7.3692,7.3692,7.3692,7.3692,7.3769,7.4525,7.5129,7.4779,7.4241,7.3692,7.3692,7.457,7.5305,6.5408,6.5133,6.154,6.1323,6.3169,6.2036,6.2878,6.5103,6.5103,6.5133,6.5045,6.394,6.221,5.9869,5.6444,0.0,6.0043,6.0057,6.2718,6.7345,6.7374,6.8042,6.9277,6.9319,6.99,7.1025,6.8623,6.9292,7.2372,6.9221,6.6893,6.5714,6.4521,6.3692,6.33,6.4725,6.7343,7.0879,7.1969,7.2621,7.2679,7.291,7.2451,7.119,7.2632,7.2714,7.1278,7.2536,7.2046,6.925,6.5852,6.2755,5.9961,0.0,0.0,0.0,0.0,0.0,0.0,0.0,0.0,0.0,0.0,0.0,0.0,0.0,0.0,0.0,5.9638,0.0,6.2707,6.1809,0.0,0.0,0.0,5.9535,6.1329,6.371,6.5354,6.5606,0.0,0.0,7.1666,7.1875,7.1908,7.2039,7.1842,7.1162,6.9726,7.0855,7.1359,7.0164,6.9923,6.9901,7.0241,7.0756,7.1688,7.2882,7.3692,7.3429,7.3408,7.3441,7.3605,7.3495,7.3659,7.3593,7.3659,7.3572,7.3419,7.2171,7.2762,7.3593,7.3495,7.3671,7.3847,6.122,5.6913,5.5387,5.5317,5.6115,5.4855,5.6221,5.9315,5.8513,5.8207,5.8236,5.85,5.7149,5.4689,5.397,0.0,0.0,0.0,5.8222,6.2369,6.2383,6.3925,6.6543,6.6688,6.7343,6.8523,6.7533,6.8232,7.044,6.8972,6.3314,5.3875,0.0,0.0,5.5031,6.0659,6.4778,6.7212,7.019,7.1768,7.1769,7.2799,7.3058,7.2624,7.3955,7.407,7.2597,7.2392,7.0255,6.59,6.2408,5.8533,0.0,0.0,0.0,0.0,0.0,0.0,0.0,0.0,0.0,0.0,0.0,4.6169,4.3511,0.0,0.0,0.0,5.1341,5.1702,5.2303,5.4965,0.0,0.0,0.0,0.0,0.0,0.0,0.0,6.1954,6.4114,6.6186,6.8476,6.8114,6.7873,6.8739,6.8081,6.7304,6.6691,0.0,6.8926,6.9178,6.9244,6.9244,6.9211,6.7577,6.6743,6.8181,6.9101,6.9671,6.9715,7.0438,7.0964,7.0985,7.0997,7.0953,7.0997,7.0953,7.0723,7.0285,7.0602,7.0953,7.0985,7.171,7.2378,5.5914,0.0,0.0,0.0,0.0,4.9187,5.0692,5.3891,5.2944,5.2531,5.259,5.3123,0.0,0.0,0.0,0.0,0.0,0.0,5.4602,5.8225,5.9753,6.1889,6.4565,6.4565,6.503,6.5875,6.4842,6.4827,6.5656,6.4972,5.8254,4.6176,0.0,0.0,0.0,0.0,6.2284,6.4971,6.9449,7.1839,7.1839,7.2908,7.3656,7.4087,7.5108,7.462,7.239,7.0574,6.7293,6.2325,5.7581,0.0,0.0,0.0,0.0,0.0,0.0,0.0,0.0,0.0,0.0,0.0,0.0,0.0,0.0,0.0,0.0,0.0,0.0,0.0,4.6762,5.038,5.153,0.0,0.0,0.0,0.0,0.0,0.0,0.0,0.0,0.0,6.3783,6.3796,6.44,0.0,0.0,6.5265,6.442,6.5539,6.6515,6.6724,6.6374,0.0,6.5606,6.3664,6.2556,6.3513,6.5604,6.6799,6.5987,6.6997,6.7732,6.6845,6.7743,6.8455,6.8061,6.7381,6.6713,6.6779,6.6757,6.6779,6.6855,6.8301,6.9638,0.0,0.0,0.0,0.0,0.0,0.0,0.0,0.0,4.9896,4.9808,0.0,4.8583,0.0,0.0,0.0,0.0,0.0,4.8086,0.0,0.0,6.0394,6.3082,6.3096,6.3082,6.3198,6.3053,5.959,5.7886,5.7741,5.5338,0.0,0.0,0.0,0.0,0.0,0.0,5.9892,6.5008,7.0482,7.3359,7.3373,7.3443,7.412,7.5462,7.5675,7.3801,6.9668,6.668,6.3096,5.8757,5.1025,0.0,0.0,0.0,0.0,0.0,0.0,0.0,0.0,0.0,0.0,0.0,0.0,0.0,0.0,0.0,0.0,0.0,0.0,0.0,0.0,4.9804,0.0,0.0,0.0,0.0,0.0,0.0,0.0,0.0,0.0,0.0,5.6974,5.9103,6.1823,6.4597,0.0,0.0,0.0,0.0,6.4039,6.1428,5.9798,5.8492,5.7237,5.9037,6.062,6.0737,0.0,0.0,6.3355,6.4049,6.4213,6.1536,6.4464,6.669,6.5146,6.2559,6.0968,6.0968,6.1057,6.0935,6.1122,6.3292,6.5134,0.0,0.0,0.0,0.0,0.0,0.0,0.0,0.0,0.0,4.4788,0.0,4.344,0.0,0.0,0.0,0.0,0.0,0.0,0.0,0.0,5.0332,5.2803,5.4477,5.6173,5.6535,0.0,5.4382,5.1588,0.0,0.0,0.0,0.0,0.0,0.0,0.0,0.0,5.7816,6.2134,6.8683,7.2531,7.3452,7.3562,7.3846,7.4324,7.4388,7.1463,6.5288,6.2375,5.823,0.0,0.0,0.0,0.0,0.0,0.0,0.0,0.0,0.0,0.0,0.0,0.0,0.0,0.0,0.0,0.0,0.0,0.0,0.0,0.0,0.0,0.0,0.0,4.8413,0.0,0.0,0.0,0.0,0.0,0.0,0.0,0.0,0.0,5.2122,5.546,5.8567,6.0488,6.1146,6.1451,6.1395,0.0,0.0,0.0,0.0,0.0,0.0,0.0,5.5607,5.7533,5.5954,5.4967,5.6773,5.9864,6.1813,6.0846,0.0,0.0,5.6346,5.5007,5.5254,5.6182,5.7135,5.7829,5.7871,5.9389,6.0465,0.0,0.0,0.0,0.0,0.0,0.0,0.0,0.0,0.0,4.0639,4.0164,0.0,0.0,0.0,0.0,0.0,0.0,0.0,0.0,0.0,0.0,0.0,4.85,5.0221,0.0,0.0,0.0,0.0,0.0,0.0,0.0,0.0,0.0,0.0,0.0,0.0,5.7588,6.0704,6.8168,7.255,7.3523,7.3627,7.3692,7.3692,7.3233,6.9989,6.3717,0.0,0.0,0.0,0.0,0.0,0.0,0.0,0.0,0.0,0.0,0.0,0.0,0.0,0.0,0.0,0.0,0.0,0.0,0.0,0.0,0.0,0.0,0.0,0.0,0.0,4.6363,0.0,0.0,0.0,0.0,0.0,0.0,0.0,0.0,0.0,0.0,0.0,5.5057,5.7473,5.8624,5.9568,6.0507,6.0629,6.0968,0.0,0.0,0.0,0.0,0.0,0.0,0.0,0.0,0.0,0.0,0.0,0.0,0.0,0.0,5.8295,5.1078,4.9746,4.9926,5.0372,0.0,0.0,0.0,0.0,0.0,0.0,0.0,0.0,0.0,0.0,0.0,0.0,0.0,0.0,0.0,0.0,0.0,0.0,3.4482,0.0,0.0,0.0,0.0,0.0,0.0,0.0,0.0,0.0,0.0,0.0,0.0,0.0,0.0,0.0,0.0,0.0,0.0,0.0,0.0,0.0,0.0,5.9075,6.0662,6.9047,7.3504,7.357,7.356,7.3495,7.3462,7.216,6.932,6.4828,0.0,0.0,0.0,0.0,0.0,0.0,0.0,0.0,0.0,0.0,0.0,0.0,0.0,0.0,0.0,0.0,0.0,0.0,0.0,0.0,0.0,0.0,0.0,0.0,0.0,0.0,4.3709,4.598,4.7581,0.0,0.0,0.0,0.0,0.0,0.0,0.0,0.0,0.0,0.0,5.8717,6.0507,6.0531,6.0573,6.0474,6.0563,5.8214,5.6423,5.657,5.7506,5.7455,0.0,0.0,0.0,0.0,0.0,0.0,0.0,0.0,0.0,0.0,0.0,0.0,0.0,0.0,0.0,0.0,0.0,0.0,0.0,0.0,0.0,0.0,0.0,0.0,0.0,0.0,0.0,0.0,0.0,0.0,0.0,0.0,0.0,0.0,0.0,0.0,0.0,0.0,0.0,0.0,0.0,0.0,0.0,0.0,0.0,0.0,0.0,0.0,0.0,0.0,0.0,0.0,0.0,0.0,5.7057,5.9155,6.668,7.1062,7.2148,7.1074,7.0537,7.0493,6.9145,6.6328,0.0,0.0,0.0,0.0,0.0,0.0,0.0,0.0,0.0,0.0,0.0,0.0,0.0,0.0,0.0,0.0,0.0,0.0,0.0,0.0,0.0,0.0,0.0,0.0,0.0,0.0,0.0,0.0,4.712,4.7204,4.6224,0.0,0.0,0.0,0.0,0.0,0.0,0.0,0.0,0.0,0.0,5.6788,5.8812,5.8271,5.8017,5.9,5.7581,5.6693,5.7736,5.7383,5.6373,5.4356,0.0,0.0,0.0,0.0,0.0,0.0,0.0,0.0,0.0,0.0,0.0,0.0,0.0,0.0,0.0,0.0,0.0,0.0,0.0,0.0,0.0,0.0,0.0,0.0,0.0,0.0,0.0,0.0,0.0,0.0,0.0,0.0,0.0,0.0,0.0,0.0,0.0,0.0,0.0,0.0,0.0,0.0,0.0,0.0,0.0,0.0,0.0,0.0,0.0,0.0,0.0,0.0,0.0,5.6251,5.7778,6.5278,6.9649,7.0559,6.9726,6.9244,6.92,6.784,6.4529,0.0,0.0,0.0,0.0,0.0,0.0,0.0,0.0,0.0,0.0,0.0,0.0,0.0,0.0,0.0,0.0,0.0,0.0,0.0,0.0,0.0,0.0,0.0,0.0,0.0,0.0,0.0,0.0,4.4777,4.5237,4.5486,0.0,0.0,0.0,0.0,0.0,0.0,0.0,0.0,0.0,0.0,5.4061,5.646,5.605,0.0,0.0,5.6806,5.6158,5.8187,5.8229,5.6941,5.3732,5.1744,0.0,0.0,0.0,0.0,0.0,0.0,0.0,0.0,0.0,0.0,0.0,0.0,0.0,0.0,0.0,0.0,0.0,0.0,0.0,0.0,0.0,0.0,0.0,0.0,0.0,0.0,0.0,0.0,0.0,0.0,0.0,0.0,0.0,0.0,0.0,0.0,0.0,0.0,0.0,0.0,0.0,0.0,0.0,0.0,0.0,0.0,0.0,0.0,0.0,0.0,0.0,0.0,0.0,5.6654,6.4838,6.9244,6.92,6.9112,6.9079,6.9003,6.7512,6.3345,0.0,0.0,0.0,0.0,0.0,0.0,0.0,0.0,0.0,0.0,0.0,0.0,0.0,0.0,0.0,0.0,0.0,0.0,0.0,0.0,0.0,0.0,0.0,0.0,0.0,0.0,0.0,0.0,0.0,0.0,0.0,0.0,0.0,0.0,0.0,0.0,0.0,0.0,0.0,0.0,0.0,5.2335,5.3831,5.3879,5.4808,0.0,0.0,5.4808,5.7488,5.9248,5.8412,5.2689,0.0,0.0,0.0,0.0,0.0,0.0,0.0,0.0,0.0,0.0,0.0,0.0,0.0,0.0,0.0,0.0,0.0,0.0,0.0,0.0,0.0,0.0,0.0,0.0,0.0,0.0,0.0,0.0,0.0,0.0,0.0,0.0,0.0,0.0,0.0,0.0,0.0,0.0,0.0,0.0,0.0,0.0,0.0,0.0,0.0,0.0,0.0,0.0,0.0,0.0,0.0,0.0,0.0,0.0,5.6522,6.4828,6.9244,6.9178,6.8181,6.76,6.7534,6.4125,0.0,0.0,0.0,0.0,0.0,0.0,0.0,0.0,0.0,0.0,0.0,0.0,0.0,0.0,0.0,0.0,0.0,0.0,0.0,0.0,0.0,0.0,0.0,0.0,0.0,0.0,0.0,3.615,0.0,0.0,0.0,0.0,0.0,0.0,0.0,0.0,0.0,0.0,0.0,0.0,0.0,0.0,5.121,5.3707,5.222,5.1859,0.0,0.0,5.2303,5.1982,5.5016,5.5796,0.0,0.0,0.0,0.0,0.0,0.0,0.0,0.0,0.0,0.0,0.0,0.0,0.0,0.0,0.0,0.0,0.0,0.0,0.0,0.0,0.0,0.0,0.0,0.0,0.0,0.0,0.0,0.0,0.0,0.0,0.0,0.0,0.0,0.0,0.0,0.0,0.0,0.0,0.0,0.0,0.0,0.0,0.0,0.0,0.0,0.0,0.0,0.0,0.0,0.0,0.0,0.0,0.0,0.0,5.4128,5.5533,6.2066,6.6099,6.7272,6.6537,6.6153,6.6163,6.2569,5.8582,0.0,0.0,0.0,0.0,0.0,0.0,0.0,0.0,0.0,0.0,0.0,0.0,0.0,0.0,0.0,0.0,0.0,0.0,0.0,0.0,0.0,0.0,0.0,0.0,0.0,0.0,0.0,0.0,0.0,0.0,0.0,0.0,0.0,0.0,0.0,0.0,0.0,0.0,0.0,0.0,0.0,0.0,5.1892,5.0264,0.0,0.0,0.0,5.1119,5.1538,0.0,0.0,0.0,0.0,0.0,0.0,0.0,0.0,0.0,0.0,0.0,0.0,0.0,0.0,0.0,0.0,0.0,0.0,0.0,0.0,0.0,0.0,0.0,0.0,0.0,0.0,0.0,0.0,0.0,0.0,0.0,0.0,0.0,0.0,0.0,0.0,0.0,0.0,0.0,0.0,0.0,0.0,0.0,0.0,0.0,0.0,0.0,0.0,0.0,0.0,0.0,0.0,0.0,0.0,0.0,0.0,0.0,5.4068,5.8549,6.2198,6.4762,6.4762,6.4673,6.464,6.1888,5.8328,0.0,0.0,0.0,0.0,0.0,0.0,0.0,0.0,0.0,0.0,0.0,0.0,0.0,0.0,0.0,0.0,0.0,0.0,0.0,0.0,0.0,0.0,0.0,0.0,0.0,0.0,0.0,0.0,0.0,0.0,0.0,0.0,0.0,0.0,0.0,0.0,0.0,0.0,0.0,0.0,0.0,4.796,4.9541,4.8406,4.791,0.0,0.0,5.0363,5.2672,5.3189,0.0,0.0,0.0,0.0,0.0,0.0,0.0,0.0,0.0,0.0,0.0,0.0,0.0,0.0,0.0,0.0,0.0,0.0,0.0,0.0,0.0,0.0,0.0,0.0,0.0,0.0,0.0,0.0,0.0,0.0,0.0,0.0,0.0,0.0,0.0,0.0,0.0,0.0,0.0,0.0,0.0,0.0,0.0,0.0,0.0,0.0,0.0,0.0,0.0,0.0,0.0,0.0,0.0,0.0,0.0,0.0,5.4159,5.9521,6.3214,6.4772,6.3839,6.3224,6.3191,6.0441,5.6881,0.0,0.0,0.0,0.0,0.0,0.0,0.0,0.0,0.0,0.0,0.0,0.0,0.0,0.0,0.0,0.0,0.0,0.0,0.0,0.0,0.0,0.0,0.0,0.0,0.0,0.0,0.0,0.0,0.0,0.0,0.0,0.0,0.0,0.0,0.0,0.0,0.0,0.0,0.0,0.0,0.0,4.6827,4.9369,4.7576,0.0,0.0,0.0,0.0,4.7288,4.8183,0.0,0.0,0.0,0.0,0.0,0.0,0.0,0.0,0.0,0.0,0.0,0.0,0.0,0.0,0.0,0.0,0.0,0.0,0.0,0.0,0.0,0.0,0.0,0.0,0.0,0.0,0.0,0.0,0.0,0.0,0.0,0.0,0.0,0.0,0.0,0.0,0.0,0.0,0.0,0.0,0.0,0.0,0.0,0.0,0.0,0.0,0.0,0.0,0.0,0.0,0.0,0.0,0.0,0.0,0.0,0.0,5.3986,5.7036,5.9962,6.2724,6.2161,6.1734,6.172,5.9676,5.6454,0.0,0.0,0.0,0.0,0.0,0.0,0.0,0.0,0.0,0.0,0.0,0.0,0.0,0.0,0.0,0.0,0.0,0.0,0.0,0.0,0.0,0.0,0.0,0.0,0.0,0.0,0.0,0.0,0.0,0.0,0.0,0.0,0.0,0.0,0.0,0.0,0.0,0.0,0.0,0.0,4.5308,4.555,4.7431,0.0,0.0,0.0,0.0,0.0,0.0,4.6992,4.6817,0.0,0.0,0.0,0.0,0.0,0.0,0.0,0.0,0.0,0.0,0.0,0.0,0.0,0.0,0.0,0.0,0.0,0.0,0.0,0.0,0.0,0.0,0.0,0.0,0.0,0.0,0.0,0.0,0.0,0.0,0.0,0.0,0.0,0.0,0.0,0.0,0.0,0.0,0.0,0.0,0.0,0.0,0.0,0.0,0.0,0.0,0.0,0.0,0.0,0.0,0.0,0.0,0.0,0.0,0.0,5.3255,5.3814,5.6057,6.0178,6.0507,6.0629,6.0606,5.9248,5.6445,5.2122,0.0,0.0,0.0,0.0,0.0,0.0,0.0,0.0,0.0,0.0,0.0,0.0,0.0,0.0,0.0,0.0,0.0,0.0,0.0,0.0,0.0,0.0,0.0,0.0,0.0,0.0,0.0,0.0,0.0,0.0,0.0,0.0,0.0,0.0,0.0,0.0,0.0,0.0,0.0,4.4918,4.4639,0.0,0.0,0.0,0.0,0.0,0.0,0.0,0.0,4.6031,0.0,0.0,0.0,0.0,0.0,0.0,0.0,0.0,0.0,0.0,0.0,0.0,0.0,0.0,0.0,0.0,0.0,0.0,0.0,0.0,0.0,0.0,0.0,0.0,0.0,0.0,0.0,0.0,0.0,0.0,0.0,0.0,0.0,0.0,0.0,0.0,0.0,0.0,0.0,0.0,0.0,0.0,0.0,0.0,0.0,0.0,0.0,0.0,0.0,0.0,0.0,0.0,0.0,0.0,0.0,0.0,5.2795,5.5588,5.8746,6.0005,6.0629,6.0629,5.9281,5.6454,5.2097,0.0,0.0,0.0,0.0,0.0,0.0,0.0,0.0,0.0,0.0,0.0,0.0,0.0,0.0,0.0,0.0,0.0,0.0,0.0,0.0,0.0,0.0,0.0,0.0,0.0,0.0,0.0,0.0,0.0,0.0,0.0,0.0,0.0,0.0,0.0,0.0,0.0,0.0,4.2753,4.4005,0.0,0.0,0.0,0.0,0.0,0.0,0.0,0.0,4.4774,0.0,0.0,0.0,0.0,0.0,0.0,0.0,0.0,0.0,0.0,0.0,0.0,0.0,0.0,0.0,0.0,0.0,0.0,0.0,0.0,0.0,0.0,0.0,0.0,0.0,0.0,0.0,0.0,0.0,0.0,0.0,0.0,0.0,0.0,0.0,0.0,0.0,0.0,0.0,0.0,0.0,0.0,0.0,0.0,0.0,0.0,0.0,0.0,0.0,0.0,0.0,0.0,0.0,0.0,0.0,0.0,0.0,0.0,5.5515,5.8432,5.9948,6.0629,6.054,5.7718,5.4784,0.0,0.0,0.0,0.0,0.0,0.0,0.0,0.0,0.0,0.0,0.0,0.0,0.0,0.0,0.0,0.0,0.0,0.0,0.0,0.0,0.0,0.0,0.0,0.0,0.0,0.0,0.0,0.0,0.0,0.0,0.0,0.0,0.0,0.0,0.0,0.0,0.0,0.0,0.0,0.0,0.0,0.0,0.0,0.0,0.0,0.0,0.0,0.0,0.0,0.0,0.0,0.0,0.0,0.0,0.0,0.0,0.0,0.0,0.0,0.0,0.0,0.0,0.0,0.0,0.0,0.0,0.0,0.0,0.0,0.0,0.0,0.0,0.0,0.0,0.0,0.0,0.0,0.0,0.0,0.0,0.0,0.0,0.0,0.0,0.0,0.0,0.0,0.0,0.0,0.0,0.0,0.0,0.0,0.0,0.0,0.0,0.0,0.0,0.0,0.0,0.0,0.0,0.0,0.0,0.0,0.0,0.0,0.0,5.5064,5.8008,5.9751,6.0629,6.0629,5.6074,5.2919,0.0,0.0,0.0,0.0,0.0,0.0,0.0,0.0,0.0,0.0,0.0,0.0,0.0,0.0,0.0,0.0,0.0,0.0,0.0,0.0,0.0,0.0,0.0,0.0,0.0,0.0,0.0,0.0,0.0,0.0,0.0,0.0,0.0,0.0,0.0,0.0,0.0,0.0,0.0,0.0,0.0,0.0,0.0,0.0,0.0,0.0,0.0,0.0,4.4854,0.0,0.0,0.0,0.0,0.0,0.0,0.0,0.0,0.0,0.0,0.0,0.0,0.0,0.0,0.0,0.0,0.0,0.0,0.0,0.0,0.0,0.0,0.0,0.0,0.0,0.0,0.0,0.0,0.0,0.0,0.0,0.0,0.0,0.0,0.0,0.0,0.0,0.0,0.0,0.0,0.0,0.0,0.0,0.0,0.0,0.0,0.0,0.0,0.0,0.0,0.0,0.0,0.0,0.0,0.0,0.0,0.0,0.0,0.0,5.356,5.6522,5.9258,6.0629,6.0465,5.5123,5.1464,0.0,0.0,0.0,0.0,0.0,0.0,0.0,0.0,0.0,0.0,0.0,0.0,0.0,0.0,0.0,0.0,0.0,0.0,0.0,0.0,0.0,0.0,0.0,0.0,0.0,0.0,0.0,0.0,0.0,0.0,0.0,0.0,0.0,0.0,0.0,0.0,0.0,0.0,0.0,0.0,0.0,0.0,0.0,0.0,0.0,0.0,0.0,0.0,0.0,0.0,0.0,0.0,0.0,0.0,0.0,0.0,0.0,0.0,0.0,0.0,0.0,0.0,0.0,0.0,0.0,0.0,0.0,0.0,0.0,0.0,0.0,0.0,0.0,0.0,0.0,0.0,0.0,0.0,0.0,0.0,0.0,0.0,0.0,0.0,0.0,0.0,0.0,0.0,0.0,0.0,0.0,0.0,0.0,0.0,0.0,0.0,0.0,0.0,0.0,0.0,0.0,0.0,0.0,0.0,0.0,0.0,0.0,0.0,5.2072,5.4965,5.7087,5.7326,5.5607,5.1571,4.8742,0.0,0.0,0.0,0.0,0.0,0.0,0.0,0.0,0.0,0.0,0.0,0.0,0.0,0.0,0.0,0.0,0.0,0.0,0.0,0.0,0.0,0.0,0.0,0.0,0.0,0.0,0.0,0.0,0.0,0.0,0.0,0.0,0.0,0.0,0.0,0.0,0.0,0.0,0.0,0.0,0.0,0.0,0.0,0.0,0.0,0.0,0.0,0.0,0.0,0.0,0.0,0.0,0.0,0.0,0.0,0.0,0.0,0.0,0.0,0.0,0.0,0.0,0.0,0.0,0.0,0.0,0.0,0.0,0.0,0.0,0.0,0.0,0.0,0.0,0.0,0.0,0.0,0.0,0.0,0.0,0.0,0.0,0.0,0.0,0.0,0.0,0.0,0.0,0.0,0.0,0.0,0.0,0.0,0.0,0.0,0.0,0.0,0.0,0.0,0.0,0.0,0.0,0.0,0.0,0.0,0.0,0.0,0.0,0.0,5.2836,5.3676,5.3191,5.1365,4.8191,4.6012,0.0,0.0,0.0,0.0,0.0,0.0,0.0,0.0,0.0,0.0,0.0,0.0,0.0,0.0,0.0,0.0,0.0,0.0,0.0,0.0,0.0,0.0,0.0,0.0,0.0,0.0,0.0,0.0,0.0,0.0,0.0,0.0,0.0,0.0,0.0,0.0,0.0,0.0,0.0,0.0,0.0,0.0,0.0,0.0,0.0,0.0,0.0,0.0,0.0,0.0,0.0,0.0,0.0,0.0,0.0,0.0,0.0,0.0,0.0,0.0,0.0,0.0,0.0,0.0,0.0,0.0,0.0,0.0,0.0,0.0,0.0,0.0,0.0,0.0,0.0,0.0,0.0,0.0,0.0,0.0,0.0,0.0,0.0,0.0,0.0,0.0,0.0,0.0,0.0,0.0,0.0,0.0,0.0,0.0,0.0,0.0,0.0,0.0,0.0,0.0,0.0,0.0,0.0,0.0,0.0,0.0,0.0,0.0,0.0,4.9994,4.8768,4.8677,4.9738,4.5794,4.3537,0.0,0.0,0.0,0.0,0.0,0.0,0.0,0.0,0.0,0.0,0.0,0.0,0.0,0.0,0.0,0.0,0.0,0.0,0.0,0.0,0.0,0.0,0.0,0.0,0.0,0.0,0.0,0.0,0.0,0.0,0.0,0.0,0.0,0.0,0.0,0.0,0.0,0.0,0.0,0.0,0.0,0.0,0.0,0.0,0.0,0.0,0.0,0.0,0.0,0.0,0.0,0.0,0.0,0.0,0.0,0.0,0.0,0.0,0.0,0.0,0.0,0.0,0.0,0.0,0.0,0.0,0.0,0.0,0.0,0.0,0.0,0.0,0.0,0.0,0.0,0.0,0.0,0.0,0.0,0.0,0.0,0.0,0.0,0.0,0.0,0.0,0.0,0.0,0.0,0.0,0.0,0.0,0.0,0.0,0.0,0.0,0.0,0.0,0.0,0.0,0.0,0.0,0.0,0.0,0.0,0.0,0.0,0.0,0.0,4.5753,4.5228,4.5202,4.5713,4.3295,4.1546,4.0574,0.0,0.0,0.0,0.0,0.0,0.0,0.0,0.0,0.0,0.0,0.0,0.0,0.0,0.0,0.0,0.0,0.0,0.0,0.0,0.0,0.0,0.0,0.0,0.0,0.0,0.0,0.0,0.0,0.0,0.0,0.0,0.0,0.0,0.0,0.0,0.0,0.0,0.0,0.0,0.0,0.0,0.0,0.0,0.0,0.0,0.0,0.0,0.0,0.0,0.0,0.0,0.0,0.0,0.0,0.0,0.0,0.0,0.0,0.0,0.0,0.0,0.0,0.0,0.0,0.0,0.0,0.0,0.0,0.0,0.0,0.0,0.0,0.0,0.0,0.0,0.0,0.0,0.0,0.0,0.0,0.0,0.0,0.0,0.0,0.0,0.0,0.0,0.0,0.0,0.0,0.0,0.0,0.0,0.0,0.0,0.0,0.0,0.0,0.0,0.0,0.0,0.0,0.0,0.0,0.0,0.0,0.0,0.0,4.3413,4.3373,4.3373,4.3314,4.1928,4.0487,0.0,0.0,0.0,0.0,0.0,0.0,0.0,0.0,0.0,0.0,0.0,0.0,0.0,0.0,0.0,0.0,0.0,0.0,0.0,0.0,0.0,0.0,0.0,0.0,0.0,0.0,0.0,0.0,0.0,0.0,0.0,0.0,0.0,0.0,0.0,0.0,0.0,0.0,0.0,0.0,0.0,0.0,0.0,0.0,0.0,0.0,0.0,0.0,0.0,0.0,0.0,0.0,0.0,0.0,0.0,0.0,0.0,0.0,0.0,0.0,0.0,0.0,0.0,0.0,0.0,0.0,0.0,0.0,0.0,0.0,0.0,0.0,0.0,0.0,0.0,0.0,0.0,0.0,0.0,0.0,0.0,0.0,0.0,0.0,0.0,0.0,0.0,0.0,0.0,0.0,0.0,0.0,0.0,0.0,0.0,0.0,0.0,0.0,0.0,0.0,0.0,0.0,0.0,0.0,0.0,0.0,0.0,0.0,4.3373,4.3373,4.3373,4.3373,4.3321,4.1967,4.0487,0.0,0.0,0.0,0.0,0.0,0.0,0.0,0.0,0.0,0.0,0.0,0.0,0.0,0.0,0.0,0.0,0.0,0.0,0.0,0.0,0.0,0.0,0.0,0.0,0.0,0.0,0.0,0.0,0.0,0.0,0.0,0.0,0.0,0.0,0.0,0.0,0.0,0.0,0.0,0.0,0.0,0.0,0.0,0.0,0.0,0.0,0.0,0.0,0.0,0.0,0.0,0.0,0.0,0.0,0.0,0.0,0.0,0.0,0.0,0.0,0.0,0.0,0.0,0.0,0.0,0.0,0.0,0.0,0.0,0.0,0.0,0.0,0.0,0.0,0.0,0.0,0.0,0.0,0.0,0.0,0.0,0.0,0.0,0.0,0.0,0.0,0.0,0.0,0.0,0.0,0.0,0.0,0.0,0.0,0.0,0.0,0.0,0.0,0.0,0.0,0.0,0.0,0.0,0.0,0.0,0.0,0.0,0.0,0.0,4.3373,0.0,4.3373,0.0,4.198,4.0487,0.0,0.0,0.0,0.0,0.0,0.0,0.0,0.0,0.0,0.0,0.0,0.0,0.0,0.0,0.0,0.0,0.0,0.0,0.0,0.0,0.0,0.0,0.0,0.0,0.0,0.0,0.0,0.0,0.0,0.0,0.0,0.0,0.0,0.0,0.0,0.0,0.0,0.0,0.0,0.0,0.0,0.0,0.0,0.0,0.0,0.0,0.0,0.0,0.0,0.0,0.0,0.0,0.0,0.0,0.0,0.0,0.0,0.0,0.0,0.0,0.0,0.0,0.0,0.0,0.0,0.0,0.0,0.0,0.0,0.0,0.0,0.0,0.0,0.0,0.0,0.0,0.0,0.0,0.0,0.0,0.0,0.0,0.0,0.0,0.0,0.0,0.0,0.0,0.0,0.0,0.0,0.0,0.0,0.0,0.0,0.0,0.0,0.0,0.0,0.0,0.0,0.0,0.0,0.0,0.0,0.0,0.0,0.0,0.0,4.3373,4.3373,4.3373,4.3314,4.248,4.0994,0.0,0.0,0.0,0.0,0.0,0.0,0.0,0.0,0.0,0.0,0.0,0.0,0.0,0.0,0.0,0.0,0.0,0.0,0.0,0.0,0.0,0.0,0.0,0.0,0.0,0.0,0.0,0.0,0.0,0.0,0.0,0.0,0.0,0.0,0.0,0.0,0.0,0.0,0.0,0.0,0.0,0.0,0.0,0.0,0.0,0.0,0.0,0.0,0.0,0.0,0.0,0.0,0.0,0.0,0.0,0.0,0.0,0.0,0.0,0.0,0.0,0.0,0.0,0.0,0.0,0.0,0.0,0.0,0.0,0.0,0.0,0.0,0.0,0.0,0.0,0.0,0.0,0.0,0.0,0.0,0.0,0.0,0.0,0.0,0.0,0.0,0.0,0.0,0.0,0.0,0.0,0.0,0.0,0.0,0.0,0.0,0.0,0.0,0.0,0.0,0.0,0.0,0.0,0.0,0.0,0.0,0.0,0.0,0.0,0.0,4.3373,4.3373,4.3373,4.338,4.196,0.0,0.0,0.0,0.0,0.0,0.0,0.0,0.0,0.0,0.0,0.0,0.0,0.0,0.0,0.0,0.0,0.0,0.0,0.0,0.0,0.0,0.0,0.0,0.0,0.0,0.0,0.0,0.0,0.0,0.0,0.0,0.0,0.0,0.0,0.0,0.0,0.0,0.0,0.0,0.0,0.0,0.0,0.0,0.0,0.0,0.0,0.0,0.0,0.0,0.0,0.0,0.0,0.0,0.0,0.0,0.0,0.0,0.0,0.0,0.0,0.0,0.0,0.0,0.0,0.0,0.0,0.0,0.0,0.0,0.0,0.0,0.0,0.0,0.0,0.0,0.0,0.0,0.0,0.0,0.0,0.0,0.0,0.0,0.0,0.0,0.0,0.0,0.0,0.0,0.0,0.0,0.0,0.0,0.0,0.0,0.0,0.0,0.0,0.0,0.0,0.0,0.0,0.0,0.0,0.0,0.0,0.0,0.0,0.0,0.0,4.3373,0.0,4.3373,4.3373,4.2499,4.0606,0.0,0.0,0.0,0.0,0.0,0.0,0.0,0.0,0.0,0.0,0.0,0.0,0.0,0.0,0.0,0.0,0.0,0.0,0.0,0.0,0.0,0.0,0.0,0.0,0.0,0.0,0.0,0.0,0.0,0.0,0.0,0.0,0.0,0.0,0.0,0.0,0.0,0.0,0.0,0.0,0.0,0.0,0.0,0.0,0.0,0.0,0.0,0.0,0.0,0.0,0.0,0.0,0.0,0.0,0.0,0.0,0.0,0.0,0.0,0.0,0.0,0.0,0.0,0.0,0.0,0.0,0.0,0.0,0.0,0.0,0.0,0.0,0.0,0.0,0.0,0.0,0.0,0.0,0.0,0.0,0.0,0.0,0.0,0.0,0.0,0.0,0.0,0.0,0.0,0.0,0.0,0.0,0.0,0.0,0.0,0.0,0.0,0.0,0.0,0.0,0.0,0.0,0.0,0.0,0.0,0.0,0.0,0.0,0.0,0.0,0.0,4.3373,4.3373,4.2677,0.0,0.0,0.0,0.0,0.0,0.0,0.0,0.0,0.0,0.0,0.0,0.0,0.0,0.0,0.0,0.0,0.0,0.0,0.0,0.0,0.0,0.0,0.0,0.0,0.0,0.0,0.0,0.0,0.0,0.0,0.0,0.0,0.0,0.0,0.0,0.0,0.0,0.0,0.0,0.0,0.0,0.0,0.0,0.0,0.0,0.0,0.0,0.0,0.0,0.0,0.0,0.0,0.0,0.0,0.0,0.0,0.0,0.0,0.0,0.0,0.0,0.0,0.0,0.0,0.0,0.0,0.0,0.0,0.0,0.0,0.0,0.0,0.0,0.0,0.0,0.0,0.0,0.0,0.0,0.0,0.0,0.0,0.0,0.0,0.0,0.0,0.0,0.0,0.0,0.0,0.0,0.0,0.0,0.0,0.0,0.0,0.0,0.0,0.0,0.0,0.0,0.0,0.0,0.0,0.0,0.0,0.0,0.0,0.0,0.0,0.0,4.3373,4.3373,4.3373,0.0,4.1513,0.0,0.0,0.0,0.0,0.0,0.0,0.0,0.0,0.0,0.0,0.0,0.0,0.0,0.0,0.0,0.0,0.0,0.0,0.0,0.0,0.0,0.0,0.0,0.0,0.0,0.0,0.0,0.0,0.0,0.0,0.0,0.0,0.0,0.0,0.0,0.0,0.0,0.0,0.0,0.0,0.0,0.0,0.0,0.0,0.0,0.0,0.0,0.0,0.0,0.0,0.0,0.0,0.0,0.0,0.0,0.0,0.0,0.0,0.0,0.0,0.0,0.0,0.0,0.0,0.0,0.0,0.0,0.0,0.0,0.0,0.0,0.0,0.0,0.0,0.0,0.0,0.0,0.0,0.0,0.0,0.0,0.0,0.0,0.0,0.0,0.0,0.0,0.0,0.0,0.0,0.0,0.0,0.0,0.0,0.0,0.0,0.0,0.0,0.0,0.0,0.0,0.0,0.0,0.0,0.0,0.0,0.0,0.0,0.0,0.0,0.0,0.0,4.3373,4.3183,4.2901,0.0,0.0,0.0,0.0,0.0,0.0,0.0,0.0,0.0,0.0,0.0,0.0,0.0,0.0,0.0,0.0,0.0,0.0,0.0,0.0,0.0,0.0,0.0,0.0,0.0,0.0,0.0,0.0,0.0,0.0,0.0,0.0,0.0,0.0,0.0,0.0,0.0,0.0,0.0,0.0,0.0,0.0,0.0,0.0,0.0,0.0,0.0,0.0,0.0,0.0,0.0,0.0,0.0,0.0,0.0,0.0,0.0,0.0,0.0,0.0,0.0,0.0,0.0,0.0,0.0,0.0,0.0,0.0,0.0,0.0,0.0,0.0,0.0,0.0,0.0,0.0,0.0,0.0,0.0,0.0,0.0,0.0,0.0,0.0,0.0,0.0,0.0,0.0,0.0,0.0,0.0,0.0,0.0,0.0,0.0,0.0,0.0,0.0,0.0,0.0,0.0,0.0,0.0,0.0,0.0,0.0,0.0,0.0,0.0,0.0,4.3373,4.3373,4.3373,4.3373,4.3373,0.0,0.0,0.0,0.0,0.0,0.0,0.0,0.0,0.0,0.0,0.0,0.0,0.0,0.0,0.0,0.0,0.0,0.0,0.0,0.0,0.0,0.0,0.0,0.0,0.0,0.0,0.0,0.0,0.0,0.0,0.0,0.0,0.0,0.0,0.0,0.0,0.0,0.0,0.0,0.0,0.0,0.0,0.0,0.0,0.0,0.0,0.0,0.0,0.0,0.0,0.0,0.0,0.0,0.0,0.0,0.0,0.0,0.0,0.0,0.0,0.0,0.0,0.0,0.0,0.0,0.0,0.0,0.0,0.0,0.0,0.0,0.0,0.0,0.0,0.0,0.0,0.0,0.0,0.0,0.0,0.0,0.0,0.0,0.0,0.0,0.0,0.0,0.0,0.0,0.0,0.0,0.0,0.0,0.0,0.0,0.0,0.0,0.0,0.0,0.0,0.0,0.0,0.0,0.0,0.0,0.0,0.0,0.0,0.0,0.0,0.0,0.0,0.0,0.0,4.3347,0.0,0.0,0.0,0.0,0.0,0.0,0.0,0.0,0.0,0.0,0.0,0.0,0.0,0.0,0.0,0.0,0.0,0.0,0.0,0.0,0.0,0.0,0.0,0.0,0.0,0.0,0.0,0.0,0.0,0.0,0.0,0.0,0.0,0.0,0.0,0.0,0.0,0.0,0.0,0.0,0.0,0.0,0.0,0.0,0.0,0.0,0.0,0.0,0.0,0.0,0.0,0.0,0.0,0.0,0.0,0.0,0.0,0.0,0.0,0.0,0.0,0.0,0.0,0.0,0.0,0.0,0.0,0.0,0.0,0.0,0.0,0.0,0.0,0.0,0.0,0.0,0.0,0.0,0.0,0.0,0.0,0.0,0.0,0.0,0.0,0.0,0.0,0.0,0.0,0.0,0.0,0.0,0.0,0.0,0.0,0.0,0.0,0.0,0.0,0.0,0.0,0.0,0.0,0.0,0.0,0.0,0.0,0.0,0.0,0.0,0.0,0.0,0.0,0.0,0.0,0.0,0.0,0.0,0.0,0.0,0.0,0.0,0.0,0.0,0.0,0.0,0.0,0.0,0.0,0.0,0.0,0.0,0.0,0.0,0.0,0.0,0.0,0.0,0.0,0.0,0.0,0.0,0.0,0.0,0.0,0.0,0.0,0.0,0.0,0.0,0.0,0.0,0.0,0.0,0.0,0.0,0.0,0.0,0.0,0.0,0.0,0.0,0.0,0.0,0.0,0.0,0.0,0.0,0.0,0.0,0.0,0.0,0.0,0.0,0.0,0.0,0.0,0.0,0.0,0.0,0.0,0.0,0.0,0.0,0.0,0.0,0.0,0.0,0.0,0.0,0.0,0.0,0.0,0.0,0.0,0.0,0.0,0.0,0.0,0.0,0.0,0.0,0.0,0.0,0.0,0.0,0.0,0.0,0.0,0.0,0.0,0.0,0.0,0.0,0.0,0.0,0.0,0.0,0.0,0.0,0.0,0.0,0.0,0.0,0.0,0.0,0.0,0.0,0.0,0.0,0.0,0.0,0.0,0.0,0.0,0.0,0.0,0.0,0.0,0.0,0.0,0.0,0.0,0.0,0.0,0.0,0.0,0.0,0.0,0.0,0.0,0.0,0.0,0.0,0.0,0.0,0.0,0.0,0.0,0.0,0.0,0.0,0.0,0.0,0.0,0.0,0.0,0.0,0.0,0.0,0.0,0.0,0.0,0.0,0.0,0.0,0.0,0.0,0.0,0.0,0.0,0.0,0.0,0.0,0.0,0.0,0.0,0.0,0.0,0.0,0.0,0.0,0.0,0.0,0.0,0.0,0.0,0.0,0.0,0.0,0.0,0.0,0.0,0.0,0.0,0.0,0.0,0.0,0.0,0.0,0.0,0.0,0.0,0.0,0.0,0.0,0.0,0.0,0.0,0.0,0.0,0.0,0.0,0.0,0.0,0.0,0.0,0.0,0.0,0.0,0.0,0.0,0.0,0.0,0.0,0.0,0.0,0.0,0.0,0.0,0.0,0.0,0.0,0.0,0.0,0.0,0.0,0.0,0.0,0.0,0.0,0.0,0.0,0.0,0.0,0.0,0.0,0.0,0.0,0.0,0.0,0.0,0.0,0.0,0.0,0.0,0.0,0.0,0.0,0.0,0.0,0.0,0.0,0.0,0.0,0.0,0.0,0.0,0.0,0.0,0.0,0.0,0.0,0.0,0.0,0.0,0.0,0.0,0.0,0.0,0.0,0.0,0.0,0.0,0.0,0.0,0.0,0.0,0.0,0.0,0.0,0.0,0.0,0.0,0.0,0.0,0.0,0.0,0.0,0.0,0.0,0.0,0.0,0.0,0.0,0.0,0.0,0.0,0.0,0.0,0.0,0.0,0.0,0.0,0.0,0.0,0.0,0.0,0.0,0.0,0.0,0.0,0.0,0.0,0.0,0.0,0.0,0.0,0.0,0.0,0.0,0.0,0.0,0.0,0.0,0.0,0.0,0.0,0.0,0.0,0.0,0.0,0.0,0.0,0.0,0.0,0.0,0.0,0.0,0.0,0.0,0.0,0.0,0.0,0.0,0.0,0.0,0.0,0.0,0.0,0.0,0.0,0.0,0.0,0.0,0.0,0.0,0.0,0.0,0.0,0.0,0.0,0.0,0.0,0.0,0.0,0.0,0.0,0.0,0.0,0.0,0.0,0.0,0.0,0.0,0.0,0.0,0.0,0.0,0.0,0.0,0.0,0.0,0.0,0.0,0.0,0.0,0.0,0.0,0.0,0.0,0.0,0.0,0.0,0.0,0.0,0.0,0.0,0.0,0.0,0.0,0.0,0.0,0.0,0.0,0.0,0.0,0.0,0.0,0.0,0.0,0.0,0.0,0.0,0.0,0.0,0.0,0.0,0.0,0.0,0.0,0.0,0.0,0.0,0.0,0.0,0.0,0.0,0.0,0.0,0.0,0.0,0.0,0.0,0.0,0.0,0.0,0.0,0.0,0.0,0.0,0.0,0.0,0.0,0.0,0.0,0.0,0.0,0.0,0.0,0.0,0.0,0.0,0.0,0.0,0.0,0.0,0.0,0.0,0.0,0.0,0.0,0.0,0.0,0.0,0.0,0.0,0.0,0.0,0.0,0.0,0.0,0.0,0.0,0.0,0.0,0.0,0.0,0.0,0.0,0.0,0.0,0.0,0.0,0.0,0.0,0.0,0.0,0.0,0.0,0.0,0.0,0.0,0.0,0.0,0.0,0.0,0.0,0.0,0.0,0.0,0.0,0.0,0.0,0.0,0.0,0.0,0.0,0.0,0.0,0.0,0.0,0.0,0.0,0.0,0.0,0.0,0.0,0.0,0.0,0.0,0.0,0.0,0.0,0.0,0.0,0.0,0.0,0.0,0.0,0.0,0.0,0.0,0.0,0.0,0.0,0.0,0.0,0.0,0.0,0.0,0.0,0.0,0.0,0.0,0.0,0.0,0.0,0.0,0.0,0.0,0.0,0.0,0.0,0.0,0.0,0.0,0.0,0.0,0.0,0.0,0.0,0.0,0.0,0.0,0.0,0.0,0.0,0.0,0.0,0.0,0.0,0.0,0.0,0.0,0.0,0.0,0.0,0.0,0.0,0.0,0.0,0.0,0.0,0.0,0.0,0.0,0.0,0.0,0.0,0.0,0.0,0.0,0.0,0.0,0.0,0.0,0.0,0.0,0.0,0.0,0.0,0.0,0.0,0.0,0.0,0.0,0.0,0.0,0.0,0.0,0.0,0.0,0.0,0.0,0.0,0.0,0.0,0.0,0.0,0.0,0.0,0.0,0.0,0.0,0.0,0.0,0.0,0.0,0.0,0.0,0.0,0.0,0.0,0.0,0.0,0.0,0.0,0.0,0.0,0.0,0.0,0.0,0.0,0.0,0.0,0.0,0.0,0.0,0.0,0.0,0.0,0.0,0.0,0.0,0.0,0.0,0.0,0.0,0.0,0.0,0.0,0.0,0.0,0.0,0.0,0.0,0.0,0.0,0.0,0.0,0.0,0.0,0.0,0.0,0.0,0.0,0.0,0.0,0.0,0.0,0.0,0.0,0.0,0.0,0.0,0.0,0.0,0.0,0.0,0.0,0.0,0.0,0.0,0.0,0.0,0.0,0.0,0.0,0.0,0.0,0.0,0.0,0.0,0.0,0.0,0.0,0.0,0.0,0.0,0.0,0.0,0.0,0.0,0.0,0.0,0.0,0.0,0.0,0.0,0.0,0.0,0.0,0.0,0.0,0.0,0.0,0.0,0.0,0.0,0.0,0.0,0.0,0.0,0.0,0.0,0.0,0.0,0.0,0.0,0.0,0.0,0.0,0.0,0.0,0.0,0.0,0.0,0.0,0.0,0.0,0.0,0.0,0.0,0.0,0.0,0.0,0.0,0.0,0.0,0.0,0.0,0.0,0.0,0.0,0.0,0.0,0.0,0.0,0.0,0.0,0.0,0.0,0.0,0.0,0.0,0.0,0.0,0.0,0.0,0.0,0.0,0.0,0.0,0.0,0.0,0.0,0.0,0.0,0.0,0.0,0.0,0.0,0.0,0.0,0.0,0.0,0.0,0.0,0.0,0.0,0.0,0.0,0.0,0.0,0.0,0.0,0.0,0.0,0.0,0.0,0.0,0.0,0.0,0.0,0.0,0.0,0.0,0.0,0.0,0.0,0.0,0.0,0.0,0.0,0.0,0.0,0.0,0.0,0.0,0.0,0.0,0.0,0.0,0.0,0.0,0.0,0.0,0.0,0.0,0.0,0.0,0.0,0.0,0.0,0.0,0.0,0.0,0.0,0.0,0.0,0.0,0.0,0.0,0.0,0.0,0.0,0.0,0.0,0.0,0.0,0.0,0.0,0.0,0.0,0.0,0.0,0.0]}],[{"header":{"parameterUnit":"kt","parameterCategory":2,"dx":1,"dy":1,"la1":29.587661999999998,"la2":31.0,"lo1":-88.76705300000003,"lo2":-86.6583820000003,"nx":115,"ny":88,"refTime":"2022-10-25T00:00:00:Z","depth":0,"parameterNumber":2,"parameterNumberName":"V-component_of_WINDS"},"data":[7.461,7.1597,7.1551,7.0961,6.9872,6.9465,6.9087,6.8988,6.8857,6.7145,6.5767,6.5331,6.5483,6.5346,6.5135,6.4509,6.4572,6.4367,6.4367,6.4367,6.4367,6.4367,6.4367,6.4367,6.4367,6.4367,6.4367,6.4367,6.4367,6.4367,6.4367,6.4367,6.4367,6.4367,6.4367,6.4367,6.4367,6.4367,6.4367,6.4367,6.4367,6.4367,6.4367,6.4367,6.4367,6.4367,6.4367,6.4367,6.4367,6.4367,6.4367,6.4367,6.4367,6.4367,6.4367,6.4367,6.4367,6.4367,6.4367,6.4367,6.4367,6.4367,6.4367,6.4367,6.4367,6.4367,6.4367,6.4367,6.4367,6.4367,6.4367,6.4367,6.4367,6.4367,6.4367,6.4367,6.4367,6.4367,6.4367,6.4367,6.4367,6.4367,6.4367,6.4367,6.4367,6.4367,6.4367,6.4367,6.4367,6.4367,6.4367,6.4367,6.4367,6.4367,6.4367,6.4367,6.4367,6.4367,6.4367,6.4367,6.4367,6.4367,6.4367,6.4367,6.4367,6.4367,6.4367,6.4367,6.4367,6.4367,6.4367,6.4367,6.4367,6.4367,6.4367,7.6207,7.586,7.57,7.6178,7.6863,7.583,7.486,7.4153,7.3115,7.0635,6.8024,7.0177,6.9952,6.8757,6.758,6.5933,6.4933,6.4824,6.4416,6.437,6.4367,6.4367,6.4367,6.4367,6.4367,6.4367,6.4367,6.4367,6.4367,6.4367,6.4367,6.4367,6.4367,6.4367,6.4367,6.4367,6.4367,6.4367,6.4367,6.4367,6.4367,6.4367,6.4367,6.4367,6.4367,6.4367,6.4367,6.4367,6.4367,6.4367,6.4367,6.4367,6.4367,6.4367,6.4367,6.4367,6.4367,6.4367,6.4367,6.4367,6.4367,6.4367,6.4367,6.4367,6.4367,6.4367,6.4367,6.4367,6.4367,6.4367,6.4367,6.4367,6.4367,6.4367,6.4367,6.4367,6.4367,6.4367,6.4367,6.4367,6.4367,6.4367,6.4367,6.4367,6.4367,6.4367,6.4367,6.4367,6.4367,6.4367,6.4367,6.4367,6.4367,6.4367,6.4367,6.4367,6.4367,6.4367,6.4367,6.4367,6.4367,6.4367,6.4367,6.4367,6.4367,6.4367,6.4367,6.4367,6.4367,6.4367,6.4367,6.4367,6.4367,6.4367,6.4367,7.6582,7.6546,7.6149,7.6266,7.6797,7.6997,7.6835,7.6457,7.5904,7.4597,7.3441,7.4174,7.3929,7.2032,7.0137,6.8514,6.7206,6.5854,6.5086,6.4517,6.4367,6.4416,6.4367,6.4367,6.4367,6.4367,6.4367,6.4367,6.4367,6.4367,6.4367,6.4367,6.4367,6.4367,6.4367,6.4367,6.4367,6.4367,6.4367,6.4367,6.4367,6.4367,6.4367,6.4367,6.4367,6.4367,6.4367,6.4367,6.4367,6.4367,6.4367,6.4367,6.4367,6.4367,6.4367,6.4367,6.4367,6.4367,6.4367,6.4367,6.4367,6.4367,6.4367,6.4367,6.4367,6.4367,6.4367,6.4367,6.4367,6.4367,6.4367,6.4367,6.4367,6.4367,6.4367,6.4367,6.4367,6.4367,6.4367,6.4367,6.4367,6.4367,6.4367,6.4367,6.4367,6.4367,6.4367,6.4367,6.4367,6.4367,6.4367,6.4367,6.4367,6.4367,6.4367,6.4367,6.4367,6.4367,6.4367,6.4367,6.4367,6.4367,6.4367,6.4367,6.4367,6.4367,6.4367,6.4367,6.4367,6.4367,6.4367,6.4367,6.4367,6.4367,6.4367,7.6762,7.6981,7.6427,7.6572,7.7175,7.7817,7.828,7.861,7.8826,7.8996,7.8911,7.8512,7.7406,7.5181,7.283,7.0728,6.9166,6.727,6.5957,6.5497,6.4911,6.496,6.4789,6.4566,6.4367,6.4367,6.4367,6.4367,6.4367,6.4367,6.4367,6.4367,6.4367,6.4367,6.4367,6.4367,6.4367,6.4367,6.4367,6.4367,6.4367,6.4367,6.4367,6.4367,6.4367,6.4367,6.4367,6.4367,6.4367,6.4367,6.4367,6.4367,6.4367,6.4367,6.4367,6.4367,6.4367,6.4367,6.4367,6.4367,6.4367,6.4367,6.4367,6.4367,6.4367,6.4367,6.4367,6.4367,6.4367,6.4367,6.4367,6.4367,6.4367,6.4367,6.4367,6.4367,6.4367,6.4367,6.4367,6.4367,6.4367,6.4367,6.4367,6.4367,6.4367,6.4367,6.4367,6.4367,6.4367,6.4367,6.4367,6.4367,6.4367,6.4367,6.4367,6.4367,6.4367,6.4367,6.4367,6.4367,6.4367,6.4367,6.4367,6.4367,6.4367,6.4367,6.4367,6.4367,6.4367,6.4367,6.4367,6.4367,6.4367,6.4367,6.4367,7.7315,7.8344,7.8334,7.9486,8.1508,8.0623,8.0874,8.2078,8.2787,8.354,8.3115,8.2389,8.0705,7.8475,7.5253,7.283,7.102,6.8538,6.7113,6.7186,6.6162,6.5771,6.55,6.4935,6.4984,6.459,6.4562,6.5005,6.4611,6.4517,6.4566,6.4367,6.4367,6.4367,6.4367,6.4367,6.4367,6.4367,6.4367,6.4367,6.4367,6.4367,6.4367,6.4367,6.4367,6.4367,6.4367,6.4367,6.4367,6.4367,6.4367,6.4367,6.4367,6.4367,6.4367,6.4367,6.4367,6.4367,6.4367,6.4367,6.4367,6.4367,6.4367,6.4367,6.4367,6.4367,6.4367,6.4367,6.4367,6.4367,6.4367,6.4367,6.4367,6.4367,6.4367,6.4367,6.4367,6.4367,6.4367,6.4367,6.4367,6.4367,6.4367,6.4367,6.4367,6.4367,6.4367,6.4367,6.4367,6.4367,6.4367,6.4367,6.4367,6.4367,6.4367,6.4367,6.4367,6.4367,6.4367,6.4367,6.4367,6.4367,6.4367,6.4367,6.4367,6.4367,6.4367,6.4367,6.4367,6.4367,6.4367,6.4367,6.4367,6.4367,6.4367,7.9259,7.9707,7.9707,8.0743,8.2294,8.2597,8.2956,8.3479,8.3954,8.4177,8.4138,8.3605,8.3019,8.1323,7.7806,7.5077,7.3327,7.02,6.8116,6.7774,6.6994,6.6872,6.6796,6.6454,6.6086,6.6232,6.6256,6.5936,6.6134,6.5744,6.4789,6.4444,6.4367,6.4367,6.4367,6.4367,6.4367,6.4367,6.4367,6.4367,6.4367,6.4367,6.4367,6.4367,6.4367,6.4367,6.4367,6.4367,6.4367,6.4367,6.4367,6.4367,6.4367,6.4367,6.4367,6.4367,6.4367,6.4367,6.4367,6.4367,6.4367,6.4367,6.4367,6.4367,6.4367,6.4367,6.4367,6.4367,6.4367,6.4367,6.4367,6.4367,6.4367,6.4367,6.4367,6.4367,6.4367,6.4367,6.4367,6.4367,6.4367,6.4367,6.4367,6.4367,6.4367,6.4367,6.4367,6.4367,6.4367,6.4367,6.4367,6.4367,6.4367,6.4367,6.4367,6.4367,6.4367,6.4367,6.4367,6.4367,6.4367,6.4367,6.4367,6.4367,6.4367,6.4367,6.4367,6.4367,6.4367,6.4367,6.4367,6.4367,6.4367,6.4367,6.4367,8.0703,8.1024,8.1024,8.178,8.2955,8.3828,8.4177,8.4177,8.4177,8.3664,8.3265,8.3849,8.2955,8.2122,7.9038,7.6799,7.4272,7.1662,6.9428,6.8506,6.8164,6.7969,6.775,6.7482,6.7408,6.736,6.7262,6.6969,6.682,6.6308,6.528,6.452,6.4391,6.4367,6.4367,6.4367,6.4367,6.4367,6.4367,6.4367,6.4367,6.4367,6.4367,6.4367,6.4367,6.4367,6.4367,6.4367,6.4367,6.4367,6.4367,6.4367,6.4367,6.4367,6.4367,6.4367,6.4367,6.4367,6.4367,6.4367,6.4367,6.4367,6.4367,6.4367,6.4367,6.4367,6.4367,6.4367,6.4367,6.4367,6.4367,6.4367,6.4367,6.4367,6.4367,6.4367,6.4367,6.4367,6.4367,6.4367,6.4367,6.4367,6.4367,6.4367,6.4367,6.4367,6.4367,6.4367,6.4367,6.4367,6.4367,6.4367,6.4367,6.4367,6.4367,6.4367,6.4367,6.4367,6.4367,6.4367,6.4367,6.4367,6.4367,6.4367,6.4367,6.4367,6.4367,6.4367,6.4367,6.4367,6.4367,6.4367,6.4367,6.4367,6.4367,8.1256,8.2294,8.2352,8.3023,8.3983,8.4109,8.4177,8.4177,8.4177,8.305,8.1378,8.3528,8.2657,7.8941,7.7832,7.651,7.4279,7.1834,7.065,7.0133,6.9333,6.9116,6.8725,6.826,6.8187,6.7799,6.7725,6.7821,6.6327,6.6476,6.5842,6.4838,6.4566,6.4517,6.4492,6.4464,6.4367,6.4367,6.4367,6.4367,6.4367,6.4367,6.4367,6.4367,6.4367,6.4367,6.4367,6.4367,6.4367,6.4367,6.4367,6.4367,6.4367,6.4367,6.4367,6.4367,6.4367,6.4367,6.4367,6.4367,6.4367,6.4367,6.4367,6.4367,6.4367,6.4367,6.4367,6.4367,6.4367,6.4367,6.4367,6.4367,6.4367,6.4367,6.4367,6.4367,6.4367,6.4367,6.4367,6.4367,6.4367,6.4367,6.4367,6.4367,6.4367,6.4367,6.4367,6.4367,6.4367,6.4367,6.4367,6.4367,6.4367,6.4367,6.4367,6.4367,6.4367,6.4367,6.4367,6.4367,6.4367,6.4367,6.4367,6.4367,6.4367,6.4367,6.4367,6.4367,6.4367,6.4367,6.4367,6.4367,6.4367,6.4367,6.4367,8.314,8.3566,8.3566,8.3809,8.4138,8.4177,8.4177,8.4177,8.4129,8.3761,8.3226,8.3693,8.2972,8.1257,7.9127,7.6744,7.6036,7.2641,7.079,7.0694,7.0234,7.0112,7.0037,6.984,6.9329,6.9622,6.9574,6.9354,6.8644,6.8164,6.7238,6.6064,6.5106,6.5009,6.5009,6.4737,6.4464,6.4464,6.4367,6.4367,6.4367,6.4367,6.4367,6.4367,6.4367,6.4367,6.4367,6.4367,6.4367,6.4367,6.4367,6.4367,6.4367,6.4367,6.4367,6.4367,6.4367,6.4367,6.4367,6.4367,6.4367,6.4367,6.4367,6.4367,6.4367,6.4367,6.4367,6.4367,6.4367,6.4367,6.4367,6.4367,6.4367,6.4367,6.4367,6.4367,6.4367,6.4367,6.4367,6.4367,6.4367,6.4367,6.4367,6.4367,6.4367,6.4367,6.4367,6.4367,6.4367,6.4367,6.4367,6.4367,6.4367,6.4367,6.4367,6.4367,6.4367,6.4367,6.4367,6.4367,6.4367,6.4367,6.4367,6.4367,6.4367,6.4367,6.4367,6.4367,6.4367,6.4367,6.4367,6.4367,6.4367,6.4367,6.4367,8.4177,8.4177,8.4177,8.4177,8.4177,8.4177,8.4177,8.4177,8.411,8.3713,8.3294,8.3994,8.3674,8.1526,7.8691,7.6963,7.5734,7.2171,7.079,7.079,7.0694,7.079,7.0694,7.0571,7.062,7.0742,7.0694,7.0449,7.0257,6.9213,6.8337,6.7555,6.6235,6.5842,6.5964,6.5472,6.4883,6.4834,6.4538,6.4367,6.4367,6.4367,6.4367,6.4367,6.4367,6.4367,6.4367,6.4367,6.4367,6.4367,6.4367,6.4367,6.4367,6.4367,6.4367,6.4367,6.4367,6.4367,6.4367,6.4367,6.4367,6.4367,6.4367,6.4367,6.4367,6.4367,6.4367,6.4367,6.4367,6.4367,6.4367,6.4367,6.4367,6.4367,6.4367,6.4367,6.4367,6.4367,6.4367,6.4367,6.4367,6.4367,6.4367,6.4367,6.4367,6.4367,6.4367,6.4367,6.4367,6.4367,6.4367,6.4367,6.4367,6.4367,6.4367,6.4367,6.4367,6.4367,6.4367,6.4367,6.4367,6.4367,6.4367,6.4367,6.4367,6.4367,6.4367,6.4367,6.4367,6.4367,6.4367,6.4367,6.4367,6.4367,6.4367,8.4013,8.4139,8.4158,8.4177,8.4177,8.4177,8.4177,8.4177,8.4158,8.3216,8.2006,8.3333,8.2145,7.9355,7.8336,7.6787,7.4843,7.2284,7.079,7.079,7.079,7.079,7.079,7.079,7.079,7.079,7.0694,7.0257,6.9359,6.9384,6.8654,6.7752,6.7652,6.7528,6.7338,6.6454,6.5939,6.5744,6.4883,6.4562,6.4391,6.4367,6.4367,6.4367,6.4367,6.4367,6.4367,6.4367,6.4367,6.4367,6.4367,6.4367,6.4367,6.4367,6.4367,6.4367,6.4367,6.4367,6.4367,6.4367,6.4367,6.4367,6.4367,6.4367,6.4367,6.4367,6.4367,6.4367,6.4367,6.4367,6.4367,6.4367,6.4367,6.4367,6.4367,6.4367,6.4367,6.4367,6.4367,6.4367,6.4367,6.4367,6.4367,6.4367,6.4367,6.4367,6.4367,6.4367,6.4367,6.4367,6.4367,6.4367,6.4367,6.4367,6.4367,6.4367,6.4367,6.4367,6.4367,6.4367,6.4367,6.4367,6.4367,6.4367,6.4367,6.4367,6.4367,6.4367,6.4367,6.4367,6.4367,6.4367,6.4367,6.4367,6.4367,8.1858,8.2045,8.3509,8.4177,8.4177,8.4177,8.4177,8.4177,8.4177,8.3693,8.3265,8.3752,8.3255,8.1587,7.9334,7.7,7.5631,7.2865,7.1313,7.079,7.079,7.079,7.079,7.079,7.079,7.079,7.0694,7.0669,7.0111,7.0208,6.9504,6.9089,6.9258,6.9016,6.8555,6.7506,6.6622,6.6061,6.5472,6.5201,6.4395,6.4346,6.4367,6.4367,6.4367,6.4367,6.4367,6.4367,6.4367,6.4367,6.4367,6.4367,6.4367,6.4367,6.4367,6.4367,6.4367,6.4367,6.4367,6.4367,6.4367,6.4367,6.4367,6.4367,6.4367,6.4367,6.4367,6.4367,6.4367,6.4367,6.4367,6.4367,6.4367,6.4367,6.4367,6.4367,6.4367,6.4367,6.4367,6.4367,6.4367,6.4367,6.4367,6.4367,6.4367,6.4367,6.4367,6.4367,6.4367,6.4367,6.4367,6.4367,6.4367,6.4367,6.4367,6.4367,6.4367,6.4367,6.4367,6.4367,6.4367,6.4367,6.4367,6.4367,6.4367,6.4367,6.4367,6.4367,6.4367,6.4367,6.4367,6.4367,6.4367,6.4367,6.4367,8.2145,8.2264,8.3587,8.4177,8.4177,8.4177,8.4177,8.4177,8.4177,8.4177,8.411,8.4177,8.4177,8.3196,8.0387,7.8461,7.7069,7.3551,7.1854,7.1084,7.079,7.079,7.079,7.079,7.079,7.079,7.079,7.079,7.079,7.0645,7.0159,7.0086,7.028,7.0135,6.9868,6.9087,6.8209,6.7333,6.6354,6.5692,6.4886,6.4688,6.4367,6.4367,6.4367,6.4367,6.4367,6.4367,6.4367,6.4367,6.4367,6.4367,6.4367,6.4367,6.4367,6.4367,6.4367,6.4367,6.4367,6.4367,6.4367,6.4367,6.4367,6.4367,6.4367,6.4367,6.4367,6.4367,6.4367,6.4367,6.4367,6.4367,6.4367,6.4367,6.4367,6.4367,6.4367,6.4367,6.4367,6.4367,6.4367,6.4367,6.4367,6.4367,6.4367,6.4367,6.4367,6.4367,6.4367,6.4367,6.4367,6.4367,6.4367,6.4367,6.4367,6.4367,6.4367,6.4367,6.4367,6.4367,6.4367,6.4367,6.4367,6.4367,6.4367,6.4367,6.4367,6.4367,6.4367,6.4367,6.4367,6.4367,6.4367,6.4367,6.4367,8.3955,8.3926,8.3868,8.3858,8.3839,8.3955,8.3965,8.4177,8.4177,8.4177,8.4177,8.4177,8.4177,8.3518,8.1627,7.9554,7.7811,7.5214,7.3083,7.163,7.0836,7.079,7.079,7.079,7.079,7.079,7.079,7.079,7.079,7.079,7.079,7.0767,7.0694,7.0742,7.0547,7.0255,6.9671,6.8796,6.7113,6.6159,6.535,6.4813,6.4367,6.4367,6.4367,6.4367,6.4367,6.4367,6.4367,6.4367,6.4367,6.4367,6.4367,6.4367,6.4367,6.4367,6.4367,6.4367,6.4367,6.4367,6.4367,6.4367,6.4367,6.4367,6.4367,6.4367,6.4367,6.4367,6.4367,6.4367,6.4367,6.4367,6.4367,6.4367,6.4367,6.4367,6.4367,6.4367,6.4367,6.4367,6.4367,6.4367,6.4367,6.4367,6.4367,6.4367,6.4367,6.4367,6.4367,6.4367,6.4367,6.4367,6.4367,6.4367,6.4367,6.4367,6.4367,6.4367,6.4367,6.4367,6.4367,6.4367,6.4367,6.4367,6.4367,6.4367,6.4367,6.4367,6.4367,6.4367,6.4367,6.4367,6.4367,6.4367,6.4367,8.1678,8.1698,8.1678,8.1698,8.167,8.167,8.2648,8.4052,8.4177,8.4177,8.4177,8.4177,8.4177,8.3674,8.2045,8.0555,7.9616,7.5855,7.399,7.2795,7.1788,7.088,7.079,7.079,7.079,7.079,7.079,7.079,7.079,7.079,7.079,7.079,7.079,7.079,7.079,7.0718,7.0645,6.9966,6.8113,6.6381,6.5106,6.4541,6.4391,6.4367,6.4367,6.4367,6.4367,6.4367,6.4367,6.4367,6.4367,6.4367,6.4367,6.4367,6.4367,6.4367,6.4367,6.4367,6.4367,6.4367,6.4367,6.4367,6.4367,6.4367,6.4367,6.4367,6.4367,6.4367,6.4367,6.4367,6.4367,6.4367,6.4367,6.4367,6.4367,6.4367,6.4367,6.4367,6.4367,6.4367,6.4367,6.4367,6.4367,6.4367,6.4367,6.4367,6.4367,6.4367,6.4367,6.4367,6.4367,6.4367,6.4367,6.4367,6.4367,6.4367,6.4367,6.4367,6.4367,6.4367,6.4367,6.4367,6.4367,6.4367,6.4367,6.4367,6.4367,6.4367,6.4367,6.4367,6.4367,6.4367,6.4367,6.4367,6.4367,8.2284,8.2303,8.2312,8.2332,8.2284,8.2255,8.305,8.4013,8.4177,8.4177,8.4177,8.4177,8.4177,8.4013,8.3011,8.1278,7.9114,7.6824,7.4734,7.2506,7.1379,7.079,7.079,7.079,7.079,7.079,7.079,7.079,7.079,7.079,7.079,7.079,7.079,7.079,7.079,7.079,7.079,7.0255,6.9014,6.7113,6.5427,6.4615,6.4367,6.4367,6.4367,6.4367,6.4367,6.4367,6.4367,6.4367,6.4367,6.4367,6.4367,6.4367,6.4367,6.4367,6.4367,6.4367,6.4367,6.4367,6.4367,6.4367,6.4367,6.4367,6.4367,6.4367,6.4367,6.4367,6.4367,6.4367,6.4367,6.4367,6.4367,6.4367,6.4367,6.4367,6.4367,6.4367,6.4367,6.4367,6.4367,6.4367,6.4367,6.4367,6.4367,6.4367,6.4367,6.4367,6.4367,6.4367,6.4367,6.4367,6.4367,6.4367,6.4367,6.4367,6.4367,6.4367,6.4367,6.4367,6.4367,6.4367,6.4367,6.4367,6.4367,6.4367,6.4367,6.4367,6.4367,6.4367,6.4367,6.4367,6.4367,6.4367,6.4367,8.4032,8.3713,8.3392,8.3401,8.307,8.2589,8.2991,8.3557,8.3596,8.3897,8.4177,8.3916,8.3596,8.3353,8.3157,8.0895,7.8476,7.6637,7.4738,7.2261,7.1153,7.079,7.079,7.079,7.079,7.079,7.079,7.079,7.079,7.079,7.079,7.079,7.079,7.079,7.079,7.079,7.079,7.0547,6.9577,6.8069,6.6454,6.5183,6.459,6.4416,6.4367,6.4367,6.4367,6.4367,6.4367,6.4367,6.4367,6.4367,6.4367,6.4367,6.4367,6.4367,6.4367,6.4367,6.4367,6.4367,6.4367,6.4367,6.4367,6.4367,6.4367,6.4367,6.4367,6.4367,6.4367,6.4367,6.4367,6.4367,6.4367,6.4367,6.4367,6.4367,6.4367,6.4367,6.4367,6.4367,6.4367,6.4367,6.4367,6.4367,6.4367,6.4367,6.4367,6.4367,6.4367,6.4367,6.4367,6.4367,6.4367,6.4367,6.4367,6.4367,6.4367,6.4367,6.4367,6.4367,6.4367,6.4367,6.4367,6.4367,6.4367,6.4367,6.4367,6.4367,6.4367,6.4367,6.4367,6.4367,6.4367,6.4367,6.4367,8.3129,8.137,7.9623,7.8899,7.856,7.6968,7.8317,8.104,8.1678,8.2628,8.3752,8.2442,8.1658,8.1109,7.9869,7.8539,7.7573,7.5496,7.4361,7.2728,7.1539,7.079,7.079,7.079,7.079,7.079,7.079,7.079,7.079,7.079,7.079,7.079,7.079,7.079,7.079,7.079,7.079,7.0402,6.9603,6.8949,6.7996,6.6601,6.5253,6.4468,6.4367,6.4416,6.4367,6.4367,6.4367,6.4367,6.4367,6.4367,6.4367,6.4367,6.4367,6.4367,6.4367,6.4367,6.4367,6.4367,6.4367,6.4367,6.4367,6.4367,6.4367,6.4367,6.4367,6.4367,6.4367,6.4367,6.4367,6.4367,6.4367,6.4367,6.4367,6.4367,6.4367,6.4367,6.4367,6.4367,6.4367,6.4367,6.4367,6.4367,6.4367,6.4367,6.4367,6.4367,6.4367,6.4367,6.4367,6.4367,6.4367,6.4367,6.4367,6.4367,6.4367,6.4367,6.4367,6.4367,6.4367,6.4367,6.4367,6.4367,6.4367,6.4367,6.4367,6.4367,6.4367,6.4367,6.4367,6.4367,6.4367,6.4367,6.4367,8.127,7.9307,7.9245,7.9162,7.8955,7.7835,7.9341,8.2204,8.2442,8.2569,8.2224,8.1418,8.0332,7.9162,7.7916,7.6808,7.5881,7.4401,7.3481,7.2391,7.1404,7.079,7.079,7.079,7.079,7.079,7.079,7.079,7.079,7.079,7.079,7.079,7.079,7.079,7.079,7.079,7.079,7.05,6.9628,6.8973,6.8778,6.7506,6.6183,6.5399,6.5127,6.4834,6.4562,6.4367,6.4367,6.4367,6.4367,6.4367,6.4367,6.4367,6.4367,6.4367,6.4367,6.4367,6.4367,6.4367,6.4367,6.4367,6.4367,6.4367,6.4367,6.4367,6.4367,6.4367,6.4367,6.4367,6.4367,6.4367,6.4367,6.4367,6.4367,6.4367,6.4367,6.4367,6.4367,6.4367,6.4367,6.4367,6.4367,6.4367,6.4367,6.4367,6.4367,6.4367,6.4367,6.4367,6.4367,6.4367,6.4367,6.4367,6.4367,6.4367,6.4367,6.4367,6.4367,6.4367,6.4367,6.4367,6.4367,6.4367,6.4367,6.4367,6.4367,6.4367,6.4367,6.4367,6.4367,6.4367,6.4367,6.4367,6.4367,7.9224,7.7678,7.9135,7.9732,7.9629,7.919,7.9834,8.2284,8.1778,8.1538,8.0271,7.9786,7.8386,7.7192,7.668,7.5392,7.3813,7.3262,7.2439,7.1174,7.088,7.079,7.079,7.079,7.079,7.079,7.079,7.079,7.079,7.079,7.079,7.079,7.079,7.079,7.079,7.079,7.079,7.0596,6.9966,6.9481,6.9237,6.8284,6.7138,6.5866,6.5716,6.5274,6.4611,6.4367,6.4367,6.4367,6.4367,6.4367,6.4367,6.4367,6.4367,6.4367,6.4367,6.4367,6.4367,6.4367,6.4367,6.4367,6.4367,6.4367,6.4367,6.4367,6.4367,6.4367,6.4367,6.4367,6.4367,6.4367,6.4367,6.4367,6.4367,6.4367,6.4367,6.4367,6.4367,6.4367,6.4367,6.4367,6.4367,6.4367,6.4367,6.4367,6.4367,6.4367,6.4367,6.4367,6.4367,6.4367,6.4367,6.4367,6.4367,6.4367,6.4367,6.4367,6.4367,6.4367,6.4367,6.4367,6.4367,6.4367,6.4367,6.4367,6.4367,6.4367,6.4367,6.4367,6.4367,6.4367,6.4367,6.4367,6.4367,7.7874,7.7473,7.5751,7.5101,7.4795,7.337,7.4097,7.5795,7.5622,7.7244,7.7467,7.5859,7.5427,7.4321,7.2907,7.1834,7.1404,7.1358,7.1539,7.0765,7.079,7.079,7.079,7.079,7.079,7.079,7.079,7.079,7.079,7.079,7.079,7.079,7.079,7.079,7.079,7.079,7.079,7.079,7.0451,7.0329,7.0182,6.9311,6.7943,6.6622,6.6183,6.5546,6.4761,6.4416,6.4367,6.4367,6.4367,6.4367,6.4367,6.4367,6.4367,6.4367,6.4367,6.4367,6.4367,6.4367,6.4367,6.4367,6.4367,6.4367,6.4367,6.4367,6.4367,6.4367,6.4367,6.4367,6.4367,6.4367,6.4367,6.4367,6.4367,6.4367,6.4367,6.4367,6.4367,6.4367,6.4367,6.4367,6.4367,6.4367,6.4367,6.4367,6.4367,6.4367,6.4367,6.4367,6.4367,6.4367,6.4367,6.4367,6.4367,6.4367,6.4367,6.4367,6.4367,6.4367,6.4367,6.4367,6.4367,6.4367,6.4367,6.4367,6.4367,6.4367,6.4367,6.4367,6.4367,6.4367,6.4367,6.4367,6.4367,7.6175,7.3994,7.4078,7.4053,7.3876,7.3042,7.3839,7.5648,7.5907,7.5886,7.547,7.4646,7.337,7.2236,7.1267,7.079,7.079,7.079,7.079,7.079,7.079,7.079,7.079,7.079,7.079,7.079,7.079,7.079,7.079,7.079,7.079,7.079,7.079,7.079,7.079,7.079,7.079,7.079,7.079,7.079,7.0742,7.0161,6.9256,6.8619,6.7306,6.6232,6.5155,6.4663,6.4416,6.4367,6.4367,6.4367,6.4367,6.4367,6.4367,6.4367,6.4367,6.4367,6.4367,6.4367,6.4367,6.4367,6.4367,6.4367,6.4367,6.4367,6.4367,6.4367,6.4367,6.4367,6.4367,6.4367,6.4367,6.4367,6.4367,6.4367,6.4367,6.4367,6.4367,6.4367,6.4367,6.4367,6.4367,6.4367,6.4367,6.4367,6.4367,6.4367,6.4367,6.4367,6.4367,6.4367,6.4367,6.4367,6.4367,6.4367,6.4367,6.4367,6.4367,6.4367,6.4367,6.4367,6.4367,6.4367,6.4367,6.4367,6.4367,6.4367,6.4367,6.4367,6.4367,6.4367,6.4367,6.4367,6.4367,7.4038,7.0903,7.2664,7.3348,7.3373,7.337,7.4343,7.5847,7.5907,7.465,7.3636,7.3303,7.2301,7.0857,7.0834,7.079,7.079,7.079,7.079,7.079,7.079,7.079,7.079,7.079,7.079,7.079,7.079,7.079,7.079,7.079,7.079,7.079,7.079,7.079,7.079,7.079,7.079,7.079,7.079,7.079,7.0742,7.0669,7.0426,6.9865,6.8309,6.6845,6.5692,6.4764,6.437,6.4367,6.4367,6.4367,6.4367,6.4367,6.4367,6.4367,6.4367,6.4367,6.4367,6.4367,6.4367,6.4367,6.4367,6.4367,6.4367,6.4367,6.4367,6.4367,6.4367,6.4367,6.4367,6.4367,6.4367,6.4367,6.4367,6.4367,6.4367,6.4367,6.4367,6.4367,6.4367,6.4367,6.4367,6.4367,6.4367,6.4367,6.4367,6.4367,6.4367,6.4367,6.4367,6.4367,6.4367,6.4367,6.4367,6.4367,6.4367,6.4367,6.4367,6.4367,6.4367,6.4367,6.4367,6.4367,6.4367,6.4367,6.4367,6.4367,6.4367,6.4367,6.4367,6.4367,6.4367,6.4367,6.4367,7.1153,7.079,7.0995,7.1109,7.1199,7.113,7.1584,7.1607,7.1924,7.163,7.1381,7.1176,7.1153,7.079,7.079,7.079,7.079,7.079,7.079,7.079,7.079,7.079,7.079,7.079,7.079,7.079,7.079,7.079,7.079,7.079,7.079,7.079,7.079,7.079,7.079,7.079,7.079,7.079,7.079,7.079,7.079,7.0596,7.0137,6.9382,6.8045,6.6601,6.5179,6.4444,6.4367,6.4367,6.4367,6.4367,6.4367,6.4367,6.4367,6.4367,6.4367,6.4367,6.4367,6.4367,6.4367,6.4367,6.4367,6.4367,6.4367,6.4367,6.4367,6.4367,6.4367,6.4367,6.4367,6.4367,6.4367,6.4367,6.4367,6.4367,6.4367,6.4367,6.4367,6.4367,6.4367,6.4367,6.4367,6.4367,6.4367,6.4367,6.4367,6.4367,6.4367,6.4367,6.4367,6.4367,6.4367,6.4367,6.4367,6.4367,6.4367,6.4367,6.4367,6.4367,6.4367,6.4367,6.4367,6.4367,6.4367,6.4367,6.4367,6.4367,6.4367,6.4367,6.4367,6.4367,6.4367,6.4367,6.4367,7.1922,7.079,7.079,7.079,7.079,7.079,7.079,7.079,7.079,7.079,7.079,7.079,7.079,7.079,7.079,7.079,7.079,7.079,7.079,7.079,7.079,7.079,7.079,7.079,7.079,7.079,7.079,7.079,7.079,7.079,7.079,7.079,7.079,7.079,7.079,7.079,7.079,7.0767,7.079,7.079,7.0669,7.0111,6.9457,6.8971,6.7994,6.682,6.5399,6.4639,6.4367,6.4367,6.4367,6.4367,6.4367,6.4367,6.4367,6.4367,6.4367,6.4367,6.4367,6.4367,6.4367,6.4367,6.4367,6.4367,6.4367,6.4367,6.4367,6.4367,6.4367,6.4367,6.4367,6.4367,6.4367,6.4367,6.4367,6.4367,6.4367,6.4367,6.4367,6.4367,6.4367,6.4367,6.4367,6.4367,6.4367,6.4367,6.4367,6.4367,6.4367,6.4367,6.4367,6.4367,6.4367,6.4367,6.4367,6.4367,6.4367,6.4367,6.4367,6.4367,6.4367,6.4367,6.4367,6.4367,6.4367,6.4367,6.4367,6.4367,6.4367,6.4367,6.4367,6.4367,6.4367,6.4367,6.4367,7.2236,7.0813,7.079,7.079,7.079,7.079,7.079,7.079,7.079,7.079,7.079,7.079,7.079,7.079,7.079,7.079,7.079,7.079,7.079,7.079,7.079,7.079,7.079,7.079,7.079,7.079,7.079,7.079,7.079,7.079,7.079,7.079,7.079,7.079,7.079,7.079,7.079,7.0742,7.05,7.0257,7.0062,6.9164,6.8486,6.8213,6.7408,6.6503,6.5521,6.4737,6.4367,6.4367,6.4367,6.4367,6.4367,6.4367,6.4367,6.4367,6.4367,6.4367,6.4367,6.4367,6.4367,6.4367,6.4367,6.4367,6.4367,6.4367,6.4367,6.4367,6.4367,6.4367,6.4367,6.4367,6.4367,6.4367,6.4367,6.4367,6.4367,6.4367,6.4367,6.4367,6.4367,6.4367,6.4367,6.4367,6.4367,6.4367,6.4367,6.4367,6.4367,6.4367,6.4367,6.4367,6.4367,6.4367,6.4367,6.4367,6.4367,6.4367,6.4367,6.4367,6.4367,6.4367,6.4367,6.4367,6.4367,6.4367,6.4367,6.4367,6.4367,6.4367,6.4367,6.4367,6.4367,6.4367,6.4367,7.0854,7.0765,7.0742,7.0596,7.0596,7.0571,7.0498,7.0643,7.0596,7.05,7.0596,7.0449,7.0547,7.0645,7.04,7.0474,7.0718,7.062,7.0571,7.0596,7.062,7.0694,7.0742,7.079,7.079,7.079,7.079,7.079,7.079,7.079,7.079,7.079,7.079,7.079,7.0718,7.0718,7.0645,7.0426,6.9602,6.914,6.9022,6.8045,6.7164,6.6305,6.604,6.5549,6.4761,6.4464,6.4367,6.4367,6.4367,6.4367,6.4367,6.4367,6.4367,6.4367,6.4367,6.4367,6.4367,6.4367,6.4367,6.4367,6.4367,6.4367,6.4367,6.4367,6.4367,6.4367,6.4367,6.4367,6.4367,6.4367,6.4367,6.4367,6.4367,6.4367,6.4367,6.4367,6.4367,6.4367,6.4367,6.4367,6.4367,6.4367,6.4367,6.4367,6.4367,6.4367,6.4367,6.4367,6.4367,6.4367,6.4367,6.4367,6.4367,6.4367,6.4367,6.4367,6.4367,6.4367,6.4367,6.4367,6.4367,6.4367,6.4367,6.4367,6.4367,6.4367,6.4367,6.4367,6.4367,6.4367,6.4367,6.4367,6.4367,6.8672,6.865,6.865,6.8697,6.8672,6.8695,6.8672,6.8672,6.865,6.865,6.8697,6.8697,6.8674,6.865,6.8672,6.9038,6.9626,6.965,6.965,6.965,6.9675,7.0111,7.0718,7.079,7.079,7.079,7.079,7.079,7.079,7.079,7.079,7.079,7.079,7.0742,7.0718,7.0086,6.9675,6.9481,6.8581,6.8042,6.7823,6.7016,6.6305,6.5866,6.5253,6.4737,6.444,6.4367,6.4367,6.4367,6.4367,6.4367,6.4367,6.4367,6.4367,6.4367,6.4367,6.4367,6.4367,6.4367,6.4367,6.4367,6.4367,6.4367,6.4367,6.4367,6.4367,6.4367,6.4367,6.4367,6.4367,6.4367,6.4367,6.4367,6.4367,6.4367,6.4367,6.4367,6.4367,6.4367,6.4367,6.4367,6.4367,6.4367,6.4367,6.4367,6.4367,6.4367,6.4367,6.4367,6.4367,6.4367,6.4091,6.3987,6.422,6.422,6.4241,6.4304,6.4325,6.4367,6.4367,6.4367,6.4367,6.4367,6.4367,6.4367,6.4367,6.4367,6.4367,6.4367,6.4367,6.4367,6.4367,6.4367,6.4367,6.7435,6.7435,6.7435,6.7435,6.7435,6.7435,6.7435,6.746,6.7435,6.7435,6.7435,6.7435,6.7435,6.746,6.7435,6.785,6.8481,6.8189,6.8215,6.8486,6.8532,6.8967,6.9572,6.9694,6.9866,7.0208,7.0548,7.079,7.079,7.079,7.079,7.079,7.079,7.0596,7.0159,6.9457,6.8778,6.8484,6.7506,6.6969,6.6847,6.5939,6.5424,6.535,6.4716,6.4367,6.4367,6.4367,6.4367,6.4367,6.4367,6.4367,6.4367,6.4367,6.4367,6.4367,6.4367,6.4367,6.4367,6.4367,6.4367,6.4367,6.4367,6.4367,6.4367,6.4367,6.4367,6.4367,6.4367,6.4367,6.4367,6.4367,6.4367,6.4367,6.4367,6.4367,6.4367,6.4367,6.4367,6.4367,6.4367,6.4367,6.4367,6.4367,6.4367,6.4367,6.4367,6.4367,6.4367,6.4367,6.4346,6.4154,6.3308,6.2882,6.2626,6.2456,6.3202,6.39,6.4154,6.4367,6.4367,6.4367,6.4367,6.4367,6.4367,6.4367,6.4367,6.4367,6.4367,6.4367,6.4367,6.4367,6.4367,6.4367,6.4367,6.7384,6.7286,6.7433,6.7238,6.7164,6.7164,6.7335,6.7213,6.7262,6.7116,6.704,6.7286,6.7091,6.7286,6.7067,6.7265,6.7164,6.6476,6.6552,6.7408,6.7457,6.7577,6.775,6.7823,6.826,6.9044,7.0135,7.062,7.0474,7.0425,7.0449,7.0596,7.0449,6.9891,6.8997,6.88,6.8362,6.7457,6.643,6.5915,6.5793,6.4984,6.4517,6.4444,6.4395,6.4367,6.4367,6.4367,6.4367,6.4367,6.4367,6.4367,6.4367,6.4367,6.4367,6.4367,6.4367,6.4367,6.4367,6.4367,6.4367,6.4367,6.4367,6.4367,6.4367,6.4367,6.4367,6.4367,6.4367,6.4367,6.4367,6.4367,6.4367,6.4367,6.4367,6.4367,6.4367,6.4367,6.4367,6.4367,6.4367,6.4367,6.4304,6.3945,6.3585,6.3479,6.3434,6.3371,6.3181,6.3118,6.3921,6.3666,6.2647,6.2047,6.1403,6.0909,6.2347,6.3413,6.3539,6.4367,6.4367,6.4367,6.4367,6.4367,6.4367,6.4367,6.4367,6.4367,6.4367,6.4367,6.4367,6.4367,6.4367,6.4367,6.4367,6.535,6.535,6.535,6.5372,6.5372,6.535,6.5372,6.535,6.535,6.5329,6.535,6.535,6.535,6.5329,6.535,6.5329,6.5277,6.5033,6.5402,6.6332,6.6403,6.6774,6.736,6.7435,6.7628,6.7972,6.8357,6.8526,6.8502,6.8526,6.8504,6.855,6.8502,6.8333,6.7896,6.7238,6.675,6.633,6.5353,6.4859,6.4813,6.4517,6.4367,6.4367,6.4367,6.4367,6.4367,6.4367,6.4367,6.4367,6.4367,6.4367,6.4367,6.4367,6.4367,6.4367,6.4367,6.4367,6.4367,6.4367,6.4367,6.4367,6.4367,6.4367,6.4367,6.4367,6.4367,6.4367,6.4367,6.4367,6.4367,6.4367,6.4367,6.4367,6.4367,6.4367,6.4367,6.4367,6.4367,6.4367,6.4367,6.3543,6.2286,6.1985,6.1341,5.9586,5.9455,5.9477,5.9477,5.9521,5.9869,6.1382,6.1232,6.1361,6.1727,6.1384,6.2219,6.1684,6.1534,6.35,6.4367,6.4367,6.4367,6.4367,6.4367,6.4367,6.4367,6.4367,6.4367,6.4367,6.4367,6.4367,6.4367,6.4367,6.4367,6.4367,6.4367,6.4367,6.4367,6.4367,6.4367,6.4367,6.4367,6.4367,6.4367,6.4367,6.4367,6.4367,6.4367,6.4367,6.4367,6.4367,6.4367,6.4688,6.5277,6.535,6.5695,6.6284,6.6308,6.6479,6.682,6.6918,6.7067,6.7408,6.7435,6.7435,6.7435,6.7435,6.7259,6.6823,6.6232,6.5671,6.5301,6.4716,6.4367,6.4391,6.4367,6.4367,6.4367,6.4367,6.4367,6.4367,6.4367,6.4367,6.4367,6.4367,6.4367,6.4367,6.4367,6.4367,6.4367,6.4367,6.4367,6.4367,6.4367,6.4367,6.4367,6.4367,6.4367,6.4367,6.4367,6.4367,6.4367,6.4367,6.4367,6.4367,6.4367,6.4367,6.4367,6.4367,6.4367,6.4367,6.4367,6.4367,6.4367,6.4346,6.3816,6.2647,6.2028,6.1405,6.0066,5.9782,6.0065,5.9847,5.9804,6.0715,6.1598,6.1296,6.0952,6.2028,6.1298,6.1446,6.0627,6.0909,6.3266,6.4346,6.4367,6.4367,6.4367,6.4367,6.4367,6.4367,6.4367,6.4367,6.4367,6.4367,6.4367,6.4367,6.4367,6.4367,6.4367,6.4367,6.4367,6.4367,6.4367,6.4367,6.4367,6.4367,6.4367,6.4367,6.4367,6.4367,6.4367,6.4367,6.4367,6.4367,6.4367,6.4367,6.4395,6.4464,6.4395,6.4391,6.4367,6.4391,6.4932,6.579,6.5817,6.6281,6.7116,6.7213,6.7311,6.7238,6.7116,6.6747,6.5964,6.5768,6.5305,6.4566,6.4395,6.4367,6.4367,6.4367,6.4367,6.4367,6.4367,6.4367,6.4367,6.4367,6.4367,6.4367,6.4367,6.4367,6.4367,6.4367,6.4367,6.4367,6.4367,6.4367,6.4367,6.4367,6.4367,6.4367,6.4367,6.4367,6.4367,6.4367,6.4367,6.4367,6.4367,6.4367,6.4367,6.4367,6.4367,6.4367,6.4367,6.4367,6.4367,6.4367,6.4367,6.405,6.4154,6.3987,6.39,6.4154,6.2988,6.2219,6.284,6.2392,6.1448,6.2307,6.2286,6.2051,6.1277,5.9651,5.8028,5.9434,6.1362,6.1017,6.1038,6.39,6.4175,6.4367,6.4367,6.4367,6.4367,6.4367,6.4367,6.4346,6.4325,6.4367,6.4367,6.4367,6.4367,6.4367,6.4367,6.4367,6.4367,6.4367,6.4367,6.4367,6.4367,6.4367,6.4367,6.4367,6.4367,6.4367,6.4367,6.4367,6.4367,6.4367,6.4367,6.4367,6.4367,6.4367,6.4367,6.4367,6.4367,6.4367,6.4367,6.4517,6.4716,6.481,6.4956,6.5155,6.5183,6.5158,6.5204,6.5204,6.5054,6.4789,6.4761,6.4615,6.4391,6.4367,6.4367,6.4367,6.4367,6.4367,6.4367,6.4367,6.4367,6.4367,6.4367,6.4367,6.4367,6.4367,6.4367,6.4367,6.4367,6.4367,6.4367,6.4367,6.4367,6.4367,6.4367,6.4367,6.4367,6.4367,6.4367,6.4367,6.4367,6.4367,6.4367,6.4367,6.4367,6.4367,6.4367,6.4367,6.4367,6.4367,6.4367,6.4367,6.4367,6.3666,6.2177,6.3413,6.3753,6.194,6.0499,5.8645,5.5887,5.4686,5.3886,5.3909,5.4641,5.5185,5.629,5.7696,5.6984,5.5366,5.7563,5.8535,5.8666,6.0086,6.2219,6.405,6.4217,6.4304,6.2967,6.4008,6.42,6.3413,6.3837,6.4154,6.4304,6.4304,6.4217,6.4346,6.4367,6.4367,6.4367,6.4367,6.4367,6.4367,6.4367,6.4367,6.4367,6.4367,6.4367,6.4367,6.4367,6.4367,6.4367,6.4367,6.4367,6.4367,6.4367,6.4367,6.4367,6.4367,6.4367,6.4367,6.4367,6.4367,6.4367,6.4367,6.4367,6.4367,6.4367,6.4367,6.4367,6.4367,6.4367,6.4367,6.4367,6.4367,6.4367,6.4367,6.4367,6.4367,6.4367,6.4367,6.4367,6.4367,6.4367,6.4367,6.4367,6.4367,6.4367,6.4367,6.4367,6.4367,6.4367,6.4367,6.4367,6.4367,6.4367,6.4367,6.4367,6.4367,6.4367,6.4367,6.4367,6.4367,6.4367,6.4367,6.4367,6.4367,6.4367,6.4367,6.4367,6.4367,6.4367,6.4367,6.4367,6.4367,6.4367,6.4367,6.3858,6.2538,6.3434,6.3711,6.2304,6.0954,5.8952,5.6761,5.6044,5.685,5.6133,5.4959,5.514,5.6133,5.584,5.4844,5.2984,5.48,5.6357,5.6469,5.7696,5.9367,6.0909,6.1362,6.1448,6.1277,6.1062,6.1038,6.162,6.1405,6.1836,6.2689,6.2795,6.322,6.4175,6.4346,6.3223,6.4367,6.4367,6.4367,6.4367,6.4367,6.4367,6.4367,6.4367,6.4367,6.4367,6.4367,6.4367,6.4367,6.4346,6.4224,6.4126,6.4126,6.4077,6.4032,6.4126,6.4154,6.4248,6.4321,6.4367,6.4367,6.4367,6.4367,6.4367,6.4367,6.4367,6.4367,6.4367,6.4367,6.4367,6.4367,6.4367,6.4367,6.4367,6.4367,6.4367,6.4367,6.4367,6.4367,6.4367,6.4367,6.4367,6.4367,6.4367,6.4367,6.4367,6.4367,6.4367,6.4342,6.4224,6.4196,6.4151,6.4053,6.4102,6.4151,6.4273,6.4367,6.4367,6.4367,6.4367,6.4367,6.4151,6.4028,6.3955,6.4053,6.4077,6.4199,6.4318,6.4367,6.4367,6.4029,6.4029,6.3795,6.384,6.3581,6.3455,6.2755,6.3521,6.2392,6.2009,6.2307,6.0672,5.9827,5.9564,5.963,5.8447,5.774,5.8292,5.6179,5.2658,5.1208,5.384,5.498,5.4363,5.5547,5.6962,5.7718,5.7762,5.7252,5.8535,5.774,5.7873,5.7674,5.723,5.8204,5.9891,6.0498,6.0952,6.2904,6.3245,6.2113,6.4367,6.4367,6.4367,6.4367,6.4367,6.4367,6.4367,6.4367,6.4367,6.4367,6.4367,6.4367,6.4367,6.4248,6.3377,6.2966,6.2889,6.2132,6.2226,6.2917,6.2986,6.3495,6.4273,6.4367,6.4367,6.4367,6.4367,6.4367,6.4367,6.4367,6.4367,6.4367,6.4367,6.4367,6.4367,6.4367,6.4367,6.4367,6.4367,6.4367,6.4367,6.4367,6.4367,6.4367,6.4342,6.4367,6.4367,6.4367,6.4367,6.4367,6.4367,6.4367,6.4342,6.3516,6.2986,6.2913,6.223,6.2128,6.2937,6.3812,6.4367,6.4367,6.4367,6.4367,6.4245,6.2807,6.1806,6.1884,6.2567,6.299,6.3084,6.3739,6.4367,6.4217,6.2668,6.1545,6.1273,5.9847,5.816,5.6582,5.7673,5.816,5.6559,5.6065,5.6491,5.6357,5.4386,5.3287,5.3172,5.2846,5.3287,5.3929,5.273,5.0654,5.0237,5.1103,5.2092,5.3698,5.4073,5.4837,5.6187,5.6897,5.703,5.6633,5.6809,5.6587,5.6941,5.6919,5.7119,5.7651,5.7939,5.8182,5.9084,5.9281,5.8776,6.4367,6.4367,6.4367,6.4367,6.4367,6.4367,6.4367,6.4318,6.3764,6.3564,6.3572,6.4102,6.4367,6.4293,6.369,6.3377,6.3377,6.2787,6.2881,6.3352,6.3377,6.3718,6.4318,6.4367,6.4367,6.4367,6.4367,6.4367,6.4367,6.4367,6.4367,6.4367,6.4367,6.4367,6.4367,6.4367,6.4367,6.4318,6.3345,6.2856,6.2811,6.2372,6.2128,6.2104,6.2612,6.2832,6.2811,6.2856,6.2856,6.2811,6.2811,6.2811,6.2811,6.223,6.1868,6.1864,6.1347,6.1274,6.1844,6.2494,6.2832,6.2832,6.2832,6.2811,6.2832,6.1737,6.1049,6.1074,6.1522,6.1913,6.1913,6.2445,6.2443,6.1531,6.0234,5.9031,5.7991,5.699,5.609,5.5134,5.6146,5.6649,5.5366,5.5253,5.5252,5.514,5.4297,5.3448,5.3517,5.1365,4.9995,5.0998,5.0304,4.9349,4.883,4.8793,4.9307,5.0504,5.0822,5.1349,5.2276,5.2616,5.2594,5.2681,5.2659,5.2866,5.3229,5.3318,5.4089,5.4817,5.5568,5.6178,5.714,5.8094,5.7542,6.4367,6.4367,6.4367,6.4248,6.4126,6.4102,6.4028,6.3784,6.2836,6.2356,6.2429,6.3442,6.3976,6.4077,6.3955,6.3976,6.4102,6.3976,6.3955,6.4102,6.4077,6.4175,6.4367,6.4367,6.4367,6.4367,6.4367,6.4367,6.4367,6.4367,6.4367,6.4367,6.4367,6.4367,6.4367,6.4367,6.4273,6.4053,6.2205,6.1322,6.1469,6.0619,5.9965,5.9575,6.0668,6.1103,6.0639,6.0907,6.0761,6.0175,6.0131,6.0053,5.9906,5.9682,5.9926,6.0321,6.0204,6.0277,6.0585,6.0614,6.0736,6.0981,6.1049,6.0553,5.9646,5.9615,5.9691,5.9691,5.9609,5.9908,5.9932,5.9941,5.9318,5.7801,5.7197,5.624,5.4504,5.4383,5.4398,5.4267,5.5368,5.5464,5.4977,5.5154,5.4977,5.5463,5.4111,5.5196,5.4022,5.1619,4.894,4.8604,4.8585,4.83,4.7814,4.7454,4.7654,4.7476,4.7728,4.8006,4.8276,4.8276,4.8253,4.7649,4.8167,4.822,4.8775,4.8627,4.9963,5.1923,5.2539,5.3126,5.4667,5.6905,5.6379,6.4367,6.4367,6.4367,6.3809,6.2893,6.2917,6.2421,6.1591,0.0,0.0,0.0,6.1542,6.2083,6.284,6.1986,6.2079,6.2819,6.2006,6.2083,6.2868,6.2913,6.3422,6.4342,6.4367,6.4367,6.4367,6.4367,6.4367,6.4367,6.4367,6.4367,6.4367,6.4367,6.4367,6.4367,6.4367,6.3882,6.2917,6.2547,6.2791,6.3711,6.3589,6.2226,5.955,6.1327,6.1112,5.8594,6.0102,5.9418,5.5989,5.572,5.5348,5.4505,5.3643,5.4334,5.6751,5.6233,5.6544,5.8363,5.8466,5.9223,6.0952,6.1049,5.8501,5.2451,5.2779,5.3185,5.3207,5.3961,5.4491,5.4472,5.5247,5.5615,5.5216,5.3482,5.2219,5.1722,5.0179,4.9191,4.8968,4.9326,4.9203,4.944,4.9466,4.9161,4.9225,4.9704,4.9161,4.8984,4.8452,4.7685,4.7704,4.7707,4.7605,4.7454,4.7359,4.7476,4.7302,4.7359,4.7476,4.7476,4.7476,4.7476,4.7302,4.7457,4.7473,4.7624,4.7662,4.79,4.842,4.8526,4.8683,4.9273,5.11,5.1638,6.2665,0.0,6.2661,6.2343,0.0,6.1791,6.0932,5.9448,5.9443,5.9741,6.0297,6.079,6.1302,6.1791,6.1274,6.1322,6.1786,6.1293,6.1615,6.2551,6.2575,6.3206,6.4367,6.4367,6.4367,6.4367,6.4367,6.4367,6.4367,6.4367,6.4028,6.3491,6.3446,6.2937,6.1913,6.2417,6.2396,6.1795,6.1791,6.2104,6.2637,6.2132,6.0883,5.8843,0.0,0.0,0.0,0.0,0.0,0.0,0.0,0.0,0.0,0.0,0.0,5.364,5.1231,5.0166,5.1198,5.0786,5.1466,5.3738,5.3314,5.1444,4.7907,4.9214,4.9898,4.907,5.056,5.1772,5.2254,5.2755,5.2605,5.1484,5.0353,4.9168,4.8115,4.7289,4.6853,4.6869,4.721,4.7476,4.7476,4.7476,4.7476,4.7476,4.7476,4.7562,4.7438,4.7093,4.685,4.6827,4.6872,4.6676,4.6252,4.6161,4.6142,4.6139,4.6161,4.6139,4.6179,4.6161,4.6142,4.6161,4.6161,4.6353,4.6676,4.685,4.6982,4.7321,4.7476,4.7226,4.6381,4.7101,4.7557,6.1049,6.1049,6.1049,6.0932,6.0717,6.0541,5.9472,5.7929,5.7886,5.8398,5.9214,6.0058,6.0526,6.0761,6.0741,6.0859,6.1049,6.1049,6.1518,6.2307,6.2283,6.2815,6.3687,6.3711,6.3833,6.4004,6.4028,6.4105,6.4367,6.4367,6.3837,6.2941,6.2917,6.1986,6.0189,0.0,0.0,0.0,6.1151,6.1327,6.1302,6.0477,5.9282,5.7691,5.8819,0.0,5.7416,5.7309,5.7121,5.672,5.6297,0.0,0.0,0.0,0.0,0.0,0.0,0.0,0.0,0.0,0.0,0.0,4.4157,4.3288,4.3949,4.5715,4.6089,4.4556,4.6818,4.8639,4.9046,4.9387,4.8947,4.7548,4.7361,4.6716,4.5204,4.5575,4.5995,4.6014,4.6565,4.696,4.6881,4.6938,4.6941,4.6862,4.6957,4.6957,4.69,4.6375,4.6012,4.5995,4.6014,4.5705,4.5001,4.4982,4.5077,4.4926,4.4926,4.4963,4.502,4.4982,4.4923,4.4982,4.4926,4.5191,4.5881,4.6017,4.6185,4.6805,4.69,4.654,4.5229,4.4926,4.4926,6.1049,6.1049,6.1049,6.0497,5.9643,5.8716,5.8173,5.7886,5.7886,5.8002,5.813,5.8246,5.8857,5.9672,5.9692,6.016,6.1005,6.1049,6.1103,6.1249,6.1249,6.1302,6.1469,6.1469,6.1933,6.2795,6.2819,6.3328,6.4342,6.4367,6.4293,6.4105,6.4126,6.345,6.221,6.1444,6.0614,5.9721,6.1498,6.236,6.238,6.2258,6.0355,5.6726,5.8385,5.8087,5.5196,5.5044,5.4227,5.2397,5.0512,4.9851,5.071,4.9442,4.8231,0.0,4.5801,0.0,0.0,0.0,0.0,0.0,0.0,0.0,0.0,3.9365,3.8276,3.6602,4.005,4.1794,4.0475,4.1659,4.2991,4.4172,4.4302,4.4505,4.4875,4.5001,4.5056,4.5098,4.5172,4.5207,4.5267,4.5207,4.5229,4.5302,4.5326,4.5229,4.5229,4.5174,4.5077,4.5056,4.5077,4.5096,4.4888,4.485,4.4831,4.4869,4.4793,4.4926,4.4831,4.4831,4.4869,4.4869,4.4793,4.4847,4.5039,4.5037,4.5136,4.5267,4.5245,4.5134,4.4869,4.4793,4.4926,5.9321,5.9321,5.9321,5.8344,5.6745,5.6281,5.6104,5.6104,5.608,5.608,5.6129,5.6696,5.7574,5.8637,5.8599,5.8862,5.9296,5.9301,5.9619,6.016,6.018,6.0492,6.1049,6.1049,6.1254,6.1742,6.1717,6.1986,6.247,6.2474,6.249,6.2519,6.2514,6.0761,5.7544,5.9204,5.996,5.9502,6.0385,6.1136,6.1697,6.1742,6.0526,5.8103,5.7793,5.6668,5.4707,5.4627,5.4182,5.329,5.3492,5.3525,5.3236,4.7879,4.5292,0.0,0.0,0.0,0.0,0.0,0.0,0.0,0.0,0.0,0.0,0.0,3.584,3.5093,3.8765,4.0111,3.7533,3.8784,3.9921,4.0225,3.9826,4.0395,4.2612,4.2462,4.258,4.3488,4.3602,4.3773,4.4188,4.4285,4.4395,4.485,4.415,4.3602,4.364,4.4,4.4245,4.4283,4.4622,4.4793,4.4281,4.3905,4.3602,4.3602,4.3621,4.3602,4.3602,4.3602,4.3623,4.3602,4.3602,4.3602,4.3641,4.3943,4.4264,4.4207,4.3924,4.364,4.3623,4.3921,4.4264,5.7148,5.7099,5.63,5.5317,5.4243,5.3981,5.4177,5.4622,5.4622,5.4622,5.4647,5.519,5.5623,5.5952,5.5195,5.525,5.6001,5.5982,5.6983,5.8629,5.8702,5.9277,6.0292,6.0297,6.0419,6.0619,6.0131,6.0273,6.0981,6.0253,5.9741,5.9516,5.9247,5.7099,5.3357,5.655,5.8721,5.9458,5.9741,6.0253,6.0965,6.0286,5.9381,5.831,5.6211,5.4946,5.4617,5.4166,5.4361,5.5372,5.5547,5.532,5.4618,4.6372,0.0,0.0,0.0,0.0,0.0,0.0,0.0,0.0,0.0,3.5787,2.8432,0.0,3.3776,0.0,3.7645,3.8765,3.6416,3.7152,0.0,0.0,3.6356,3.668,3.9428,3.956,3.9921,4.1193,4.1726,4.2257,4.3052,4.3147,4.3373,4.3921,4.2995,4.2161,4.2011,4.2615,4.3069,4.29,4.326,4.3526,4.2862,4.2465,4.2352,4.2523,4.2619,4.26,4.26,4.26,4.26,4.26,4.26,4.26,4.2618,4.3054,4.3376,4.3147,4.2863,4.26,4.26,4.3053,4.345,5.4884,5.4622,5.1639,5.1484,5.3064,5.217,5.282,5.4598,5.4598,5.4622,5.4549,5.3681,5.2258,5.0264,4.7257,0.0,5.041,5.0394,5.2598,5.6415,5.644,5.7062,5.813,5.8198,5.8686,5.9531,5.755,5.8111,6.0761,5.8019,5.6068,5.511,5.417,5.3504,5.3144,5.4341,5.6477,5.9409,6.0355,6.0936,6.0985,5.8125,5.6066,5.5028,5.2982,5.2739,5.4478,5.2791,5.3585,5.7212,5.2117,4.9361,5.0035,0.0,0.0,0.0,0.0,0.0,0.0,0.0,0.0,0.0,0.0,0.0,0.0,0.0,0.0,0.0,3.4367,0.0,3.6113,3.5618,0.0,0.0,0.0,3.4394,3.5386,3.6806,3.7756,3.7925,0.0,0.0,4.1324,4.1419,4.1438,4.1513,4.14,4.1059,4.0358,4.0908,4.1173,4.0586,4.0472,4.0434,4.0605,4.0851,4.1363,4.2105,4.26,4.2448,4.2409,4.2428,4.2523,4.2486,4.2581,4.2543,4.2581,4.2504,4.2389,4.1589,4.2009,4.2543,4.2486,4.2561,4.2635,5.137,4.7703,4.645,4.6416,4.706,4.608,4.7228,4.9743,4.9044,4.876,4.8784,4.906,4.7954,4.5864,4.5186,0.0,0.0,0.0,4.88,5.2305,5.2288,5.358,5.5836,5.5958,5.6477,5.7434,5.6604,5.719,5.9106,5.7843,5.3068,4.5181,0.0,0.0,4.4191,4.9066,5.2486,5.4306,5.6176,5.7182,5.712,5.4671,5.3171,5.2734,5.065,4.9668,5.0011,5.0308,5.0112,4.9378,4.8077,4.6377,0.0,0.0,0.0,0.0,0.0,0.0,0.0,0.0,0.0,0.0,0.0,3.0468,2.6289,0.0,0.0,0.0,2.9604,2.9813,3.014,3.1754,0.0,0.0,0.0,0.0,0.0,0.0,0.0,3.5747,3.7016,3.8212,3.9485,3.9276,3.9162,3.9637,3.9257,3.8858,3.8553,0.0,3.9769,4.0015,4.0053,4.0053,4.0034,3.8991,3.8462,3.9389,3.9921,4.0225,4.0225,4.0719,4.1023,4.1061,4.1042,4.1042,4.1042,4.1042,4.0909,4.0604,4.0814,4.1042,4.1061,4.1402,4.1761,4.6944,0.0,0.0,0.0,0.0,4.1318,4.2536,4.522,4.4401,4.4006,4.4055,4.46,0.0,0.0,0.0,0.0,0.0,0.0,4.5791,4.8856,5.0166,5.1931,5.4177,5.4177,5.4567,5.5214,5.4319,5.4336,5.5062,5.4518,4.8881,3.8704,0.0,0.0,0.0,0.0,4.7739,4.9601,5.2304,5.3736,5.3736,5.2276,5.1216,5.0592,4.8224,4.7082,4.7461,4.7519,4.6601,4.4688,4.3637,0.0,0.0,0.0,0.0,0.0,0.0,0.0,0.0,0.0,0.0,0.0,0.0,0.0,0.0,0.0,0.0,0.0,0.0,0.0,2.6981,2.9142,2.9807,0.0,0.0,0.0,0.0,0.0,0.0,0.0,0.0,0.0,3.6756,3.6809,3.7205,0.0,0.0,3.7681,3.717,3.7815,3.8402,3.8572,3.8418,0.0,3.7925,3.6733,3.6071,3.6692,3.7853,3.8518,3.8026,3.8705,3.9179,3.8666,3.9161,3.9597,3.9369,3.8952,3.859,3.8628,3.8591,3.8628,3.8648,3.9409,4.013,0.0,0.0,0.0,0.0,0.0,0.0,0.0,0.0,4.1891,4.1817,0.0,4.0856,0.0,0.0,0.0,0.0,0.0,4.0326,0.0,0.0,5.0761,5.2991,5.2974,5.2991,5.3088,5.2966,4.9947,4.8492,4.837,4.6331,0.0,0.0,0.0,0.0,0.0,0.0,4.2279,4.6156,4.9726,5.1575,5.1555,5.1455,5.0408,4.8306,4.5442,4.5309,4.8106,4.4396,4.3593,4.6399,3.8712,0.0,0.0,0.0,0.0,0.0,0.0,0.0,0.0,0.0,0.0,0.0,0.0,0.0,0.0,0.0,0.0,0.0,0.0,0.0,0.0,2.8773,0.0,0.0,0.0,0.0,0.0,0.0,0.0,0.0,0.0,0.0,3.2832,3.408,3.5671,3.7319,0.0,0.0,0.0,0.0,3.6996,3.5443,3.4546,3.377,3.2983,3.4042,3.5021,3.5045,0.0,0.0,3.6509,3.6979,3.7073,3.5483,3.7171,3.8479,3.7659,3.6141,3.5178,3.5178,3.5251,3.5159,3.5289,3.6542,3.7605,0.0,0.0,0.0,0.0,0.0,0.0,0.0,0.0,0.0,3.7582,0.0,3.6531,0.0,0.0,0.0,0.0,0.0,0.0,0.0,0.0,4.2257,4.4332,4.5763,4.7108,4.7386,0.0,4.5581,4.324,0.0,0.0,0.0,0.0,0.0,0.0,0.0,0.0,4.0015,4.1836,4.5703,4.8007,4.8473,4.6695,4.5308,4.452,4.3518,4.22,4.0525,3.9737,3.9069,0.0,0.0,0.0,0.0,0.0,0.0,0.0,0.0,0.0,0.0,0.0,0.0,0.0,0.0,0.0,0.0,0.0,0.0,0.0,0.0,0.0,0.0,0.0,2.7916,0.0,0.0,0.0,0.0,0.0,0.0,0.0,0.0,0.0,3.0074,3.196,3.3792,3.4945,3.5325,3.5479,3.5424,0.0,0.0,0.0,0.0,0.0,0.0,0.0,3.2085,3.3154,3.2244,3.1675,3.2799,3.4584,3.5688,3.5085,0.0,0.0,3.2552,3.1758,3.1861,3.2457,3.3008,3.3324,3.3328,3.4267,3.4909,0.0,0.0,0.0,0.0,0.0,0.0,0.0,0.0,0.0,3.4081,3.3702,0.0,0.0,0.0,0.0,0.0,0.0,0.0,0.0,0.0,0.0,0.0,4.0719,4.2094,0.0,0.0,0.0,0.0,0.0,0.0,0.0,0.0,0.0,0.0,0.0,0.0,3.7354,3.8117,4.2364,4.495,4.547,4.3613,4.26,4.26,4.2255,4.0357,3.6718,0.0,0.0,0.0,0.0,0.0,0.0,0.0,0.0,0.0,0.0,0.0,0.0,0.0,0.0,0.0,0.0,0.0,0.0,0.0,0.0,0.0,0.0,0.0,0.0,0.0,2.6684,0.0,0.0,0.0,0.0,0.0,0.0,0.0,0.0,0.0,0.0,0.0,3.1747,3.3182,3.3846,3.4413,3.4912,3.5004,3.5178,0.0,0.0,0.0,0.0,0.0,0.0,0.0,0.0,0.0,0.0,0.0,0.0,0.0,0.0,3.3657,2.9527,2.8721,2.8789,2.9156,0.0,0.0,0.0,0.0,0.0,0.0,0.0,0.0,0.0,0.0,0.0,0.0,0.0,0.0,0.0,0.0,0.0,0.0,2.9014,0.0,0.0,0.0,0.0,0.0,0.0,0.0,0.0,0.0,0.0,0.0,0.0,0.0,0.0,0.0,0.0,0.0,0.0,0.0,0.0,0.0,0.0,3.4279,3.5023,4.0015,4.2545,4.2583,4.2524,4.2486,4.2467,4.1609,3.9997,3.7452,0.0,0.0,0.0,0.0,0.0,0.0,0.0,0.0,0.0,0.0,0.0,0.0,0.0,0.0,0.0,0.0,0.0,0.0,0.0,0.0,0.0,0.0,0.0,0.0,0.0,0.0,2.5283,2.6513,2.7384,0.0,0.0,0.0,0.0,0.0,0.0,0.0,0.0,0.0,0.0,3.3836,3.4912,3.4947,3.495,3.4893,3.4966,3.3568,3.2494,3.262,3.3201,3.3213,0.0,0.0,0.0,0.0,0.0,0.0,0.0,0.0,0.0,0.0,0.0,0.0,0.0,0.0,0.0,0.0,0.0,0.0,0.0,0.0,0.0,0.0,0.0,0.0,0.0,0.0,0.0,0.0,0.0,0.0,0.0,0.0,0.0,0.0,0.0,0.0,0.0,0.0,0.0,0.0,0.0,0.0,0.0,0.0,0.0,0.0,0.0,0.0,0.0,0.0,0.0,0.0,0.0,0.0,3.4114,3.4217,3.8571,4.108,4.1629,4.106,4.0776,4.0776,3.9921,3.827,0.0,0.0,0.0,0.0,0.0,0.0,0.0,0.0,0.0,0.0,0.0,0.0,0.0,0.0,0.0,0.0,0.0,0.0,0.0,0.0,0.0,0.0,0.0,0.0,0.0,0.0,0.0,0.0,2.7119,2.7202,2.662,0.0,0.0,0.0,0.0,0.0,0.0,0.0,0.0,0.0,0.0,3.2849,3.3976,3.3622,3.3454,3.4106,3.3223,3.2711,3.3334,3.3109,3.2506,3.1442,0.0,0.0,0.0,0.0,0.0,0.0,0.0,0.0,0.0,0.0,0.0,0.0,0.0,0.0,0.0,0.0,0.0,0.0,0.0,0.0,0.0,0.0,0.0,0.0,0.0,0.0,0.0,0.0,0.0,0.0,0.0,0.0,0.0,0.0,0.0,0.0,0.0,0.0,0.0,0.0,0.0,0.0,0.0,0.0,0.0,0.0,0.0,0.0,0.0,0.0,0.0,0.0,0.0,3.3466,3.3337,3.7735,4.0263,4.0737,4.0282,4.0053,4.0053,3.9143,3.7209,0.0,0.0,0.0,0.0,0.0,0.0,0.0,0.0,0.0,0.0,0.0,0.0,0.0,0.0,0.0,0.0,0.0,0.0,0.0,0.0,0.0,0.0,0.0,0.0,0.0,0.0,0.0,0.0,2.5787,2.6052,2.6228,0.0,0.0,0.0,0.0,0.0,0.0,0.0,0.0,0.0,0.0,3.1271,3.2659,3.2381,0.0,0.0,3.2818,3.2423,3.3615,3.3619,3.2813,3.1081,2.9893,0.0,0.0,0.0,0.0,0.0,0.0,0.0,0.0,0.0,0.0,0.0,0.0,0.0,0.0,0.0,0.0,0.0,0.0,0.0,0.0,0.0,0.0,0.0,0.0,0.0,0.0,0.0,0.0,0.0,0.0,0.0,0.0,0.0,0.0,0.0,0.0,0.0,0.0,0.0,0.0,0.0,0.0,0.0,0.0,0.0,0.0,0.0,0.0,0.0,0.0,0.0,0.0,0.0,3.2627,3.7434,4.0053,4.0053,3.9977,3.9958,3.9939,3.8953,3.6526,0.0,0.0,0.0,0.0,0.0,0.0,0.0,0.0,0.0,0.0,0.0,0.0,0.0,0.0,0.0,0.0,0.0,0.0,0.0,0.0,0.0,0.0,0.0,0.0,0.0,0.0,0.0,0.0,0.0,0.0,0.0,0.0,0.0,0.0,0.0,0.0,0.0,0.0,0.0,0.0,0.0,3.0235,3.1138,3.1205,3.1723,0.0,0.0,3.1723,3.3232,3.4207,3.3682,3.0382,0.0,0.0,0.0,0.0,0.0,0.0,0.0,0.0,0.0,0.0,0.0,0.0,0.0,0.0,0.0,0.0,0.0,0.0,0.0,0.0,0.0,0.0,0.0,0.0,0.0,0.0,0.0,0.0,0.0,0.0,0.0,0.0,0.0,0.0,0.0,0.0,0.0,0.0,0.0,0.0,0.0,0.0,0.0,0.0,0.0,0.0,0.0,0.0,0.0,0.0,0.0,0.0,0.0,0.0,3.2551,3.7452,4.0053,4.0015,3.9389,3.9029,3.8991,3.6999,0.0,0.0,0.0,0.0,0.0,0.0,0.0,0.0,0.0,0.0,0.0,0.0,0.0,0.0,0.0,0.0,0.0,0.0,0.0,0.0,0.0,0.0,0.0,0.0,0.0,0.0,0.0,2.0911,0.0,0.0,0.0,0.0,0.0,0.0,0.0,0.0,0.0,0.0,0.0,0.0,0.0,0.0,2.9603,3.1125,3.0206,2.9997,0.0,0.0,3.0216,3.0088,3.1743,3.2214,0.0,0.0,0.0,0.0,0.0,0.0,0.0,0.0,0.0,0.0,0.0,0.0,0.0,0.0,0.0,0.0,0.0,0.0,0.0,0.0,0.0,0.0,0.0,0.0,0.0,0.0,0.0,0.0,0.0,0.0,0.0,0.0,0.0,0.0,0.0,0.0,0.0,0.0,0.0,0.0,0.0,0.0,0.0,0.0,0.0,0.0,0.0,0.0,0.0,0.0,0.0,0.0,0.0,0.0,3.1231,3.2062,3.5856,3.821,3.8913,3.8439,3.8193,3.8175,3.6124,3.3843,0.0,0.0,0.0,0.0,0.0,0.0,0.0,0.0,0.0,0.0,0.0,0.0,0.0,0.0,0.0,0.0,0.0,0.0,0.0,0.0,0.0,0.0,0.0,0.0,0.0,0.0,0.0,0.0,0.0,0.0,0.0,0.0,0.0,0.0,0.0,0.0,0.0,0.0,0.0,0.0,0.0,0.0,3.0016,2.9038,0.0,0.0,0.0,2.9532,2.9793,0.0,0.0,0.0,0.0,0.0,0.0,0.0,0.0,0.0,0.0,0.0,0.0,0.0,0.0,0.0,0.0,0.0,0.0,0.0,0.0,0.0,0.0,0.0,0.0,0.0,0.0,0.0,0.0,0.0,0.0,0.0,0.0,0.0,0.0,0.0,0.0,0.0,0.0,0.0,0.0,0.0,0.0,0.0,0.0,0.0,0.0,0.0,0.0,0.0,0.0,0.0,0.0,0.0,0.0,0.0,0.0,0.0,3.1334,3.3824,3.5932,3.7414,3.7414,3.7339,3.732,3.5709,3.3676,0.0,0.0,0.0,0.0,0.0,0.0,0.0,0.0,0.0,0.0,0.0,0.0,0.0,0.0,0.0,0.0,0.0,0.0,0.0,0.0,0.0,0.0,0.0,0.0,0.0,0.0,0.0,0.0,0.0,0.0,0.0,0.0,0.0,0.0,0.0,0.0,0.0,0.0,0.0,0.0,0.0,2.7638,2.8621,2.793,2.7574,0.0,0.0,2.9095,3.0487,3.0806,0.0,0.0,0.0,0.0,0.0,0.0,0.0,0.0,0.0,0.0,0.0,0.0,0.0,0.0,0.0,0.0,0.0,0.0,0.0,0.0,0.0,0.0,0.0,0.0,0.0,0.0,0.0,0.0,0.0,0.0,0.0,0.0,0.0,0.0,0.0,0.0,0.0,0.0,0.0,0.0,0.0,0.0,0.0,0.0,0.0,0.0,0.0,0.0,0.0,0.0,0.0,0.0,0.0,0.0,0.0,0.0,3.1328,3.4343,3.645,3.7396,3.6811,3.6433,3.6414,3.4874,3.284,0.0,0.0,0.0,0.0,0.0,0.0,0.0,0.0,0.0,0.0,0.0,0.0,0.0,0.0,0.0,0.0,0.0,0.0,0.0,0.0,0.0,0.0,0.0,0.0,0.0,0.0,0.0,0.0,0.0,0.0,0.0,0.0,0.0,0.0,0.0,0.0,0.0,0.0,0.0,0.0,0.0,2.7019,2.8539,2.7468,0.0,0.0,0.0,0.0,2.7284,2.7784,0.0,0.0,0.0,0.0,0.0,0.0,0.0,0.0,0.0,0.0,0.0,0.0,0.0,0.0,0.0,0.0,0.0,0.0,0.0,0.0,0.0,0.0,0.0,0.0,0.0,0.0,0.0,0.0,0.0,0.0,0.0,0.0,0.0,0.0,0.0,0.0,0.0,0.0,0.0,0.0,0.0,0.0,0.0,0.0,0.0,0.0,0.0,0.0,0.0,0.0,0.0,0.0,0.0,0.0,0.0,0.0,3.1248,3.2951,3.4641,3.6236,3.5844,3.5597,3.5544,3.4454,3.2593,0.0,0.0,0.0,0.0,0.0,0.0,0.0,0.0,0.0,0.0,0.0,0.0,0.0,0.0,0.0,0.0,0.0,0.0,0.0,0.0,0.0,0.0,0.0,0.0,0.0,0.0,0.0,0.0,0.0,0.0,0.0,0.0,0.0,0.0,0.0,0.0,0.0,0.0,0.0,0.0,2.4921,2.5346,2.7264,0.0,0.0,0.0,0.0,0.0,0.0,2.7114,2.6961,0.0,0.0,0.0,0.0,0.0,0.0,0.0,0.0,0.0,0.0,0.0,0.0,0.0,0.0,0.0,0.0,0.0,0.0,0.0,0.0,0.0,0.0,0.0,0.0,0.0,0.0,0.0,0.0,0.0,0.0,0.0,0.0,0.0,0.0,0.0,0.0,0.0,0.0,0.0,0.0,0.0,0.0,0.0,0.0,0.0,0.0,0.0,0.0,0.0,0.0,0.0,0.0,0.0,0.0,0.0,3.0844,3.1167,3.2446,3.4722,3.4912,3.5004,3.4969,3.4207,3.2609,3.0074,0.0,0.0,0.0,0.0,0.0,0.0,0.0,0.0,0.0,0.0,0.0,0.0,0.0,0.0,0.0,0.0,0.0,0.0,0.0,0.0,0.0,0.0,0.0,0.0,0.0,0.0,0.0,0.0,0.0,0.0,0.0,0.0,0.0,0.0,0.0,0.0,0.0,0.0,0.0,2.315,2.3439,0.0,0.0,0.0,0.0,0.0,0.0,0.0,0.0,2.6576,0.0,0.0,0.0,0.0,0.0,0.0,0.0,0.0,0.0,0.0,0.0,0.0,0.0,0.0,0.0,0.0,0.0,0.0,0.0,0.0,0.0,0.0,0.0,0.0,0.0,0.0,0.0,0.0,0.0,0.0,0.0,0.0,0.0,0.0,0.0,0.0,0.0,0.0,0.0,0.0,0.0,0.0,0.0,0.0,0.0,0.0,0.0,0.0,0.0,0.0,0.0,0.0,0.0,0.0,0.0,0.0,3.0577,3.2195,3.3938,3.4644,3.5004,3.5004,3.4226,3.2593,3.004,0.0,0.0,0.0,0.0,0.0,0.0,0.0,0.0,0.0,0.0,0.0,0.0,0.0,0.0,0.0,0.0,0.0,0.0,0.0,0.0,0.0,0.0,0.0,0.0,0.0,0.0,0.0,0.0,0.0,0.0,0.0,0.0,0.0,0.0,0.0,0.0,0.0,0.0,2.2375,2.1671,0.0,0.0,0.0,0.0,0.0,0.0,0.0,0.0,2.5867,0.0,0.0,0.0,0.0,0.0,0.0,0.0,0.0,0.0,0.0,0.0,0.0,0.0,0.0,0.0,0.0,0.0,0.0,0.0,0.0,0.0,0.0,0.0,0.0,0.0,0.0,0.0,0.0,0.0,0.0,0.0,0.0,0.0,0.0,0.0,0.0,0.0,0.0,0.0,0.0,0.0,0.0,0.0,0.0,0.0,0.0,0.0,0.0,0.0,0.0,0.0,0.0,0.0,0.0,0.0,0.0,0.0,0.0,3.2092,3.3799,3.4589,3.5004,3.4931,3.3365,3.1689,0.0,0.0,0.0,0.0,0.0,0.0,0.0,0.0,0.0,0.0,0.0,0.0,0.0,0.0,0.0,0.0,0.0,0.0,0.0,0.0,0.0,0.0,0.0,0.0,0.0,0.0,0.0,0.0,0.0,0.0,0.0,0.0,0.0,0.0,0.0,0.0,0.0,0.0,0.0,0.0,0.0,0.0,0.0,0.0,0.0,0.0,0.0,0.0,0.0,0.0,0.0,0.0,0.0,0.0,0.0,0.0,0.0,0.0,0.0,0.0,0.0,0.0,0.0,0.0,0.0,0.0,0.0,0.0,0.0,0.0,0.0,0.0,0.0,0.0,0.0,0.0,0.0,0.0,0.0,0.0,0.0,0.0,0.0,0.0,0.0,0.0,0.0,0.0,0.0,0.0,0.0,0.0,0.0,0.0,0.0,0.0,0.0,0.0,0.0,0.0,0.0,0.0,0.0,0.0,0.0,0.0,0.0,0.0,3.1811,3.347,3.4475,3.5004,3.5004,3.2415,3.0591,0.0,0.0,0.0,0.0,0.0,0.0,0.0,0.0,0.0,0.0,0.0,0.0,0.0,0.0,0.0,0.0,0.0,0.0,0.0,0.0,0.0,0.0,0.0,0.0,0.0,0.0,0.0,0.0,0.0,0.0,0.0,0.0,0.0,0.0,0.0,0.0,0.0,0.0,0.0,0.0,0.0,0.0,0.0,0.0,0.0,0.0,0.0,0.0,2.588,0.0,0.0,0.0,0.0,0.0,0.0,0.0,0.0,0.0,0.0,0.0,0.0,0.0,0.0,0.0,0.0,0.0,0.0,0.0,0.0,0.0,0.0,0.0,0.0,0.0,0.0,0.0,0.0,0.0,0.0,0.0,0.0,0.0,0.0,0.0,0.0,0.0,0.0,0.0,0.0,0.0,0.0,0.0,0.0,0.0,0.0,0.0,0.0,0.0,0.0,0.0,0.0,0.0,0.0,0.0,0.0,0.0,0.0,0.0,3.0923,3.2551,3.4191,3.5004,3.4909,3.1785,2.9694,0.0,0.0,0.0,0.0,0.0,0.0,0.0,0.0,0.0,0.0,0.0,0.0,0.0,0.0,0.0,0.0,0.0,0.0,0.0,0.0,0.0,0.0,0.0,0.0,0.0,0.0,0.0,0.0,0.0,0.0,0.0,0.0,0.0,0.0,0.0,0.0,0.0,0.0,0.0,0.0,0.0,0.0,0.0,0.0,0.0,0.0,0.0,0.0,0.0,0.0,0.0,0.0,0.0,0.0,0.0,0.0,0.0,0.0,0.0,0.0,0.0,0.0,0.0,0.0,0.0,0.0,0.0,0.0,0.0,0.0,0.0,0.0,0.0,0.0,0.0,0.0,0.0,0.0,0.0,0.0,0.0,0.0,0.0,0.0,0.0,0.0,0.0,0.0,0.0,0.0,0.0,0.0,0.0,0.0,0.0,0.0,0.0,0.0,0.0,0.0,0.0,0.0,0.0,0.0,0.0,0.0,0.0,0.0,3.0083,3.1754,3.2939,3.3056,3.2085,2.9737,2.8106,0.0,0.0,0.0,0.0,0.0,0.0,0.0,0.0,0.0,0.0,0.0,0.0,0.0,0.0,0.0,0.0,0.0,0.0,0.0,0.0,0.0,0.0,0.0,0.0,0.0,0.0,0.0,0.0,0.0,0.0,0.0,0.0,0.0,0.0,0.0,0.0,0.0,0.0,0.0,0.0,0.0,0.0,0.0,0.0,0.0,0.0,0.0,0.0,0.0,0.0,0.0,0.0,0.0,0.0,0.0,0.0,0.0,0.0,0.0,0.0,0.0,0.0,0.0,0.0,0.0,0.0,0.0,0.0,0.0,0.0,0.0,0.0,0.0,0.0,0.0,0.0,0.0,0.0,0.0,0.0,0.0,0.0,0.0,0.0,0.0,0.0,0.0,0.0,0.0,0.0,0.0,0.0,0.0,0.0,0.0,0.0,0.0,0.0,0.0,0.0,0.0,0.0,0.0,0.0,0.0,0.0,0.0,0.0,0.0,3.0582,3.0951,3.0652,2.9637,2.777,2.6532,0.0,0.0,0.0,0.0,0.0,0.0,0.0,0.0,0.0,0.0,0.0,0.0,0.0,0.0,0.0,0.0,0.0,0.0,0.0,0.0,0.0,0.0,0.0,0.0,0.0,0.0,0.0,0.0,0.0,0.0,0.0,0.0,0.0,0.0,0.0,0.0,0.0,0.0,0.0,0.0,0.0,0.0,0.0,0.0,0.0,0.0,0.0,0.0,0.0,0.0,0.0,0.0,0.0,0.0,0.0,0.0,0.0,0.0,0.0,0.0,0.0,0.0,0.0,0.0,0.0,0.0,0.0,0.0,0.0,0.0,0.0,0.0,0.0,0.0,0.0,0.0,0.0,0.0,0.0,0.0,0.0,0.0,0.0,0.0,0.0,0.0,0.0,0.0,0.0,0.0,0.0,0.0,0.0,0.0,0.0,0.0,0.0,0.0,0.0,0.0,0.0,0.0,0.0,0.0,0.0,0.0,0.0,0.0,0.0,2.89,2.8138,2.8068,2.8735,2.6456,2.52,0.0,0.0,0.0,0.0,0.0,0.0,0.0,0.0,0.0,0.0,0.0,0.0,0.0,0.0,0.0,0.0,0.0,0.0,0.0,0.0,0.0,0.0,0.0,0.0,0.0,0.0,0.0,0.0,0.0,0.0,0.0,0.0,0.0,0.0,0.0,0.0,0.0,0.0,0.0,0.0,0.0,0.0,0.0,0.0,0.0,0.0,0.0,0.0,0.0,0.0,0.0,0.0,0.0,0.0,0.0,0.0,0.0,0.0,0.0,0.0,0.0,0.0,0.0,0.0,0.0,0.0,0.0,0.0,0.0,0.0,0.0,0.0,0.0,0.0,0.0,0.0,0.0,0.0,0.0,0.0,0.0,0.0,0.0,0.0,0.0,0.0,0.0,0.0,0.0,0.0,0.0,0.0,0.0,0.0,0.0,0.0,0.0,0.0,0.0,0.0,0.0,0.0,0.0,0.0,0.0,0.0,0.0,0.0,0.0,2.6449,2.6145,2.6114,2.6442,2.5012,2.4017,2.3499,0.0,0.0,0.0,0.0,0.0,0.0,0.0,0.0,0.0,0.0,0.0,0.0,0.0,0.0,0.0,0.0,0.0,0.0,0.0,0.0,0.0,0.0,0.0,0.0,0.0,0.0,0.0,0.0,0.0,0.0,0.0,0.0,0.0,0.0,0.0,0.0,0.0,0.0,0.0,0.0,0.0,0.0,0.0,0.0,0.0,0.0,0.0,0.0,0.0,0.0,0.0,0.0,0.0,0.0,0.0,0.0,0.0,0.0,0.0,0.0,0.0,0.0,0.0,0.0,0.0,0.0,0.0,0.0,0.0,0.0,0.0,0.0,0.0,0.0,0.0,0.0,0.0,0.0,0.0,0.0,0.0,0.0,0.0,0.0,0.0,0.0,0.0,0.0,0.0,0.0,0.0,0.0,0.0,0.0,0.0,0.0,0.0,0.0,0.0,0.0,0.0,0.0,0.0,0.0,0.0,0.0,0.0,0.0,2.5112,2.5105,2.5105,2.5055,2.4192,2.3346,0.0,0.0,0.0,0.0,0.0,0.0,0.0,0.0,0.0,0.0,0.0,0.0,0.0,0.0,0.0,0.0,0.0,0.0,0.0,0.0,0.0,0.0,0.0,0.0,0.0,0.0,0.0,0.0,0.0,0.0,0.0,0.0,0.0,0.0,0.0,0.0,0.0,0.0,0.0,0.0,0.0,0.0,0.0,0.0,0.0,0.0,0.0,0.0,0.0,0.0,0.0,0.0,0.0,0.0,0.0,0.0,0.0,0.0,0.0,0.0,0.0,0.0,0.0,0.0,0.0,0.0,0.0,0.0,0.0,0.0,0.0,0.0,0.0,0.0,0.0,0.0,0.0,0.0,0.0,0.0,0.0,0.0,0.0,0.0,0.0,0.0,0.0,0.0,0.0,0.0,0.0,0.0,0.0,0.0,0.0,0.0,0.0,0.0,0.0,0.0,0.0,0.0,0.0,0.0,0.0,0.0,0.0,0.0,2.5105,2.5105,2.5105,2.5105,2.5043,2.4199,2.3346,0.0,0.0,0.0,0.0,0.0,0.0,0.0,0.0,0.0,0.0,0.0,0.0,0.0,0.0,0.0,0.0,0.0,0.0,0.0,0.0,0.0,0.0,0.0,0.0,0.0,0.0,0.0,0.0,0.0,0.0,0.0,0.0,0.0,0.0,0.0,0.0,0.0,0.0,0.0,0.0,0.0,0.0,0.0,0.0,0.0,0.0,0.0,0.0,0.0,0.0,0.0,0.0,0.0,0.0,0.0,0.0,0.0,0.0,0.0,0.0,0.0,0.0,0.0,0.0,0.0,0.0,0.0,0.0,0.0,0.0,0.0,0.0,0.0,0.0,0.0,0.0,0.0,0.0,0.0,0.0,0.0,0.0,0.0,0.0,0.0,0.0,0.0,0.0,0.0,0.0,0.0,0.0,0.0,0.0,0.0,0.0,0.0,0.0,0.0,0.0,0.0,0.0,0.0,0.0,0.0,0.0,0.0,0.0,0.0,2.5105,0.0,2.5105,0.0,2.4176,2.3346,0.0,0.0,0.0,0.0,0.0,0.0,0.0,0.0,0.0,0.0,0.0,0.0,0.0,0.0,0.0,0.0,0.0,0.0,0.0,0.0,0.0,0.0,0.0,0.0,0.0,0.0,0.0,0.0,0.0,0.0,0.0,0.0,0.0,0.0,0.0,0.0,0.0,0.0,0.0,0.0,0.0,0.0,0.0,0.0,0.0,0.0,0.0,0.0,0.0,0.0,0.0,0.0,0.0,0.0,0.0,0.0,0.0,0.0,0.0,0.0,0.0,0.0,0.0,0.0,0.0,0.0,0.0,0.0,0.0,0.0,0.0,0.0,0.0,0.0,0.0,0.0,0.0,0.0,0.0,0.0,0.0,0.0,0.0,0.0,0.0,0.0,0.0,0.0,0.0,0.0,0.0,0.0,0.0,0.0,0.0,0.0,0.0,0.0,0.0,0.0,0.0,0.0,0.0,0.0,0.0,0.0,0.0,0.0,0.0,2.5105,2.5105,2.5105,2.5055,2.4526,2.3683,0.0,0.0,0.0,0.0,0.0,0.0,0.0,0.0,0.0,0.0,0.0,0.0,0.0,0.0,0.0,0.0,0.0,0.0,0.0,0.0,0.0,0.0,0.0,0.0,0.0,0.0,0.0,0.0,0.0,0.0,0.0,0.0,0.0,0.0,0.0,0.0,0.0,0.0,0.0,0.0,0.0,0.0,0.0,0.0,0.0,0.0,0.0,0.0,0.0,0.0,0.0,0.0,0.0,0.0,0.0,0.0,0.0,0.0,0.0,0.0,0.0,0.0,0.0,0.0,0.0,0.0,0.0,0.0,0.0,0.0,0.0,0.0,0.0,0.0,0.0,0.0,0.0,0.0,0.0,0.0,0.0,0.0,0.0,0.0,0.0,0.0,0.0,0.0,0.0,0.0,0.0,0.0,0.0,0.0,0.0,0.0,0.0,0.0,0.0,0.0,0.0,0.0,0.0,0.0,0.0,0.0,0.0,0.0,0.0,0.0,2.5105,2.5105,2.5105,2.5093,2.4287,0.0,0.0,0.0,0.0,0.0,0.0,0.0,0.0,0.0,0.0,0.0,0.0,0.0,0.0,0.0,0.0,0.0,0.0,0.0,0.0,0.0,0.0,0.0,0.0,0.0,0.0,0.0,0.0,0.0,0.0,0.0,0.0,0.0,0.0,0.0,0.0,0.0,0.0,0.0,0.0,0.0,0.0,0.0,0.0,0.0,0.0,0.0,0.0,0.0,0.0,0.0,0.0,0.0,0.0,0.0,0.0,0.0,0.0,0.0,0.0,0.0,0.0,0.0,0.0,0.0,0.0,0.0,0.0,0.0,0.0,0.0,0.0,0.0,0.0,0.0,0.0,0.0,0.0,0.0,0.0,0.0,0.0,0.0,0.0,0.0,0.0,0.0,0.0,0.0,0.0,0.0,0.0,0.0,0.0,0.0,0.0,0.0,0.0,0.0,0.0,0.0,0.0,0.0,0.0,0.0,0.0,0.0,0.0,0.0,0.0,2.5105,0.0,2.5105,2.5105,2.4568,2.3444,0.0,0.0,0.0,0.0,0.0,0.0,0.0,0.0,0.0,0.0,0.0,0.0,0.0,0.0,0.0,0.0,0.0,0.0,0.0,0.0,0.0,0.0,0.0,0.0,0.0,0.0,0.0,0.0,0.0,0.0,0.0,0.0,0.0,0.0,0.0,0.0,0.0,0.0,0.0,0.0,0.0,0.0,0.0,0.0,0.0,0.0,0.0,0.0,0.0,0.0,0.0,0.0,0.0,0.0,0.0,0.0,0.0,0.0,0.0,0.0,0.0,0.0,0.0,0.0,0.0,0.0,0.0,0.0,0.0,0.0,0.0,0.0,0.0,0.0,0.0,0.0,0.0,0.0,0.0,0.0,0.0,0.0,0.0,0.0,0.0,0.0,0.0,0.0,0.0,0.0,0.0,0.0,0.0,0.0,0.0,0.0,0.0,0.0,0.0,0.0,0.0,0.0,0.0,0.0,0.0,0.0,0.0,0.0,0.0,0.0,0.0,2.5105,2.5105,2.464,0.0,0.0,0.0,0.0,0.0,0.0,0.0,0.0,0.0,0.0,0.0,0.0,0.0,0.0,0.0,0.0,0.0,0.0,0.0,0.0,0.0,0.0,0.0,0.0,0.0,0.0,0.0,0.0,0.0,0.0,0.0,0.0,0.0,0.0,0.0,0.0,0.0,0.0,0.0,0.0,0.0,0.0,0.0,0.0,0.0,0.0,0.0,0.0,0.0,0.0,0.0,0.0,0.0,0.0,0.0,0.0,0.0,0.0,0.0,0.0,0.0,0.0,0.0,0.0,0.0,0.0,0.0,0.0,0.0,0.0,0.0,0.0,0.0,0.0,0.0,0.0,0.0,0.0,0.0,0.0,0.0,0.0,0.0,0.0,0.0,0.0,0.0,0.0,0.0,0.0,0.0,0.0,0.0,0.0,0.0,0.0,0.0,0.0,0.0,0.0,0.0,0.0,0.0,0.0,0.0,0.0,0.0,0.0,0.0,0.0,0.0,2.5105,2.5105,2.5105,0.0,2.3922,0.0,0.0,0.0,0.0,0.0,0.0,0.0,0.0,0.0,0.0,0.0,0.0,0.0,0.0,0.0,0.0,0.0,0.0,0.0,0.0,0.0,0.0,0.0,0.0,0.0,0.0,0.0,0.0,0.0,0.0,0.0,0.0,0.0,0.0,0.0,0.0,0.0,0.0,0.0,0.0,0.0,0.0,0.0,0.0,0.0,0.0,0.0,0.0,0.0,0.0,0.0,0.0,0.0,0.0,0.0,0.0,0.0,0.0,0.0,0.0,0.0,0.0,0.0,0.0,0.0,0.0,0.0,0.0,0.0,0.0,0.0,0.0,0.0,0.0,0.0,0.0,0.0,0.0,0.0,0.0,0.0,0.0,0.0,0.0,0.0,0.0,0.0,0.0,0.0,0.0,0.0,0.0,0.0,0.0,0.0,0.0,0.0,0.0,0.0,0.0,0.0,0.0,0.0,0.0,0.0,0.0,0.0,0.0,0.0,0.0,0.0,0.0,2.5105,2.4979,2.4784,0.0,0.0,0.0,0.0,0.0,0.0,0.0,0.0,0.0,0.0,0.0,0.0,0.0,0.0,0.0,0.0,0.0,0.0,0.0,0.0,0.0,0.0,0.0,0.0,0.0,0.0,0.0,0.0,0.0,0.0,0.0,0.0,0.0,0.0,0.0,0.0,0.0,0.0,0.0,0.0,0.0,0.0,0.0,0.0,0.0,0.0,0.0,0.0,0.0,0.0,0.0,0.0,0.0,0.0,0.0,0.0,0.0,0.0,0.0,0.0,0.0,0.0,0.0,0.0,0.0,0.0,0.0,0.0,0.0,0.0,0.0,0.0,0.0,0.0,0.0,0.0,0.0,0.0,0.0,0.0,0.0,0.0,0.0,0.0,0.0,0.0,0.0,0.0,0.0,0.0,0.0,0.0,0.0,0.0,0.0,0.0,0.0,0.0,0.0,0.0,0.0,0.0,0.0,0.0,0.0,0.0,0.0,0.0,0.0,0.0,2.5105,2.5105,2.5105,2.5105,2.5105,0.0,0.0,0.0,0.0,0.0,0.0,0.0,0.0,0.0,0.0,0.0,0.0,0.0,0.0,0.0,0.0,0.0,0.0,0.0,0.0,0.0,0.0,0.0,0.0,0.0,0.0,0.0,0.0,0.0,0.0,0.0,0.0,0.0,0.0,0.0,0.0,0.0,0.0,0.0,0.0,0.0,0.0,0.0,0.0,0.0,0.0,0.0,0.0,0.0,0.0,0.0,0.0,0.0,0.0,0.0,0.0,0.0,0.0,0.0,0.0,0.0,0.0,0.0,0.0,0.0,0.0,0.0,0.0,0.0,0.0,0.0,0.0,0.0,0.0,0.0,0.0,0.0,0.0,0.0,0.0,0.0,0.0,0.0,0.0,0.0,0.0,0.0,0.0,0.0,0.0,0.0,0.0,0.0,0.0,0.0,0.0,0.0,0.0,0.0,0.0,0.0,0.0,0.0,0.0,0.0,0.0,0.0,0.0,0.0,0.0,0.0,0.0,0.0,0.0,2.5074,0.0,0.0,0.0,0.0,0.0,0.0,0.0,0.0,0.0,0.0,0.0,0.0,0.0,0.0,0.0,0.0,0.0,0.0,0.0,0.0,0.0,0.0,0.0,0.0,0.0,0.0,0.0,0.0,0.0,0.0,0.0,0.0,0.0,0.0,0.0,0.0,0.0,0.0,0.0,0.0,0.0,0.0,0.0,0.0,0.0,0.0,0.0,0.0,0.0,0.0,0.0,0.0,0.0,0.0,0.0,0.0,0.0,0.0,0.0,0.0,0.0,0.0,0.0,0.0,0.0,0.0,0.0,0.0,0.0,0.0,0.0,0.0,0.0,0.0,0.0,0.0,0.0,0.0,0.0,0.0,0.0,0.0,0.0,0.0,0.0,0.0,0.0,0.0,0.0,0.0,0.0,0.0,0.0,0.0,0.0,0.0,0.0,0.0,0.0,0.0,0.0,0.0,0.0,0.0,0.0,0.0,0.0,0.0,0.0,0.0,0.0,0.0,0.0,0.0,0.0,0.0,0.0,0.0,0.0,0.0,0.0,0.0,0.0,0.0,0.0,0.0,0.0,0.0,0.0,0.0,0.0,0.0,0.0,0.0,0.0,0.0,0.0,0.0,0.0,0.0,0.0,0.0,0.0,0.0,0.0,0.0,0.0,0.0,0.0,0.0,0.0,0.0,0.0,0.0,0.0,0.0,0.0,0.0,0.0,0.0,0.0,0.0,0.0,0.0,0.0,0.0,0.0,0.0,0.0,0.0,0.0,0.0,0.0,0.0,0.0,0.0,0.0,0.0,0.0,0.0,0.0,0.0,0.0,0.0,0.0,0.0,0.0,0.0,0.0,0.0,0.0,0.0,0.0,0.0,0.0,0.0,0.0,0.0,0.0,0.0,0.0,0.0,0.0,0.0,0.0,0.0,0.0,0.0,0.0,0.0,0.0,0.0,0.0,0.0,0.0,0.0,0.0,0.0,0.0,0.0,0.0,0.0,0.0,0.0,0.0,0.0,0.0,0.0,0.0,0.0,0.0,0.0,0.0,0.0,0.0,0.0,0.0,0.0,0.0,0.0,0.0,0.0,0.0,0.0,0.0,0.0,0.0,0.0,0.0,0.0,0.0,0.0,0.0,0.0,0.0,0.0,0.0,0.0,0.0,0.0,0.0,0.0,0.0,0.0,0.0,0.0,0.0,0.0,0.0,0.0,0.0,0.0,0.0,0.0,0.0,0.0,0.0,0.0,0.0,0.0,0.0,0.0,0.0,0.0,0.0,0.0,0.0,0.0,0.0,0.0,0.0,0.0,0.0,0.0,0.0,0.0,0.0,0.0,0.0,0.0,0.0,0.0,0.0,0.0,0.0,0.0,0.0,0.0,0.0,0.0,0.0,0.0,0.0,0.0,0.0,0.0,0.0,0.0,0.0,0.0,0.0,0.0,0.0,0.0,0.0,0.0,0.0,0.0,0.0,0.0,0.0,0.0,0.0,0.0,0.0,0.0,0.0,0.0,0.0,0.0,0.0,0.0,0.0,0.0,0.0,0.0,0.0,0.0,0.0,0.0,0.0,0.0,0.0,0.0,0.0,0.0,0.0,0.0,0.0,0.0,0.0,0.0,0.0,0.0,0.0,0.0,0.0,0.0,0.0,0.0,0.0,0.0,0.0,0.0,0.0,0.0,0.0,0.0,0.0,0.0,0.0,0.0,0.0,0.0,0.0,0.0,0.0,0.0,0.0,0.0,0.0,0.0,0.0,0.0,0.0,0.0,0.0,0.0,0.0,0.0,0.0,0.0,0.0,0.0,0.0,0.0,0.0,0.0,0.0,0.0,0.0,0.0,0.0,0.0,0.0,0.0,0.0,0.0,0.0,0.0,0.0,0.0,0.0,0.0,0.0,0.0,0.0,0.0,0.0,0.0,0.0,0.0,0.0,0.0,0.0,0.0,0.0,0.0,0.0,0.0,0.0,0.0,0.0,0.0,0.0,0.0,0.0,0.0,0.0,0.0,0.0,0.0,0.0,0.0,0.0,0.0,0.0,0.0,0.0,0.0,0.0,0.0,0.0,0.0,0.0,0.0,0.0,0.0,0.0,0.0,0.0,0.0,0.0,0.0,0.0,0.0,0.0,0.0,0.0,0.0,0.0,0.0,0.0,0.0,0.0,0.0,0.0,0.0,0.0,0.0,0.0,0.0,0.0,0.0,0.0,0.0,0.0,0.0,0.0,0.0,0.0,0.0,0.0,0.0,0.0,0.0,0.0,0.0,0.0,0.0,0.0,0.0,0.0,0.0,0.0,0.0,0.0,0.0,0.0,0.0,0.0,0.0,0.0,0.0,0.0,0.0,0.0,0.0,0.0,0.0,0.0,0.0,0.0,0.0,0.0,0.0,0.0,0.0,0.0,0.0,0.0,0.0,0.0,0.0,0.0,0.0,0.0,0.0,0.0,0.0,0.0,0.0,0.0,0.0,0.0,0.0,0.0,0.0,0.0,0.0,0.0,0.0,0.0,0.0,0.0,0.0,0.0,0.0,0.0,0.0,0.0,0.0,0.0,0.0,0.0,0.0,0.0,0.0,0.0,0.0,0.0,0.0,0.0,0.0,0.0,0.0,0.0,0.0,0.0,0.0,0.0,0.0,0.0,0.0,0.0,0.0,0.0,0.0,0.0,0.0,0.0,0.0,0.0,0.0,0.0,0.0,0.0,0.0,0.0,0.0,0.0,0.0,0.0,0.0,0.0,0.0,0.0,0.0,0.0,0.0,0.0,0.0,0.0,0.0,0.0,0.0,0.0,0.0,0.0,0.0,0.0,0.0,0.0,0.0,0.0,0.0,0.0,0.0,0.0,0.0,0.0,0.0,0.0,0.0,0.0,0.0,0.0,0.0,0.0,0.0,0.0,0.0,0.0,0.0,0.0,0.0,0.0,0.0,0.0,0.0,0.0,0.0,0.0,0.0,0.0,0.0,0.0,0.0,0.0,0.0,0.0,0.0,0.0,0.0,0.0,0.0,0.0,0.0,0.0,0.0,0.0,0.0,0.0,0.0,0.0,0.0,0.0,0.0,0.0,0.0,0.0,0.0,0.0,0.0,0.0,0.0,0.0,0.0,0.0,0.0,0.0,0.0,0.0,0.0,0.0,0.0,0.0,0.0,0.0,0.0,0.0,0.0,0.0,0.0,0.0,0.0,0.0,0.0,0.0,0.0,0.0,0.0,0.0,0.0,0.0,0.0,0.0,0.0,0.0,0.0,0.0,0.0,0.0,0.0,0.0,0.0,0.0,0.0,0.0,0.0,0.0,0.0,0.0,0.0,0.0,0.0,0.0,0.0,0.0,0.0,0.0,0.0,0.0,0.0,0.0,0.0,0.0,0.0,0.0,0.0,0.0,0.0,0.0,0.0,0.0,0.0,0.0,0.0,0.0,0.0,0.0,0.0,0.0,0.0,0.0,0.0,0.0,0.0,0.0,0.0,0.0,0.0,0.0,0.0,0.0,0.0,0.0,0.0,0.0,0.0,0.0,0.0,0.0,0.0,0.0,0.0,0.0,0.0,0.0,0.0,0.0,0.0,0.0,0.0,0.0,0.0,0.0,0.0,0.0,0.0,0.0,0.0,0.0,0.0,0.0,0.0,0.0,0.0,0.0,0.0,0.0,0.0,0.0,0.0,0.0,0.0,0.0,0.0,0.0,0.0,0.0,0.0,0.0,0.0,0.0,0.0,0.0,0.0,0.0,0.0,0.0,0.0,0.0,0.0,0.0,0.0,0.0,0.0,0.0,0.0,0.0,0.0,0.0,0.0,0.0,0.0,0.0,0.0,0.0,0.0,0.0,0.0,0.0,0.0,0.0,0.0,0.0,0.0,0.0,0.0,0.0,0.0,0.0,0.0,0.0,0.0,0.0,0.0,0.0,0.0,0.0,0.0,0.0,0.0,0.0,0.0,0.0,0.0,0.0,0.0,0.0,0.0,0.0,0.0,0.0,0.0,0.0,0.0,0.0,0.0,0.0,0.0,0.0,0.0,0.0,0.0,0.0,0.0,0.0,0.0,0.0,0.0,0.0,0.0,0.0,0.0,0.0,0.0,0.0,0.0,0.0,0.0,0.0,0.0,0.0,0.0,0.0,0.0,0.0,0.0,0.0,0.0,0.0,0.0,0.0,0.0,0.0,0.0,0.0,0.0,0.0,0.0,0.0,0.0,0.0,0.0,0.0,0.0,0.0,0.0,0.0,0.0,0.0,0.0,0.0,0.0,0.0,0.0,0.0,0.0,0.0,0.0,0.0,0.0,0.0,0.0,0.0,0.0,0.0,0.0,0.0,0.0,0.0,0.0,0.0,0.0,0.0,0.0,0.0,0.0,0.0,0.0,0.0,0.0,0.0,0.0,0.0,0.0]}]]]